[[{"header":{"parameterUnit":"m.s-1","parameterCategory":1,"la1":30.6,"la2":28.766,"lo1":-90.7593,"lo2":-88.6598,"dy":0.0162,"dx":0.0183,"nx":116,"ny":114,"refTime":"2024-06-06T18:00:00:Z","depth":0,"parameterNumber":2,"parameterNumberName":"U-component_of_WINDS"},"data":[0.0,0.0,0.0,0.0,0.0,0.0,0.0,0.0,0.0,0.0,0.0,0.0,0.0,0.0,0.0,0.0,0.0,0.0,0.0,0.0,0.0,0.0,0.0,0.0,0.0,0.0,0.0,0.0,0.0,0.0,0.0,0.0,0.0,0.0,0.0,0.0,0.0,0.0,0.0,0.0,0.0,0.0,0.0,0.0,0.0,0.0,0.0,0.0,0.0,0.0,0.0,0.0,0.0,0.0,0.0,0.0,0.0,0.0,0.0,0.0,0.0,0.0,0.0,0.0,0.0,0.0,0.0,0.0,0.0,0.0,0.0,0.0,0.0,0.0,0.0,0.0,0.0,0.0,0.0,0.0,0.0,0.0,0.0,0.0,0.0,0.0,0.0,0.0,0.0,0.0,0.0,0.0,0.0,0.0,0.0,0.0,0.0,0.0,0.0,0.0,0.0,0.0,0.0,0.0,0.0,0.0,0.0,0.0,0.0,0.0,0.0,0.0,0.0,0.0,0.0,0.0,0.0,0.0,0.0,0.0,0.0,0.0,0.0,0.0,0.0,0.0,0.0,0.0,0.0,0.0,0.0,0.0,0.0,0.0,0.0,0.0,0.0,0.0,0.0,0.0,0.0,0.0,0.0,0.0,0.0,0.0,0.0,0.0,0.0,0.0,0.0,0.0,0.0,0.0,0.0,0.0,0.0,0.0,0.0,0.0,0.0,0.0,0.0,0.0,0.0,0.0,0.0,0.0,0.0,0.0,0.0,0.0,0.0,0.0,0.0,0.0,0.0,0.0,0.0,0.0,0.0,0.0,0.0,0.0,0.0,0.0,0.0,0.0,0.0,0.0,0.0,0.0,0.0,0.0,0.0,0.0,0.0,0.0,0.0,0.0,0.0,0.0,0.0,0.0,0.0,0.0,0.0,0.0,0.0,0.0,0.0,0.0,0.0,0.0,0.0,0.0,0.0,0.0,0.0,0.0,0.0,0.0,0.0,0.0,0.0,0.0,0.0,0.0,0.0,0.0,0.0,0.0,0.0,0.0,0.0,0.0,0.0,0.0,0.0,0.0,0.0,0.0,0.0,0.0,0.0,0.0,0.0,0.0,0.0,0.0,0.0,0.0,0.0,0.0,0.0,0.0,0.0,0.0,0.0,0.0,0.0,0.0,0.0,0.0,0.0,0.0,0.0,0.0,0.0,0.0,0.0,0.0,0.0,0.0,0.0,0.0,0.0,0.0,0.0,0.0,0.0,0.0,0.0,0.0,0.0,0.0,0.0,0.0,0.0,0.0,0.0,0.0,0.0,0.0,0.0,0.0,0.0,0.0,0.0,0.0,0.0,0.0,0.0,0.0,0.0,0.0,0.0,0.0,0.0,0.0,0.0,0.0,0.0,0.0,0.0,0.0,0.0,0.0,0.0,0.0,0.0,0.0,0.0,0.0,0.0,0.0,0.0,0.0,0.0,0.0,0.0,0.0,0.0,0.0,0.0,0.0,0.0,0.0,0.0,0.0,0.0,0.0,0.0,0.0,0.0,0.0,0.0,0.0,0.0,0.0,0.0,0.0,0.0,0.0,0.0,0.0,0.0,0.0,0.0,0.0,0.0,0.0,0.0,0.0,0.0,0.0,0.0,0.0,0.0,0.0,0.0,0.0,0.0,0.0,0.0,0.0,0.0,0.0,0.0,0.0,0.0,0.0,0.0,0.0,0.0,0.0,0.0,0.0,0.0,0.0,0.0,0.0,0.0,0.0,0.0,0.0,0.0,0.0,0.0,0.0,0.0,0.0,0.0,0.0,0.0,0.0,0.0,0.0,0.0,0.0,0.0,0.0,0.0,0.0,0.0,0.0,0.0,0.0,0.0,0.0,0.0,0.0,0.0,0.0,0.0,0.0,0.0,0.0,0.0,0.0,0.0,0.0,0.0,0.0,0.0,0.0,0.0,0.0,0.0,0.0,0.0,0.0,0.0,0.0,0.0,0.0,0.0,0.0,0.0,0.0,0.0,0.0,0.0,0.0,0.0,0.0,0.0,0.0,0.0,0.0,0.0,0.0,0.0,0.0,0.0,0.0,0.0,0.0,0.0,0.0,0.0,0.0,0.0,0.0,0.0,0.0,0.0,0.0,0.0,0.0,0.0,0.0,0.0,0.0,0.0,0.0,0.0,0.0,0.0,0.0,0.0,0.0,0.0,0.0,0.0,0.0,0.0,0.0,0.0,0.0,0.0,0.0,0.0,0.0,0.0,0.0,0.0,0.0,0.0,0.0,0.0,0.0,0.0,0.0,0.0,0.0,0.0,0.0,0.0,0.0,0.0,0.0,0.0,0.0,0.0,0.0,0.0,0.0,0.0,0.0,0.0,0.0,0.0,0.0,0.0,0.0,0.0,0.0,0.0,0.0,0.0,0.0,0.0,0.0,0.0,0.0,0.0,0.0,0.0,0.0,0.0,0.0,0.0,0.0,0.0,0.0,0.0,0.0,0.0,0.0,0.0,0.0,0.0,0.0,0.0,0.0,0.0,0.0,0.0,0.0,0.0,0.0,0.0,0.0,0.0,0.0,0.0,0.0,0.0,0.0,0.0,0.0,0.0,0.0,0.0,0.0,0.0,0.0,0.0,0.0,0.0,0.0,0.0,0.0,0.0,0.0,0.0,0.0,0.0,0.0,0.0,0.0,0.0,0.0,0.0,0.0,0.0,0.0,0.0,0.0,0.0,0.0,0.0,0.0,0.0,0.0,0.0,0.0,0.0,0.0,0.0,0.0,0.0,0.0,0.0,0.0,0.0,0.0,0.0,0.0,0.0,0.0,0.0,0.0,0.0,0.0,0.0,0.0,0.0,0.0,0.0,0.0,0.0,0.0,0.0,0.0,0.0,0.0,0.0,0.0,0.0,0.0,0.0,0.0,0.0,0.0,0.0,0.0,0.0,0.0,0.0,0.0,0.0,0.0,0.0,0.0,0.0,0.0,0.0,0.0,0.0,0.0,0.0,0.0,0.0,0.0,0.0,0.0,0.0,0.0,0.0,0.0,0.0,0.0,0.0,0.0,0.0,0.0,0.0,0.0,0.0,0.0,0.0,0.0,0.0,0.0,0.0,0.0,0.0,0.0,0.0,0.0,0.0,0.0,0.0,0.0,0.0,0.0,0.0,0.0,0.0,0.0,0.0,0.0,0.0,0.0,0.0,0.0,0.0,0.0,0.0,0.0,0.0,0.0,0.0,0.0,0.0,0.0,0.0,0.0,0.0,0.0,0.0,0.0,0.0,0.0,0.0,0.0,0.0,0.0,0.0,0.0,0.0,0.0,0.0,0.0,0.0,0.0,0.0,0.0,0.0,0.0,0.0,0.0,0.0,0.0,0.0,0.0,0.0,0.0,0.0,0.0,0.0,0.0,0.0,0.0,0.0,0.0,0.0,0.0,0.0,0.0,0.0,0.0,0.0,0.0,0.0,0.0,0.0,0.0,0.0,0.0,0.0,0.0,0.0,0.0,0.0,0.0,0.0,0.0,0.0,0.0,0.0,0.0,0.0,0.0,0.0,0.0,0.0,0.0,0.0,0.0,0.0,0.0,0.0,0.0,0.0,0.0,0.0,0.0,0.0,0.0,0.0,0.0,0.0,0.0,0.0,0.0,0.0,0.0,0.0,0.0,0.0,0.0,0.0,0.0,0.0,0.0,0.0,0.0,0.0,0.0,0.0,0.0,0.0,0.0,0.0,0.0,0.0,0.0,0.0,0.0,0.0,0.0,0.0,0.0,0.0,0.0,0.0,0.0,0.0,0.0,0.0,0.0,0.0,0.0,0.0,0.0,0.0,0.0,0.0,0.0,0.0,0.0,0.0,0.0,0.0,0.0,0.0,0.0,0.0,0.0,0.0,0.0,0.0,0.0,0.0,0.0,0.0,0.0,0.0,0.0,0.0,0.0,0.0,0.0,0.0,0.0,0.0,0.0,0.0,0.0,0.0,0.0,0.0,0.0,0.0,0.0,0.0,0.0,0.0,0.0,0.0,0.0,0.0,0.0,0.0,0.0,0.0,0.0,0.0,0.0,0.0,0.0,0.0,0.0,0.0,0.0,0.0,0.0,0.0,0.0,0.0,0.0,0.0,0.0,0.0,0.0,0.0,0.0,0.0,0.0,0.0,0.0,0.0,0.0,0.0,0.0,0.0,0.0,0.0,0.0,0.0,0.0,0.0,0.0,0.0,0.0,0.0,0.0,0.0,0.0,0.0,0.0,0.0,0.0,0.0,0.0,0.0,0.0,0.0,0.0,0.0,0.0,0.0,0.0,0.0,0.0,0.0,0.0,0.0,0.0,0.0,0.0,0.0,0.0,0.0,0.0,0.0,0.0,0.0,0.0,0.0,0.0,0.0,0.0,0.0,0.0,0.0,0.0,0.0,0.0,0.0,0.0,0.0,0.0,0.0,0.0,0.0,0.0,0.0,0.0,0.0,0.0,0.0,0.0,0.0,0.0,0.0,0.0,0.0,0.0,0.0,0.0,0.0,0.0,0.0,0.0,0.0,0.0,0.0,0.0,0.0,0.0,0.0,0.0,0.0,0.0,0.0,0.0,0.0,0.0,0.0,0.0,0.0,0.0,0.0,0.0,0.0,0.0,0.0,0.0,0.0,0.0,0.0,0.0,0.0,0.0,0.0,0.0,0.0,0.0,0.0,0.0,0.0,0.0,0.0,0.0,0.0,0.0,0.0,0.0,0.0,0.0,0.0,0.0,0.0,0.0,0.0,0.0,0.0,0.0,0.0,0.0,0.0,0.0,0.0,0.0,0.0,0.0,0.0,0.0,0.0,0.0,0.0,0.0,0.0,0.0,0.0,0.0,0.0,0.0,0.0,0.0,0.0,0.0,0.0,0.0,0.0,0.0,0.0,0.0,0.0,0.0,0.0,0.0,0.0,0.0,0.0,0.0,0.0,0.0,0.0,0.0,0.0,0.0,0.0,0.0,0.0,0.0,0.0,0.0,0.0,0.0,0.0,0.0,0.0,0.0,0.0,0.0,0.0,0.0,0.0,0.0,0.0,0.0,0.0,0.0,0.0,0.0,0.0,0.0,0.0,0.0,0.0,0.0,0.0,0.0,0.0,0.0,0.0,0.0,0.0,0.0,0.0,0.0,0.0,0.0,0.0,0.0,0.0,0.0,0.0,0.0,0.0,0.0,0.0,0.0,0.0,0.0,0.0,0.0,0.0,0.0,0.0,0.0,0.0,0.0,0.0,0.0,0.0,0.0,0.0,0.0,0.0,0.0,0.0,0.0,0.0,0.0,0.0,0.0,0.0,0.0,0.0,0.0,0.0,0.0,0.0,0.0,0.0,0.0,0.0,0.0,0.0,0.0,0.0,0.0,0.0,0.0,0.0,0.0,0.0,0.0,0.0,0.0,0.0,0.0,0.0,0.0,0.0,0.0,0.0,0.0,0.0,0.0,0.0,0.0,0.0,0.0,0.0,0.0,0.0,0.0,0.0,0.0,0.0,0.0,0.0,0.0,0.0,0.0,0.0,0.0,0.0,0.0,0.0,0.0,0.0,0.0,0.0,0.0,0.0,0.0,0.0,0.0,0.0,0.0,0.0,0.0,0.0,0.0,0.0,0.0,0.0,0.0,0.0,0.0,0.0,0.0,0.0,0.0,0.0,0.0,0.0,0.0,0.0,0.0,0.0,0.0,0.0,0.0,0.0,0.0,0.0,0.0,0.0,0.0,0.0,0.0,0.0,0.0,0.0,0.0,0.0,0.0,0.0,0.0,0.0,0.0,0.0,0.0,0.0,0.0,0.0,0.0,0.0,0.0,0.0,0.0,0.0,0.0,0.0,0.0,0.0,0.0,0.0,0.0,0.0,0.0,0.0,0.0,0.0,0.0,0.0,0.0,0.0,0.0,0.0,0.0,0.0,0.0,0.0,0.0,0.0,0.0,0.0,0.0,0.0,0.0,0.0,0.0,0.0,0.0,0.0,0.0,0.0,0.0,0.0,0.0,0.0,0.0,0.0,0.0,0.0,0.0,0.0,0.0,0.0,0.0,0.0,0.0,0.0,0.0,0.0,0.0,0.0,0.0,0.0,0.0,0.0,0.0,0.0,0.0,0.0,0.0,0.0,0.0,0.0,0.0,-2.4269,0.0,0.0,0.0,0.0,0.0,0.0,0.0,0.0,0.0,0.0,0.0,0.0,0.0,0.0,0.0,0.0,0.0,0.0,0.0,0.0,0.0,0.0,0.0,0.0,-1.2818,-1.2594,-1.3321,-1.2745,-1.2344,-1.2344,0.0,0.0,0.0,0.0,0.0,-1.1474,-1.2214,-1.2911,-1.3532,-1.5086,-0.9368,0.2792,-0.6355,-1.1482,-1.3158,0.0,0.0,0.0,0.0,0.0,0.0,0.0,0.0,0.0,0.0,0.0,0.0,0.0,0.0,0.0,0.0,0.0,0.0,0.0,0.0,0.0,0.0,0.0,0.0,0.0,0.0,0.0,0.0,0.0,0.0,0.0,0.0,0.0,0.0,0.0,0.0,0.0,0.0,0.0,0.0,0.0,0.0,0.0,0.0,0.0,0.0,0.0,0.0,0.0,0.0,0.0,0.0,0.0,0.0,0.0,0.0,0.0,0.0,0.0,0.0,0.0,0.0,0.0,0.0,0.0,0.0,0.0,0.0,0.0,0.0,0.0,-2.5186,0.0,0.0,0.0,0.0,0.0,0.0,0.0,0.0,0.0,0.0,0.0,0.0,0.0,0.0,0.0,0.0,0.0,0.0,0.0,0.0,0.0,-1.102,-1.2557,-1.2054,-1.1887,-1.2502,-1.1981,-1.1616,-1.1616,-1.1007,0.0,0.0,0.0,-1.0508,-1.0974,-1.1734,-1.2492,-1.3249,-1.4055,-0.5452,1.1542,0.1918,-0.3384,-0.5238,-1.4013,0.0,0.0,0.0,0.0,0.0,0.0,0.0,0.0,0.0,0.0,0.0,0.0,0.0,0.0,0.0,0.0,0.0,0.0,0.0,0.0,0.0,0.0,0.0,0.0,0.0,0.0,0.0,0.0,0.0,0.0,0.0,0.0,0.0,0.0,0.0,0.0,0.0,0.0,0.0,0.0,0.0,0.0,0.0,0.0,0.0,0.0,0.0,0.0,0.0,0.0,0.0,0.0,0.0,0.0,0.0,0.0,0.0,0.0,0.0,0.0,0.0,0.0,0.0,-3.0987,-3.1004,-3.0176,-3.092,-3.119,-3.097,-2.9076,-2.823,-2.8061,-2.6082,0.0,0.0,0.0,0.0,0.0,0.0,0.0,0.0,0.0,0.0,0.0,0.0,0.0,0.0,0.0,0.0,0.0,0.0,0.0,-1.1797,-1.1545,-1.1659,-1.1608,-1.1116,-1.0965,-1.0914,-1.0914,-1.0265,0.0,0.0,-1.1047,-1.1306,-1.2546,-1.212,-1.2641,-1.4246,-1.0393,-0.313,0.7,-0.1379,-0.0515,0.7508,-0.4845,-1.0262,-1.0152,0.0,0.0,0.0,0.0,0.0,0.0,0.0,0.0,0.0,0.0,0.0,0.0,0.0,0.0,0.0,0.0,0.0,0.0,0.0,0.0,0.0,0.0,0.0,0.0,0.0,0.0,0.0,0.0,0.0,0.0,0.0,0.0,0.0,0.0,0.0,0.0,0.0,0.0,0.0,0.0,0.0,-2.3966,-2.4574,0.0,0.0,0.0,0.0,0.0,0.0,0.0,0.0,0.0,0.0,0.0,0.0,0.0,-3.0992,-3.1681,-3.3728,-3.4421,-3.3795,-3.5876,-3.6129,-3.4776,-3.5537,-3.5537,-3.4878,-3.4573,0.0,-2.9736,-2.8789,0.0,0.0,0.0,0.0,0.0,0.0,0.0,0.0,0.0,0.0,0.0,0.0,0.0,0.0,0.0,0.0,0.0,0.0,0.0,0.0,0.0,-1.2043,-1.1915,-1.2008,-1.1283,-1.0474,-0.9646,-0.9868,-0.9978,-1.0077,-1.0527,-1.1283,-1.2249,-1.2086,-1.325,-1.5663,-0.9754,-0.5008,-0.1639,-0.4972,-0.4207,-0.0376,-0.899,-1.1376,-0.8974,-0.9768,0.0,0.0,0.0,0.0,0.0,0.0,0.0,0.0,0.0,0.0,0.0,0.0,0.0,0.0,0.0,0.0,0.0,0.0,0.0,0.0,0.0,0.0,0.0,0.0,0.0,0.0,0.0,0.0,0.0,0.0,0.0,0.0,0.0,0.0,0.0,0.0,0.0,0.0,0.0,-2.4002,-2.563,-2.5838,-2.6384,-2.6454,0.0,0.0,0.0,0.0,0.0,0.0,0.0,0.0,0.0,-3.2856,-3.3413,-3.4049,-3.4793,-3.6197,-3.6738,-3.6434,-3.7838,-3.7956,-3.6924,-3.7686,-3.7618,-3.6907,-3.6907,-3.5994,-3.4303,-3.185,-3.0061,-2.8653,0.0,0.0,0.0,0.0,-2.5033,-2.5031,0.0,0.0,0.0,0.0,0.0,0.0,0.0,0.0,0.0,0.0,0.0,0.0,-1.2385,-1.2287,-1.182,-1.0801,-0.9744,-0.8735,-0.7755,-0.8814,-0.9295,-0.8811,-0.9917,-1.0897,-1.1765,-1.2503,-1.4121,-1.6743,-1.2134,-0.9272,-0.8187,-0.9816,-0.9488,-0.7805,-1.3411,-1.3105,-0.8441,-0.9109,-0.9094,0.0,0.0,0.0,0.0,0.0,0.0,0.0,0.0,0.0,0.0,0.0,0.0,0.0,0.0,0.0,0.0,0.0,0.0,0.0,0.0,0.0,0.0,0.0,0.0,0.0,0.0,0.0,0.0,0.0,0.0,0.0,0.0,0.0,0.0,0.0,0.0,0.0,0.0,-2.5552,-2.7149,-2.6921,-2.8154,-2.8608,0.0,0.0,0.0,0.0,0.0,0.0,-3.3659,-3.3545,-3.4191,-3.5873,-3.6414,-3.6922,-3.7347,-3.8091,-3.8464,-3.8464,-3.9005,-3.8988,-3.8481,-3.9022,-3.8971,-3.8464,-3.8464,-3.8362,-3.7939,-3.4549,-3.2393,-3.1054,-2.8934,-2.7706,-2.7069,-2.7119,-2.7096,-2.7275,0.0,0.0,0.0,0.0,0.0,0.0,0.0,0.0,0.0,0.0,0.0,-1.2453,-1.0887,-1.1983,-1.0689,-0.5307,-0.4778,-0.48,0.0,0.0,-0.796,-0.8945,-0.9492,-1.041,-1.1765,-1.3698,-1.5391,-1.68,-1.8398,-1.5853,-0.9559,-1.6625,-1.4873,-0.6137,-1.2882,-1.2589,-0.7117,-0.8783,-0.825,-0.6437,0.0,0.0,0.0,0.0,0.0,0.0,0.0,0.0,0.0,0.0,0.0,0.0,0.0,0.0,0.0,0.0,0.0,0.0,0.0,0.0,0.0,0.0,0.0,0.0,0.0,0.0,0.0,0.0,0.0,0.0,0.0,0.0,0.0,0.0,0.0,0.0,0.0,0.0,0.0,-2.7842,-3.0467,0.0,0.0,0.0,0.0,-3.3063,-3.3424,-3.4632,-3.7136,-3.7479,-3.7775,-3.8139,-3.906,-3.9353,-3.887,-3.9597,-3.9969,-3.9969,-4.0003,-4.0003,-3.9969,-4.0003,-4.0003,-3.9969,-3.9969,-3.958,-3.8753,-3.639,-3.4593,-3.3135,-3.1142,-2.95,-2.8336,-2.8439,-2.8502,-2.8607,0.0,0.0,0.0,0.0,0.0,-1.4328,-1.5306,-1.4809,-1.4197,-1.3905,-1.3639,-1.2995,0.0,-1.0368,-0.904,-0.7542,-0.488,-0.3808,-0.4915,0.0,-0.8704,-0.9299,-1.024,-1.132,-1.255,-1.4092,-1.5648,-1.7195,-1.9302,-2.0499,-2.0899,-2.4654,-2.4938,-2.2444,-2.5392,-2.2857,-1.6107,-1.2333,-0.9814,-0.8497,-0.9526,-1.0759,0.0,0.0,0.0,0.0,0.0,0.0,0.0,0.0,0.0,0.0,0.0,0.0,0.0,0.0,0.0,0.0,0.0,0.0,0.0,0.0,0.0,0.0,0.0,0.0,0.0,0.0,0.0,0.0,0.0,0.0,0.0,0.0,0.0,0.0,0.0,0.0,0.0,-3.1561,-3.3623,0.0,-3.4,-3.4495,-3.5423,-3.6705,-3.7093,-3.8089,-3.9926,-3.9765,-3.9757,-3.9984,-4.0001,-3.9895,-3.9681,-3.9952,-4.007,-4.007,-4.007,-4.007,-4.007,-4.007,-4.007,-4.007,-4.007,-3.9935,-3.9581,-3.8264,-3.7202,-3.61,-3.4011,-3.2923,-3.2293,-3.0964,-3.0492,-3.0522,0.0,0.0,0.0,0.0,-1.3672,-1.4549,-1.5782,-1.5032,-1.4465,-1.4957,-1.3888,-1.2778,-1.1973,-1.0014,-0.872,-0.8764,-0.5585,-0.4188,-0.5477,-0.7461,-0.8691,-0.8972,-1.0313,-1.1833,-1.3347,-1.4771,-1.6355,-1.8257,-1.9801,-2.286,-2.7183,-2.8543,-3.0015,-3.154,-3.233,-2.9292,-2.3234,-1.8373,-1.4285,-1.1039,-1.1225,-1.1641,-1.2145,0.0,0.0,0.0,0.0,0.0,0.0,0.0,0.0,0.0,0.0,0.0,0.0,0.0,0.0,0.0,0.0,0.0,0.0,0.0,0.0,0.0,0.0,0.0,0.0,0.0,0.0,0.0,0.0,0.0,0.0,0.0,0.0,0.0,0.0,0.0,-3.3002,-3.4092,-3.6395,-3.7716,-3.7165,-3.7812,-3.8696,-3.9813,-4.0112,-4.0778,-4.205,-4.1769,-4.1469,-4.1206,-4.0844,-4.0466,-4.0121,-4.007,-4.007,-4.007,-4.007,-4.007,-4.007,-4.007,-4.007,-4.007,-4.007,-4.007,-4.007,-3.9542,-3.9041,-3.8402,-3.5953,-3.4723,-3.4138,-3.267,-3.2063,-3.1839,0.0,0.0,0.0,-1.2918,-1.3803,-1.4684,-1.5571,-1.4931,-1.4632,-1.5515,-1.3439,-1.1864,-1.1647,-1.1066,-1.0007,-0.8266,-0.6459,-0.5713,-0.64,-0.7238,-0.7773,-0.7954,-0.974,-1.1779,-1.413,-1.5709,-1.7573,-1.9862,-2.0281,-2.2739,-2.7126,-2.7919,-2.9425,-3.1508,-3.2338,-3.0755,-2.7333,-2.6515,-2.1425,-1.3862,-1.321,-1.3108,-1.3417,0.0,0.0,0.0,0.0,0.0,0.0,0.0,0.0,0.0,0.0,0.0,0.0,0.0,0.0,0.0,0.0,0.0,0.0,0.0,0.0,0.0,0.0,0.0,0.0,0.0,0.0,0.0,0.0,0.0,0.0,0.0,0.0,0.0,-3.036,-3.3085,-3.5109,-3.5182,-3.8695,-4.0543,-3.9001,-4.0267,-4.1515,-4.2286,-4.2341,-4.2671,-4.3442,-4.3479,-4.294,-4.1853,-4.181,-4.1241,-4.0121,-4.0121,-4.0121,-4.007,-4.007,-4.007,-4.007,-4.007,-4.007,-4.007,-4.007,-4.007,-4.007,-4.007,-4.007,-3.9766,-3.6819,-3.4804,-3.3576,-3.3499,-3.3095,-3.2452,0.0,0.0,-1.1602,-1.2581,-1.3298,-1.4288,-1.589,-1.5211,-1.4889,-1.5891,-1.4947,-1.329,-1.0932,-1.1688,-1.1703,-1.0001,-0.7761,-0.6193,-0.5709,0.0,-0.783,-0.9432,-1.0376,-1.1689,-1.3498,-1.395,-1.5601,-1.8426,-1.8614,-2.074,-2.4847,-2.7199,-2.9159,-3.0775,-3.2559,-3.1991,-2.9648,-2.8846,-2.5336,-2.0033,-1.7609,-1.5576,-1.4118,0.0,0.0,0.0,0.0,0.0,0.0,0.0,0.0,0.0,0.0,0.0,0.0,0.0,0.0,0.0,0.0,0.0,0.0,0.0,0.0,0.0,0.0,0.0,0.0,0.0,0.0,0.0,0.0,0.0,0.0,0.0,-3.1524,-3.3001,-3.3605,-3.5483,-3.7476,-3.9227,-4.0946,-4.2029,-4.2158,-4.258,-4.2928,-4.3149,-4.3167,-4.3259,-4.3479,-4.3142,-4.2598,-4.1793,-4.181,-4.1241,-4.0121,-4.0497,-4.0497,-4.007,-4.007,-4.007,-4.007,-4.007,-4.007,-4.007,-4.007,-4.007,-4.007,-4.007,-3.9782,-3.9073,-3.7214,-3.621,-3.5702,-3.4106,-3.338,-3.32,0.0,-1.0467,-1.1417,-1.2066,-1.316,-1.4575,-1.6323,-1.6292,-1.6276,-1.6843,-1.4299,-1.2062,-1.1123,-1.1286,-1.0836,-0.9342,-0.7633,-0.6325,-0.559,-0.6442,-0.7838,-0.9711,-1.0236,-1.1343,-1.3252,-1.3777,-1.5091,-1.7281,-1.7707,-1.979,-2.3353,-2.6044,-2.8566,-3.0977,-3.2435,-3.2355,-3.0981,-2.916,-2.6205,-2.2571,-2.0102,-1.7827,-1.6128,-1.7205,-1.8031,-1.8879,-2.0804,-2.1848,-2.2394,-2.2635,0.0,0.0,0.0,0.0,0.0,0.0,0.0,0.0,0.0,0.0,0.0,0.0,0.0,0.0,0.0,0.0,0.0,0.0,0.0,0.0,0.0,0.0,0.0,0.0,-3.4519,-3.5993,-3.7798,-3.8609,-3.9655,-4.1409,-4.2304,-4.2983,-4.3442,-4.3497,-4.3497,-4.3497,-4.3497,-4.3497,-4.3497,-4.3214,-4.2752,-4.2203,-4.2162,-4.1639,-4.0449,-4.0733,-4.0607,-4.007,-4.007,-4.007,-4.007,-4.007,-4.007,0.0,-4.007,-4.007,-4.007,-4.007,-3.961,0.0,0.0,0.0,0.0,0.0,-3.3903,-3.3858,0.0,-1.0361,-1.1292,-1.17,-1.3297,-1.5081,-1.6801,-1.7589,-1.8059,-1.8217,0.0,-1.0103,-1.1912,-1.0258,-0.8457,-0.7096,-0.6494,-0.61,0.0,0.0,-0.7665,-0.9268,-0.9672,-1.088,-1.3171,-1.4206,-1.5192,-1.6175,-1.7207,-1.9262,-2.2231,-2.4708,-2.784,-3.1403,-3.2088,-3.2187,-3.1589,-2.8375,-2.5388,-2.2652,-2.1026,-1.9687,-1.8676,-1.916,-2.018,-2.1574,-2.3071,-2.4023,-2.4483,-2.3778,0.0,0.0,0.0,0.0,0.0,0.0,0.0,0.0,0.0,0.0,0.0,0.0,0.0,0.0,0.0,0.0,0.0,0.0,0.0,0.0,0.0,0.0,0.0,0.0,-3.7564,-3.894,-4.1878,-4.1752,-4.1659,-4.2326,-4.3057,-4.3497,-4.3497,-4.3497,-4.3497,-4.3497,-4.3497,-4.3534,-4.3626,0.0,0.0,0.0,0.0,-4.2203,-4.0995,-4.1087,-4.0797,-4.0204,-4.0204,-4.0171,-4.007,-4.007,-4.007,-4.007,-4.007,-4.007,-4.007,-4.007,-3.961,-3.8799,-3.7978,-3.716,-3.6307,-3.5087,-3.4592,-3.4502,0.0,-1.0524,-1.1313,-1.2658,-1.3446,-1.4691,-1.7112,-1.7389,-1.8023,-2.0062,-1.6646,-1.3671,-1.2828,-0.9398,-0.6543,-0.518,-0.5093,-0.5417,0.0,0.0,-0.7081,-0.965,-0.9461,-1.0304,-1.2424,-1.2933,-1.3672,-1.4638,-1.5931,-1.78,-2.0237,-2.4365,-2.7606,-3.005,-3.1688,-3.2187,-3.1597,-2.8367,-2.536,-2.2649,-2.1056,-2.007,-1.9661,-2.0806,-2.2334,-2.3969,-2.5092,-2.6109,-2.6937,-2.685,-2.6691,-2.6683,-2.7097,0.0,0.0,0.0,0.0,0.0,0.0,0.0,0.0,0.0,0.0,0.0,0.0,0.0,0.0,0.0,0.0,0.0,0.0,0.0,0.0,-3.7681,-3.9376,-4.0844,-4.2132,-4.2732,-4.3078,-4.324,-4.3406,-4.3497,-4.3497,-4.3497,-4.3497,-4.3497,-4.3497,-4.3773,-4.4433,-4.3846,-4.3542,-4.3671,-4.347,-4.2772,-4.1621,-4.2121,-4.181,-4.075,0.0,0.0,-4.007,-4.007,-4.007,-4.007,-4.007,-4.007,-4.007,-4.007,-3.961,-3.8745,-3.7365,-3.6337,-3.5653,-3.5419,-3.531,-3.5295,-1.0333,-1.0733,-1.1439,-1.272,-1.3524,-1.4791,-1.714,-1.8108,-1.8926,-1.9961,-1.8346,-1.6289,-1.4236,-1.1094,-0.8446,-0.6743,-0.5827,0.0,0.0,-0.6325,-0.7277,-0.9417,-0.9807,-1.066,-1.2298,-1.2592,-1.3044,-1.3492,-1.53,-1.7255,-1.9403,-2.4187,-2.7924,-3.0724,-3.2235,-3.2726,-3.2169,-2.8098,-2.4988,-2.266,-2.1063,-2.0913,-2.1838,-2.2494,-2.4316,-2.6512,-2.6844,-2.73,-2.7747,-2.7606,-2.7724,-2.7921,-2.8088,-2.7696,-2.6987,0.0,0.0,0.0,0.0,0.0,0.0,0.0,0.0,0.0,0.0,0.0,0.0,0.0,0.0,-3.4151,-3.5799,0.0,-3.8335,-4.0455,-4.1459,-4.2157,-4.2803,-4.3391,-4.3712,-4.3513,-4.3497,-4.3497,-4.3497,-4.3497,-4.3497,-4.3497,-4.3497,-4.3846,-4.4672,-4.4323,-4.4162,-4.4326,-4.418,-4.3488,-4.2262,-4.2559,-4.208,-4.0903,-4.0903,-4.0607,-4.007,-4.007,-4.007,-4.007,-4.007,-4.007,-4.007,-3.9662,-3.9262,-3.8745,-3.7188,-3.6384,-3.6006,-3.5619,-3.5504,-3.5504,-1.0259,-1.0904,-1.171,-1.2658,-1.3798,-1.5228,-1.7134,-1.8804,-1.9689,-1.9285,-1.8806,-1.7657,-1.5475,-1.302,-1.0739,0.0,0.0,0.0,0.0,-0.6891,-0.7654,-0.8788,-1.0079,-1.1162,-1.1996,-1.2516,-1.2925,-1.3209,-1.5179,-1.7314,-1.9481,-2.4203,-2.829,-3.1756,-3.287,-3.3353,-3.2959,-2.7841,-2.4624,-2.2865,-2.1124,-2.171,-2.3735,-2.4045,-2.5988,-2.8539,-2.8288,-2.8123,-2.7977,-2.7698,-2.8036,-2.8503,-2.8186,-2.8209,-2.8219,-2.7313,-2.6432,0.0,0.0,0.0,0.0,0.0,0.0,0.0,0.0,-3.1273,-3.2138,-3.3868,-3.5465,-3.7215,-3.9388,-4.0089,-4.0979,-4.2978,-4.3231,-4.3245,-4.3553,-4.3836,-4.3912,-4.3612,-4.3548,-4.3497,-4.3497,-4.3497,-4.3497,-4.3497,-4.3497,-4.3846,-4.4672,-4.4709,-4.4782,-4.4947,-4.4782,-4.42,-4.3099,-4.2936,-4.2244,-4.1087,-4.1087,-4.075,-4.007,-4.007,-4.007,-4.007,-4.007,-4.007,-4.007,-3.9368,-3.9139,-3.8962,-3.7424,-3.6843,-3.6737,-3.5846,-3.5504,-3.5504,0.0,-1.092,-1.2133,-1.3078,-1.4554,-1.6046,-1.73,-1.8507,-1.9218,-1.8969,-1.7826,-1.6702,-1.5819,-1.2872,-1.0156,0.0,0.0,0.0,-0.6611,-0.7081,-0.7496,-0.796,-0.9798,-1.0864,-1.0938,-1.2201,-1.3404,-1.4587,-1.5679,-1.7773,-2.0969,-2.4644,-2.8286,-3.1748,-3.2883,-3.3628,-3.3616,-2.8048,-2.4911,-2.3494,-2.1279,-2.1723,-2.3844,-2.5165,-2.7064,-2.914,-2.9279,-2.8801,-2.8094,-2.8247,-2.8345,-2.844,-2.8645,-2.8715,-2.8775,-2.8952,-2.7886,-2.6849,-2.7755,-2.7994,-2.8379,-2.9941,-3.0467,-3.1538,0.0,-3.5534,-3.5729,-3.8112,-3.9314,-4.026,-4.1334,-4.2507,-4.332,-4.329,-4.3924,-4.4307,-4.3998,-4.3986,-4.3986,-4.3955,-4.366,-4.3497,-4.3497,-4.3497,-4.3497,-4.3497,-4.3497,-4.3846,-4.4672,-4.4709,-4.5039,-4.5736,-4.5076,-4.4636,-4.4491,-4.3776,-4.2847,-4.1707,-4.1707,-4.115,-4.007,-4.007,-4.007,-4.007,-4.007,-4.007,-4.007,-4.002,-3.9969,-3.9782,-3.8262,-3.769,-3.7456,-3.6022,-3.5504,-3.5504,0.0,-1.1402,-1.2375,-1.3361,-1.4619,-1.5927,-1.7188,-1.8019,-1.8707,-1.9245,-1.8313,-1.736,-1.6694,-1.356,-1.0981,-0.9694,0.0,0.0,-0.7048,-0.7194,-0.7402,-0.7601,-0.907,-0.9895,-0.9895,-1.0665,-1.1837,-1.3557,-1.4207,-1.6639,-2.0781,-2.451,-2.8427,-3.2501,-3.4053,-3.4573,-3.3928,-2.8605,-2.5146,-2.3107,-2.2197,-2.2751,-2.4476,-2.6532,-2.7766,-2.8414,-2.8602,-2.8522,0.0,0.0,-2.7978,-2.8121,-2.8238,-2.8303,-2.8272,-2.7934,-2.7705,-2.7772,-2.8746,-2.9781,-3.0838,-3.195,-3.3008,-3.4347,-3.6472,-3.7081,-3.7593,-3.9016,-4.0765,-4.2112,-4.2497,-4.3656,-4.4519,-4.4364,-4.4668,-4.4757,-4.4401,-4.4508,-4.4463,-4.4058,-4.4076,-4.3962,-4.3548,-4.3497,-4.3497,-4.3497,-4.3497,-4.3846,-4.4672,-4.4709,-4.5076,-4.5865,-4.5131,-4.4709,-4.4709,-4.3901,-4.3105,-4.2342,-4.2342,-4.1725,-4.0577,-4.0577,-4.0417,-4.007,-4.007,-4.007,-4.007,-4.007,-4.007,-4.002,-3.887,-3.8414,-3.8189,-3.6258,-3.5504,-3.5504,0.0,-1.1618,-1.2528,-1.3522,-1.4637,-1.5785,-1.6995,-1.7637,-1.8349,-1.9353,-1.8608,-1.7563,-1.6485,-1.3872,-1.1865,-1.1132,-0.9213,0.0,0.0,-0.7354,-0.7128,-0.7098,-0.8491,-0.9155,-0.887,-0.9309,-1.0627,-1.2741,-1.3174,-1.5839,-2.0545,-2.4492,-2.8612,-3.2736,-3.4578,-3.4997,-3.4007,-2.9221,-2.5554,-2.3096,-2.3393,-2.3674,-2.4347,-2.6983,-2.7766,-2.7521,-2.8031,-2.7858,0.0,0.0,-2.7383,-2.7537,-2.7561,-2.7769,-2.7937,-2.7642,-2.8149,-2.8926,-2.9375,-3.0973,-3.27,-3.3531,-3.5215,-3.6845,-3.7579,-3.8395,-3.9185,-3.9908,-4.1517,-4.2857,-4.3063,-4.4077,-4.4838,-4.4753,-4.5027,-4.5118,-4.48,-4.4943,-4.49,-4.4373,-4.4501,-4.4392,-4.3855,-4.3712,-4.3597,-4.3532,-4.3497,-4.3754,-4.4342,-4.458,-4.4984,-4.5553,-4.5002,-4.4709,-4.4709,-4.3901,-4.3214,-4.2711,-4.2711,-4.2162,-4.1133,-4.0995,-4.0625,-4.007,-4.007,-4.007,-4.007,-4.007,-4.007,-4.002,-3.9193,-3.8908,-3.869,-3.6829,-3.5958,-3.5782,0.0,0.0,-1.2528,-1.3522,-1.4761,-1.5859,-1.6696,-1.7492,-1.8282,-1.9122,-1.8163,-1.6629,-1.4513,-1.3415,-1.2563,-1.1828,-0.9407,-0.7994,-0.8232,-0.7445,-0.6684,-0.6092,-0.8014,-0.8713,-0.7863,-0.8803,-1.0458,-1.2886,-1.3375,-1.599,-2.0687,-2.4883,-2.8623,-3.1828,-3.3802,-3.4453,-3.3839,-2.9797,-2.6408,-2.3842,-2.4723,-2.417,-2.302,-2.6083,-2.6974,-2.6792,-2.7963,0.0,0.0,-2.6256,-2.6631,-2.6651,-2.6728,-2.7325,-2.818,-2.9142,-2.998,-3.0469,-2.9707,-3.1348,-3.3476,-3.4355,-3.6465,-3.8555,-3.9414,-4.0184,-4.0937,-4.1745,-4.1983,-4.224,-4.2973,-4.3775,-4.4228,-4.3878,-4.4825,-4.5476,-4.5118,-4.5096,-4.5096,-4.5074,-4.4781,-4.458,0.0,-4.4204,-4.3849,-4.3513,-4.3497,-4.3497,-4.3534,-4.4287,-4.4727,-4.4745,-4.4727,-4.4709,-4.4709,-4.3901,-4.3214,-4.2711,-4.2711,-4.2382,-4.175,-4.1178,-4.0625,-4.007,-4.007,-4.007,-4.007,-4.007,-4.007,-4.002,-3.9193,-3.8908,-3.8799,-3.8035,-3.7219,-3.643,0.0,0.0,0.0,-1.4391,-1.4767,-1.5301,-1.6617,-1.7382,-1.8339,-1.9856,-1.9714,0.0,0.0,0.0,0.0,0.0,-1.0914,-0.9424,-0.8132,-0.7886,-0.71,-0.5696,-0.6515,-0.6945,-0.6581,-0.6945,-0.7974,-0.9853,-1.1111,-1.4421,-1.9798,-2.402,-2.7389,-2.9904,-3.3199,-3.3685,-3.1867,-2.9217,-2.7059,-2.5347,-2.4753,-2.4931,-2.557,-2.6701,-2.6858,-2.6531,0.0,0.0,0.0,-2.5659,-2.5746,-2.5746,-2.5823,-2.6061,-2.6646,-2.8182,-2.9277,-3.0269,-3.1644,-3.3524,-3.5449,-3.6894,-3.832,-3.9609,-4.0371,-4.0756,-4.0804,-4.0369,-4.0723,-4.119,-4.1343,-4.2066,-4.2956,-4.398,-4.4475,-4.4914,-4.5361,-4.5438,-4.5342,-4.5137,-4.5201,0.0,0.0,0.0,0.0,-4.3818,-4.3631,-4.3497,-4.3497,-4.3754,-4.4158,-4.469,-4.4176,-4.4158,-4.4709,-4.3901,-4.341,-4.3214,-4.2864,-4.2382,-4.1768,-4.1178,-4.0625,-4.007,-4.007,-4.007,-4.007,-4.007,-4.007,-4.007,-3.9782,-3.9731,-3.961,-3.8816,-3.8076,-3.7279,0.0,0.0,0.0,0.0,0.0,0.0,0.0,0.0,0.0,0.0,0.0,0.0,0.0,0.0,0.0,0.0,0.0,-1.0615,-0.9095,0.0,-0.7194,-0.6106,-0.5806,-0.5712,-0.5788,-0.5778,-0.6602,-0.8358,-0.998,-1.3243,-1.7901,-2.3044,-2.6503,-2.8514,-3.1719,-3.2041,-3.0055,-2.831,-2.6825,-2.5726,-2.5227,-2.5561,-2.6456,-2.6784,-2.6766,0.0,0.0,0.0,-2.5524,-2.537,-2.5303,-2.537,-2.5765,-2.6373,-2.7226,-2.8711,-2.9986,-3.1373,-3.366,-3.5541,-3.7246,-3.8691,-3.9726,-4.0488,-4.0957,-4.0832,-4.0403,-3.9648,-3.9457,-3.9461,-3.9612,-4.0097,-4.1127,-4.3085,-4.3662,-4.4278,-4.5432,-4.5586,-4.5513,-4.5302,-4.5476,-4.5438,-4.4988,0.0,0.0,-4.3998,-4.3693,-4.3497,-4.3497,-4.3754,-4.4176,-4.469,-4.4195,-4.4176,-4.4709,-4.3901,-4.3497,-4.3497,-4.3142,-4.258,-4.181,-4.1402,-4.0797,-4.007,-4.007,-4.007,-4.007,-4.007,-4.007,-4.007,-4.007,-4.007,-4.002,-3.9542,-3.8707,-3.769,0.0,0.0,0.0,0.0,0.0,0.0,0.0,0.0,0.0,0.0,0.0,0.0,0.0,0.0,0.0,0.0,0.0,0.0,-1.1018,0.0,0.0,-0.7269,-0.6063,-0.538,-0.538,-0.5552,-0.6542,-0.8479,-1.0319,-1.2628,-1.5663,-2.2079,-2.5979,-2.7668,-2.9591,-2.978,-2.8622,-2.7254,-2.6052,-2.5214,-2.6103,-2.609,-2.567,-2.6347,0.0,0.0,0.0,0.0,-2.5303,-2.5341,-2.5428,-2.5688,-2.6641,-2.815,-2.9765,-3.0741,-3.2083,-3.3684,-3.5613,-3.7324,-3.8809,-3.9726,-4.0586,-4.1191,-4.1133,-4.0488,-3.9823,-3.9559,-3.8198,-3.7219,-3.7802,-3.7978,-3.8833,-4.1331,-4.2508,-4.3682,-4.5355,-4.5586,-4.5605,-4.5663,-4.5663,-4.5682,-4.572,-4.5417,0.0,-4.4248,0.0,-4.3532,-4.3569,-4.4287,-4.4709,-4.4709,-4.4709,-4.469,-4.4654,-4.3883,-4.3497,-4.3497,-4.3497,-4.2903,-4.181,-4.181,-4.1168,-4.007,-4.007,-4.007,-4.007,-4.007,-4.007,-4.007,-4.007,-4.007,-4.007,-4.007,-3.9172,-3.7748,0.0,0.0,0.0,0.0,0.0,0.0,0.0,0.0,0.0,0.0,0.0,0.0,0.0,0.0,0.0,0.0,0.0,0.0,0.0,0.0,0.0,0.0,0.0,-0.7755,-0.4991,-0.7185,-0.8894,-1.0086,-1.2285,-1.5067,-1.8455,-2.2955,-2.5853,-2.7337,-2.9857,-3.0173,-2.8796,-2.8995,-2.8255,-2.6927,0.0,-2.6842,-2.7095,0.0,0.0,0.0,0.0,-2.59,-2.5409,-2.6063,-2.721,-2.8414,-2.8708,-2.9602,-3.0835,-3.2259,-3.3459,-3.4845,-3.7226,-3.8691,-3.9766,-4.0644,-4.1035,-4.1035,-4.0371,-4.0059,-3.9315,-3.7298,-3.648,-3.5944,-3.5379,-3.6253,-3.7896,-4.0427,-4.2104,-4.3682,-4.5355,-4.5586,-4.5836,-4.649,-4.6567,-4.6797,-4.7394,-4.718,-4.6881,0.0,-4.4936,-4.4141,-4.4735,-4.4718,-4.4709,-4.4709,-4.4709,-4.4415,-4.3809,-4.3589,-4.3497,-4.3497,-4.3497,-4.2903,-4.181,-4.181,-4.1168,-4.007,-4.007,-4.007,-4.007,-4.007,-4.007,-4.007,-4.007,-4.007,-4.007,-4.007,-3.9437,-3.8525,0.0,0.0,0.0,0.0,0.0,0.0,0.0,0.0,0.0,0.0,0.0,0.0,0.0,0.0,0.0,0.0,0.0,0.0,0.0,0.0,0.0,0.0,0.0,-0.8672,-0.654,-0.8317,-0.9677,0.0,0.0,0.0,-1.8661,-2.206,-2.4382,-2.5777,-2.7988,-2.8373,-2.7403,-2.7555,0.0,0.0,0.0,0.0,0.0,0.0,0.0,0.0,-2.6217,-2.6477,-2.7181,-2.8104,-2.9337,-3.0585,-3.103,-3.2051,-3.3357,-3.4661,-3.5689,-3.6777,-3.8613,-3.9785,-4.0586,-4.1074,-4.0918,-4.0391,-3.9531,-3.873,-3.7539,-3.5265,-3.4488,-3.3901,-3.2878,-3.4333,-3.6381,-3.8498,-4.0912,-4.3104,-4.4778,-4.5355,-4.5913,-4.6797,-4.6913,-4.7221,-4.8029,-4.7933,-4.7832,0.0,-4.6118,-4.5283,-4.573,-4.5745,-4.5608,-4.5241,-4.5241,-4.4672,-4.3497,-4.3497,-4.3497,-4.3497,-4.3497,-4.3032,-4.2162,-4.1937,-4.1331,-4.0449,0.0,-4.007,-4.007,-4.007,-4.007,-4.007,-4.007,-4.007,-4.007,-4.007,-3.961,-3.8854,0.0,0.0,0.0,0.0,0.0,0.0,0.0,0.0,0.0,0.0,0.0,0.0,0.0,0.0,0.0,0.0,0.0,0.0,0.0,0.0,0.0,0.0,-1.0157,-0.9407,-0.9238,-0.9761,-1.0227,-1.0606,0.0,0.0,0.0,0.0,0.0,0.0,0.0,0.0,0.0,0.0,0.0,0.0,0.0,0.0,0.0,0.0,0.0,0.0,-2.564,-2.6862,-2.9129,-3.0307,-3.1473,-3.2578,-3.3398,-3.4844,-3.6445,-3.7363,-3.8144,-3.8887,-3.9824,-4.0625,-4.1191,-4.1191,-4.0547,-3.9648,-3.8652,-3.707,-3.5293,-3.3457,-3.2402,-3.1556,-3.0624,-3.2435,-3.4671,-3.6575,-3.9561,-4.2297,-4.4201,-4.5124,-4.5913,-4.6797,-4.699,-4.7375,-4.8202,-4.8375,-4.8452,-4.8452,-4.742,-4.6725,-4.6564,-4.6755,-4.6489,-4.5755,-4.5645,-4.4911,-4.3497,-4.3497,-4.3497,-4.3497,-4.3497,-4.3214,-4.2655,-4.208,-4.149,-4.0856,0.0,0.0,-4.007,-4.007,-4.007,-4.007,-4.007,-4.007,-4.007,-4.007,-3.9662,-3.9032,0.0,0.0,0.0,0.0,0.0,0.0,0.0,0.0,0.0,0.0,-2.3704,-2.362,0.0,0.0,0.0,0.0,0.0,0.0,0.0,0.0,0.0,0.0,-1.3793,-1.3125,-1.1923,-1.3135,-1.3413,-1.2655,-1.5595,0.0,0.0,0.0,0.0,0.0,0.0,0.0,0.0,0.0,0.0,0.0,0.0,0.0,0.0,0.0,0.0,0.0,-2.5861,-2.606,-2.7439,-2.9881,-3.2711,-3.5234,-3.5469,-3.6738,-3.8301,-3.9199,-3.9551,-3.9844,-4.0723,-4.1074,-4.1191,-4.1191,-4.0547,-3.9473,-3.7891,-3.6172,-3.4238,-3.1836,-3.0619,-2.9918,-2.9728,-3.108,-3.348,-3.7255,-3.948,-4.1797,-4.4932,-4.549,-4.5913,-4.6797,-4.749,-4.824,-4.9086,-4.9817,-5.024,0.0,-4.9095,-4.7965,-4.6968,-4.6041,-4.5345,-4.4911,-4.425,-4.3773,-4.3497,-4.3497,-4.3497,-4.3497,-4.3497,-4.3214,-4.2655,-4.208,-4.149,-4.0856,-4.0336,0.0,-4.007,-4.007,-4.007,-4.007,-4.007,-4.007,-4.007,-4.007,-4.002,-3.9782,0.0,0.0,0.0,0.0,0.0,0.0,0.0,-2.1426,-2.3449,-2.4923,-2.56,-2.5835,-2.5561,-2.3992,-2.2476,0.0,0.0,0.0,0.0,0.0,0.0,0.0,0.0,-1.5223,-1.4539,-1.5372,-1.5588,-1.5121,0.0,-1.8904,-2.0319,-2.1919,-2.3642,-2.5356,-2.5803,-2.6247,-2.6601,0.0,0.0,0.0,0.0,0.0,0.0,0.0,0.0,0.0,0.0,-2.6563,-2.7595,-2.9413,-3.2031,-3.4805,-3.623,-3.7559,-3.8769,-3.9648,-3.9902,-4.0098,-4.0957,-4.1191,-4.1191,-4.1191,-4.0195,-3.8769,-3.7012,-3.4941,-3.2676,-3.0078,-2.9197,-2.8584,-2.7632,-2.9898,-3.2562,-3.4553,-3.7336,-4.0279,-4.3265,-4.4036,-4.4951,-4.6701,-4.724,-4.799,-4.926,-4.9779,-5.001,-5.001,-4.9046,-4.8209,-4.771,-4.5948,-4.4863,-4.4709,-4.392,-4.3497,-4.3497,-4.3497,-4.3497,-4.3497,-4.3497,-4.3375,-4.3087,-4.2185,-4.1621,-4.1313,-4.0466,0.0,-4.007,-4.007,-4.007,-4.007,-4.007,-4.007,-4.007,-4.007,-4.007,-4.002,0.0,0.0,0.0,0.0,0.0,0.0,0.0,-2.2608,-2.4779,-2.5844,-2.7218,-2.7768,-2.6907,-2.5206,-2.3672,0.0,0.0,0.0,0.0,0.0,0.0,0.0,0.0,-1.6757,-1.6959,0.0,0.0,-1.7797,-1.867,0.0,0.0,0.0,0.0,0.0,-2.4905,-2.5333,-2.5586,-2.5527,0.0,0.0,0.0,-2.6888,0.0,0.0,0.0,0.0,0.0,-2.7084,-2.7865,-2.882,-3.0507,-3.2637,-3.5137,-3.7031,-3.8457,-3.9141,-3.9609,-4.0059,-4.0742,-4.1055,-4.1191,-4.1191,-3.9746,-3.791,-3.6348,-3.373,-3.1016,-2.8769,-2.8008,-2.7421,-2.6376,-2.8915,-3.1523,-3.2575,-3.5463,-3.8659,-4.1751,-4.2724,-4.4001,-4.6336,-4.6797,-4.7432,-4.874,-4.9029,-4.9125,-4.9125,-4.8241,-4.7693,-4.761,-4.5661,-4.4554,-4.4554,-4.3879,-4.3497,-4.3497,-4.3497,-4.3497,-4.3497,-4.3497,-4.3497,-4.3463,-4.2444,-4.1937,-4.175,-4.072,0.0,0.0,-4.007,-4.007,-4.007,-4.007,-4.007,-4.007,-4.007,-4.007,-4.007,0.0,0.0,0.0,0.0,0.0,0.0,0.0,-2.2886,-2.5081,-2.6995,-2.775,-2.8043,-2.7871,-2.6616,-2.5247,0.0,0.0,0.0,0.0,0.0,0.0,0.0,0.0,0.0,0.0,0.0,0.0,-2.0719,-2.0943,0.0,0.0,0.0,0.0,0.0,0.0,-2.5311,-2.5508,-2.5508,0.0,0.0,0.0,0.0,0.0,0.0,0.0,0.0,0.0,-2.6695,-2.6967,-2.7892,-2.8416,-2.9004,-3.0898,-3.4219,-3.7441,-3.7519,-3.8652,-3.9922,-4.0,-4.0605,-4.1191,-4.1191,-3.9297,-3.7168,-3.6211,-3.2793,-2.9551,-2.8516,-2.7031,-2.6367,-2.7793,-2.8328,-3.006,-3.469,-3.5704,-3.7607,-4.2402,-4.315,-4.3815,-4.5507,-4.6413,-4.6971,-4.7105,-4.7798,-4.8221,-4.8221,-4.7122,-4.6148,-4.5414,-4.4561,-4.4067,-4.4067,-4.3682,-4.3497,-4.3497,-4.3497,-4.3497,-4.3497,-4.3497,-4.3497,-4.3479,-4.2902,-4.2302,-4.175,-4.1133,0.0,0.0,-4.007,-4.007,-4.007,-4.007,-4.007,-4.007,-4.007,-4.007,-4.007,0.0,0.0,0.0,0.0,0.0,0.0,-2.0856,-2.3491,-2.5643,-2.646,-2.7908,-2.8637,-2.8008,-2.7537,-2.6428,-2.4365,0.0,0.0,0.0,0.0,0.0,0.0,0.0,0.0,0.0,0.0,-2.1319,-2.2425,-2.2919,0.0,0.0,0.0,0.0,0.0,0.0,-2.5449,-2.5566,-2.5511,0.0,0.0,0.0,0.0,0.0,0.0,0.0,0.0,0.0,0.0,-2.7527,-2.7401,-2.7743,-2.8237,-2.8476,-3.0449,-3.3066,-3.5137,-3.6973,-3.8555,-3.9609,-4.0547,-4.1074,-4.0547,-3.8848,-3.6934,-3.5547,-3.2305,-2.9355,-2.8476,-2.7324,-2.6699,-2.7383,-2.8358,-2.9877,-3.2432,-3.32,-3.4884,-3.8965,-3.9945,-4.1222,-4.3834,-4.492,-4.5835,-4.6797,-4.7201,-4.7394,-4.7394,-4.6436,0.0,-4.5419,-4.4516,-4.4016,-4.4016,-4.366,-4.3497,-4.3497,-4.3497,-4.3497,-4.3497,-4.3497,-4.3497,-4.3479,-4.2939,-4.2577,-4.2302,-4.1313,0.0,0.0,-4.0254,-4.007,-4.007,-4.007,-4.007,-4.007,-4.007,-4.007,-4.007,0.0,0.0,0.0,0.0,0.0,-2.0336,-2.0909,-2.3759,-2.5894,-2.6004,-2.7771,-2.8737,-2.7984,-2.7785,-2.6939,-2.4966,-2.3568,0.0,0.0,0.0,0.0,0.0,0.0,0.0,0.0,0.0,-2.2997,-2.4131,-2.4653,-2.5521,0.0,0.0,-2.6092,-2.6218,0.0,0.0,0.0,0.0,0.0,0.0,0.0,0.0,0.0,0.0,0.0,0.0,0.0,0.0,0.0,0.0,0.0,-2.7707,-2.6874,-2.7637,-2.9453,-3.2637,-3.498,-3.6855,-3.834,-3.957,-4.0273,-3.9668,-3.8008,-3.6211,-3.498,-3.1855,-2.9101,-2.8769,-2.7793,-2.7168,-2.7676,-2.8769,-2.9961,-3.1094,-3.1927,-3.3607,-3.7,-3.8188,-3.9852,-4.29,-4.3812,-4.4718,-4.6053,-4.639,-4.6528,-4.6528,-4.5951,0.0,-4.5586,-4.4787,-4.429,-4.4175,-4.3726,-4.3497,-4.3497,-4.3497,-4.3497,-4.3497,-4.3497,-4.3497,-4.3497,-4.3105,-4.2864,-4.2655,-4.1621,0.0,0.0,-4.0336,-4.007,-4.007,-4.007,-4.007,-4.007,-4.007,-4.007,-4.007,0.0,0.0,0.0,0.0,0.0,0.0,-2.0951,-2.3557,-2.5615,-2.5966,-2.7236,-2.8061,-2.7915,-2.7245,-2.6592,-2.6034,-2.4636,0.0,0.0,0.0,0.0,0.0,0.0,0.0,0.0,0.0,-2.4208,-2.6072,-2.6072,-2.6872,-2.8347,-2.7546,-2.7046,-2.6783,0.0,0.0,0.0,0.0,0.0,0.0,0.0,0.0,0.0,0.0,0.0,0.0,0.0,0.0,0.0,0.0,0.0,0.0,0.0,-2.6328,-2.7539,-3.0176,-3.2734,-3.4922,-3.5801,-3.7305,-3.8613,-3.8613,-3.6641,-3.4726,-3.4707,-3.1387,-2.8555,-2.9414,-2.8203,-2.7539,-2.9258,-2.959,-3.0176,-3.1894,-3.2851,-3.4567,-3.7905,-3.9145,-4.0608,-4.3108,-4.3411,-4.3704,-4.446,-4.5182,-4.5605,-4.5605,-4.5605,0.0,-4.5586,-4.5263,-4.4943,-4.4606,-4.3868,-4.3497,-4.3497,-4.3497,-4.3497,-4.3497,-4.3497,-4.3497,-4.3497,-4.3479,-4.3214,0.0,0.0,0.0,0.0,-4.0336,-4.007,-4.007,-4.007,-4.007,-4.007,-4.007,-4.007,-4.007,0.0,0.0,0.0,0.0,0.0,0.0,0.0,-2.2678,-2.4223,-2.5068,-2.6376,-2.7168,-2.702,-2.6873,-2.6573,-2.6053,-2.4858,0.0,0.0,0.0,0.0,0.0,0.0,0.0,0.0,0.0,-2.5578,-2.72,-2.8305,-2.9362,-3.0358,-2.9508,-2.8908,-2.846,-2.7308,-2.6655,0.0,0.0,0.0,0.0,0.0,0.0,0.0,0.0,0.0,0.0,0.0,0.0,0.0,0.0,0.0,0.0,0.0,0.0,0.0,-2.7812,-3.0488,-3.3164,-3.4004,-3.5059,-3.5664,-3.4512,-3.3594,-3.2676,-3.1484,-2.9707,-2.8379,-2.8652,-2.8262,-2.8242,-2.9394,-3.0098,-3.1035,-3.2734,-3.3223,-3.4394,-3.7242,-3.8902,-4.053,-4.2426,-4.4054,-4.5099,-4.524,0.0,-4.5586,-4.5586,-4.5586,0.0,-4.5586,-4.5263,-4.4943,-4.4606,-4.4106,-4.3726,-4.3479,-4.3497,-4.3497,-4.3497,-4.3497,-4.3497,-4.3497,-4.3497,-4.341,0.0,0.0,0.0,0.0,-4.0874,-4.0417,-4.007,-4.007,-4.007,-4.007,-4.007,-4.007,-4.007,0.0,0.0,0.0,0.0,0.0,0.0,0.0,-2.2747,-2.3906,-2.4703,-2.5678,-2.6389,-2.658,-2.6431,-2.6261,-2.6111,-2.5117,0.0,0.0,0.0,0.0,0.0,0.0,0.0,0.0,-2.5067,-2.6585,-2.8341,-2.9645,-3.0806,-3.1766,-3.1221,-3.0549,-2.9732,-2.8701,-2.7715,0.0,0.0,0.0,0.0,0.0,0.0,0.0,0.0,0.0,0.0,0.0,0.0,0.0,0.0,0.0,0.0,0.0,0.0,0.0,0.0,-2.8535,-3.0488,-3.1641,-3.2598,-3.3027,-3.1973,-3.1465,-3.0937,-2.9844,-2.8672,-2.7891,-2.8223,-2.8301,-2.8574,-2.9434,-3.0312,-3.123,-3.2285,-3.2988,-3.4199,-3.6484,-3.8594,-4.0621,-4.2557,-4.4342,-4.5338,0.0,-4.5445,-4.5586,-4.5586,-4.5586,0.0,-4.5586,-4.54,-4.514,-4.48,-4.429,-4.3818,-4.3479,-4.3497,-4.3497,-4.3497,-4.3497,-4.3497,-4.3497,-4.3497,-4.3497,0.0,0.0,0.0,0.0,-4.1251,-4.0685,-4.0368,-4.0154,-4.007,-4.007,-4.007,-4.007,-4.007,0.0,0.0,0.0,0.0,0.0,0.0,0.0,-2.3508,-2.4366,-2.476,-2.5207,-2.5762,-2.6423,-2.5898,-2.5688,-2.6179,0.0,0.0,0.0,0.0,0.0,0.0,0.0,0.0,0.0,-2.5719,-2.7244,-2.9511,-3.0318,-3.139,-3.2722,-3.2716,-3.2008,-3.0697,-3.0633,-2.9288,0.0,0.0,0.0,0.0,0.0,0.0,0.0,0.0,0.0,0.0,0.0,0.0,0.0,0.0,0.0,0.0,0.0,0.0,0.0,0.0,0.0,0.0,0.0,-2.9961,-3.0605,-3.0547,-2.9961,-2.9394,-2.9336,-2.8125,0.0,-2.8047,-2.8262,-2.8594,-2.9512,-3.0351,-3.0976,-3.1211,-3.2578,-3.4219,-3.6016,-3.8516,-4.1071,-4.3498,-4.4377,-4.4735,-4.4615,-4.5202,-4.5586,-4.5586,0.0,0.0,-4.5586,-4.5586,-4.5438,-4.5096,-4.4409,-4.3881,-4.3548,-4.3513,-4.3497,-4.3497,-4.3497,-4.3497,-4.3497,-4.3497,-4.3497,0.0,0.0,0.0,0.0,-4.149,-4.0995,-4.0856,-4.0368,-4.0121,-4.007,-4.007,-4.007,-4.007,0.0,0.0,0.0,0.0,0.0,0.0,0.0,0.0,0.0,0.0,-2.5264,-2.5522,-2.5603,-2.5543,-2.5447,0.0,0.0,0.0,0.0,0.0,0.0,0.0,0.0,0.0,0.0,-2.6069,-2.7837,-3.062,-3.1429,-3.2546,-3.389,-3.3903,-3.3095,-3.1636,-3.1028,-2.9999,0.0,0.0,0.0,0.0,0.0,0.0,0.0,0.0,0.0,0.0,-2.6909,-2.6487,0.0,0.0,0.0,0.0,0.0,0.0,0.0,0.0,-2.6016,-2.6094,-2.6504,0.0,-2.7754,-2.709,-2.7266,-2.7441,0.0,-2.6816,-2.7051,-2.7266,-2.7832,-2.8769,-3.0312,-3.0762,-3.1758,-3.4375,-3.5137,-3.623,-3.8633,-4.1191,-4.3474,-4.5293,-4.5572,-4.56,-4.5499,-4.5565,-4.5586,-4.5586,0.0,-4.5586,-4.5586,-4.5586,-4.5438,-4.5096,-4.4682,-4.4261,-4.3881,-4.3612,-4.3497,-4.3497,-4.3497,-4.3497,-4.3497,-4.3497,-4.3497,0.0,0.0,0.0,-4.2655,-4.2382,-4.1707,-4.0903,-4.078,-4.0449,-4.007,-4.007,-4.007,-4.007,0.0,0.0,0.0,0.0,0.0,0.0,0.0,0.0,0.0,0.0,0.0,0.0,0.0,0.0,0.0,0.0,0.0,0.0,0.0,0.0,0.0,0.0,0.0,0.0,-2.5915,-2.6374,-2.8234,-3.1559,-3.1976,-3.3102,-3.4855,-3.4883,-3.4054,-3.2474,-3.0936,-2.994,0.0,0.0,0.0,0.0,0.0,0.0,0.0,0.0,0.0,0.0,-2.6005,-2.5687,0.0,-2.5774,-2.5649,-2.5429,0.0,0.0,0.0,0.0,-2.5682,-2.5703,-2.5703,-2.6621,-2.748,-2.7012,-2.7246,-2.7461,-2.6992,-2.6641,-2.6406,-2.6406,-2.7109,-2.8105,-2.9453,-3.0351,-3.1758,-3.4375,-3.5488,-3.7187,-4.0566,-4.2578,-4.4294,-4.5902,-4.5981,-4.5872,0.0,-4.568,-4.5586,0.0,0.0,-4.5586,-4.5586,-4.5586,-4.5513,-4.5342,-4.4988,-4.4561,-4.4016,-4.3679,-4.3497,-4.3497,-4.3497,-4.3497,-4.3497,-4.3497,-4.3497,0.0,0.0,0.0,-4.305,-4.2788,-4.2302,-4.1664,-4.1133,-4.0733,-4.0449,-4.0204,-4.007,-4.007,0.0,0.0,0.0,0.0,0.0,0.0,0.0,0.0,0.0,0.0,0.0,0.0,0.0,0.0,0.0,0.0,0.0,0.0,0.0,0.0,0.0,0.0,0.0,-2.4942,-2.6557,-2.6636,-2.8403,-3.2014,-3.2315,-3.3429,-3.5316,-3.5643,-3.4805,-3.2927,-3.0769,-2.9684,0.0,0.0,0.0,0.0,0.0,0.0,0.0,0.0,0.0,0.0,0.0,0.0,0.0,-2.6159,-2.5909,-2.5447,-2.6254,0.0,0.0,0.0,0.0,0.0,-2.5859,-2.7266,-2.8594,-2.8203,-2.8301,-2.8457,-2.832,-2.7168,-2.6094,-2.6094,-2.6797,-2.7695,-2.8711,-3.0195,-3.1875,-3.3691,-3.5566,-3.8144,-4.2051,-4.3359,-4.4451,-4.5948,-4.6001,0.0,-4.582,-4.5688,-4.5618,0.0,0.0,-4.5586,-4.5586,-4.5586,-4.5586,-4.5586,-4.5263,-4.4781,-4.4087,-4.3758,-4.3548,-4.3497,-4.3497,-4.3497,-4.3497,-4.3497,-4.3497,-4.3497,0.0,0.0,-4.3444,-4.3014,-4.277,-4.2616,-4.1578,-4.1041,-4.0856,-4.0368,-4.0154,-4.007,0.0,0.0,0.0,0.0,0.0,0.0,0.0,0.0,0.0,0.0,0.0,0.0,0.0,0.0,0.0,0.0,0.0,0.0,0.0,0.0,0.0,0.0,-2.4557,-2.4942,-2.6557,-2.6783,-2.8278,-3.1183,-3.2832,-3.393,-3.4515,-3.6007,-3.5091,-3.214,-3.1148,-3.025,-2.9481,0.0,0.0,0.0,0.0,0.0,0.0,0.0,0.0,0.0,0.0,0.0,0.0,-2.5437,-2.5399,-2.5351,-2.5602,0.0,0.0,0.0,0.0,0.0,-2.6602,-2.8613,-2.9961,-2.7754,-2.8301,-2.9219,-2.8476,-2.8086,-2.7891,-2.7891,-2.8594,-2.9687,-3.1309,-3.2383,-3.3828,-3.6309,-3.8789,-4.1133,-4.3203,-4.4258,-4.5176,-4.6151,0.0,-4.6027,-4.59,-4.5801,0.0,0.0,0.0,-4.5586,-4.5586,-4.5586,-4.5586,-4.5586,-4.5263,-4.4919,-4.4501,-4.4136,-4.3772,-4.3497,-4.3497,-4.3497,-4.3497,-4.3497,-4.3497,0.0,0.0,-4.3497,-4.3479,-4.341,-4.3105,-4.2655,-4.248,-4.181,-4.0903,-4.0827,-4.0497,-4.007,0.0,0.0,0.0,0.0,0.0,0.0,0.0,0.0,0.0,0.0,0.0,0.0,0.0,0.0,0.0,0.0,0.0,0.0,0.0,0.0,0.0,-2.5459,-2.5577,-2.5946,-2.6594,-2.7548,-2.9228,-3.1637,-3.2993,-3.4079,-3.4948,-3.4914,-3.3634,-3.1337,-3.1032,-3.0409,-2.9562,-2.9868,0.0,0.0,0.0,0.0,0.0,0.0,0.0,0.0,0.0,0.0,0.0,0.0,-2.5346,-2.5379,-2.5477,0.0,0.0,0.0,0.0,0.0,-2.6191,-2.7851,-2.9316,-2.8594,-3.0039,-3.1543,-3.1152,-3.0351,-2.9707,-2.9707,-3.0019,-3.0684,-3.1973,-3.3242,-3.5273,-3.8828,-4.0781,-4.2441,-4.416,-4.4746,-4.5312,0.0,0.0,-4.6045,-4.5907,0.0,0.0,0.0,0.0,0.0,-4.5586,-4.5586,-4.5586,-4.5586,-4.5438,-4.5222,-4.4872,-4.4527,-4.4065,-4.3497,-4.3497,-4.3497,-4.3497,-4.3497,-4.3497,-4.3497,0.0,-4.3497,-4.3497,-4.3497,-4.3118,-4.2505,-4.2645,-4.2056,-4.1131,-4.0958,-4.0733,-4.0497,0.0,0.0,0.0,0.0,0.0,0.0,0.0,0.0,0.0,0.0,0.0,0.0,0.0,0.0,0.0,0.0,0.0,0.0,0.0,0.0,-2.6879,-2.5796,-2.6674,-2.7174,-2.7163,-2.8441,-3.0095,-3.2184,-3.3261,-3.4385,-3.5468,-3.41,-3.2499,-3.0778,-3.1046,-3.0585,-2.9648,-3.033,-3.0139,0.0,0.0,0.0,0.0,0.0,0.0,0.0,0.0,0.0,0.0,0.0,0.0,0.0,0.0,0.0,0.0,-2.5629,-2.566,-2.5742,-2.5957,-2.7129,-2.8516,-2.9375,-3.1074,-3.2715,-3.3516,-3.2402,-3.1367,-3.1973,-3.1934,-3.2051,-3.293,-3.4473,-3.6836,-4.0586,-4.2051,-4.3242,-4.4785,-4.5176,-4.5547,-4.6211,-4.6202,-4.6089,-4.5967,0.0,0.0,0.0,0.0,0.0,-4.5586,-4.5586,-4.5586,-4.5586,-4.5586,-4.54,-4.5007,-4.4751,-4.428,-4.3631,-4.3548,-4.3497,-4.3479,-4.3296,-4.3222,-4.3204,-4.302,-4.2928,-4.2928,-4.2928,-4.2561,-4.2051,-4.2232,-4.1938,-4.1353,-4.077,-4.0683,-4.0792,0.0,0.0,0.0,0.0,0.0,0.0,0.0,0.0,0.0,0.0,0.0,0.0,0.0,0.0,0.0,0.0,0.0,0.0,0.0,0.0,-2.7346,-2.6823,-2.7587,-2.8268,-2.8833,-2.9191,-3.0298,-3.2204,-3.407,-3.5165,-3.5488,-3.4618,-3.2923,-3.0658,-3.1539,-3.1065,-2.9648,-3.033,-3.0139,-2.9316,0.0,0.0,0.0,0.0,0.0,0.0,0.0,0.0,0.0,0.0,0.0,0.0,0.0,0.0,-2.5607,-2.5662,-2.5703,-2.5879,-2.6699,-2.7598,-2.8516,-2.9375,-2.9746,-3.0703,-3.3887,-3.3301,-3.2773,-3.5156,-3.498,-3.4687,-3.5566,-3.7148,-3.8945,-4.0898,-4.2558,-4.3926,-4.4863,0.0,-4.623,-4.6289,-4.6289,-4.6225,0.0,0.0,0.0,0.0,0.0,0.0,-4.5586,-4.5586,-4.5586,-4.5586,-4.5586,-4.5283,-4.4631,-4.4606,-4.4392,-4.3955,-4.3646,-4.3497,-4.3461,-4.2727,-4.2396,-4.2341,-4.1607,-4.1277,-4.1277,-4.1277,-4.1258,-4.1203,-4.1225,-4.1285,-4.1265,-3.9962,-4.0088,-4.0816,0.0,0.0,0.0,0.0,0.0,0.0,0.0,0.0,0.0,0.0,0.0,0.0,0.0,0.0,0.0,0.0,0.0,0.0,0.0,0.0,-2.6588,-2.6171,-2.7161,-2.7901,-2.825,-2.9993,-3.1635,-3.3194,-3.411,-3.4592,-3.4661,-3.3351,-3.2275,-3.1391,-3.1258,-3.0907,-3.043,-3.0596,-2.9853,-2.8549,-2.8125,0.0,0.0,0.0,0.0,0.0,0.0,0.0,0.0,0.0,-2.5498,-2.5543,-2.5634,-2.5661,-2.5662,-2.5683,-2.5703,-2.5762,-2.6094,-2.7226,-2.8516,-2.9375,-3.0019,-3.1152,-3.4043,-3.4629,-3.5137,-3.7187,-3.7344,-3.7226,-3.7559,-3.8164,-3.918,-4.0918,-4.2148,-4.3398,-4.4805,-4.5273,-4.5683,-4.623,-4.6308,0.0,0.0,0.0,0.0,0.0,0.0,0.0,-4.4778,-4.4778,-4.4778,-4.4778,-4.5316,-4.5495,-4.5203,-4.4806,-4.4244,-4.3565,-4.3532,-4.3222,-4.2745,-4.2433,-4.2029,-4.1552,-4.124,-4.1111,-4.1111,-4.1111,-4.0818,-4.0359,-4.0359,-4.072,-4.1103,-4.0218,-4.0146,-4.04,0.0,0.0,0.0,0.0,0.0,0.0,0.0,0.0,0.0,0.0,0.0,0.0,0.0,0.0,0.0,0.0,0.0,0.0,0.0,-2.5926,-2.6224,-2.5871,-2.6906,-2.7664,-2.8009,-3.007,-3.1675,-3.2783,-3.3402,-3.3602,-3.3391,-3.2284,-3.1796,-3.1824,-3.1033,-3.0872,-3.1208,-3.0575,-2.9627,-2.8485,-2.788,-2.6885,0.0,0.0,0.0,0.0,0.0,0.0,0.0,0.0,-2.5561,-2.5607,-2.5683,-2.5703,-2.5703,-2.5703,-2.5898,-2.6113,-2.6113,-2.6973,-2.8164,-2.9316,-3.0059,-3.1309,-3.4394,-3.5566,-3.6562,-3.8594,-3.8789,-3.8594,-3.8594,-3.8594,-3.918,0.0,-4.1875,-4.291,-4.4375,-4.459,-4.4805,-4.541,-4.5723,0.0,0.0,0.0,0.0,0.0,0.0,0.0,0.0,-4.3912,-4.3912,-4.3912,-4.4489,-4.4743,-4.4613,-4.4167,-4.3536,-4.2765,-4.286,-4.2566,-4.1919,-4.1662,-4.124,-4.0726,-4.0451,-4.0359,-4.0359,-4.0359,-4.0029,-3.9515,-3.9515,-4.001,-4.0657,-3.9977,-3.9914,-4.0128,0.0,0.0,0.0,0.0,0.0,0.0,0.0,0.0,0.0,0.0,0.0,0.0,0.0,0.0,0.0,0.0,0.0,0.0,-2.5398,-2.6149,-2.6469,-2.6212,-2.7012,-2.778,-2.8445,-2.9242,-2.9964,-3.0609,-3.1931,-3.2269,-3.1698,-3.1698,-3.1722,-3.1738,-3.095,-3.1125,-3.1861,-3.0192,-2.9484,-2.9325,-2.7513,-2.6801,0.0,0.0,0.0,0.0,0.0,0.0,0.0,0.0,-2.5601,-2.5607,-2.5683,-2.5703,-2.5703,-2.5703,-2.6328,-2.6992,-2.6992,-2.7012,-2.7441,-2.918,-2.9629,-3.0762,-3.5039,-3.6016,-3.6758,-3.9375,-3.9219,-3.8613,-3.8613,-3.8613,0.0,-4.0918,-4.1855,-4.2695,-4.3574,-4.3691,-4.3691,-4.3691,0.0,0.0,0.0,0.0,0.0,0.0,0.0,0.0,0.0,-4.3085,-4.3085,-4.3085,-4.3104,-4.2907,-4.2522,-4.2502,-4.2196,-4.1585,-4.1585,-4.1396,-4.1075,-4.0267,-3.99,-3.9827,-3.9056,-3.8707,-3.8707,-3.8707,-3.8707,-3.8707,-3.8707,-3.9184,-3.979,-3.9001,-3.9334,-4.0077,0.0,0.0,0.0,0.0,0.0,0.0,0.0,0.0,0.0,0.0,0.0,0.0,0.0,0.0,0.0,0.0,0.0,0.0,-2.5406,-2.5571,-2.5597,-2.5361,-2.5742,-2.5869,-2.5693,-2.634,-2.8129,-3.1097,-3.0868,-3.1087,-3.1698,-3.1083,-3.0816,-3.0905,-3.1288,-3.0652,-2.933,-2.9445,-2.8789,-2.761,-2.7092,-2.6459,0.0,0.0,0.0,0.0,0.0,0.0,0.0,0.0,0.0,0.0,-2.5683,-2.6113,-2.6484,-2.5879,-2.6328,-2.6875,-2.625,-2.7422,-2.8945,-2.9473,-3.1875,-3.4434,-3.5703,-3.6465,-3.7656,-4.0273,-4.0117,-3.9512,-3.9512,-3.9512,0.0,-4.0195,-4.0996,-4.1836,-4.2676,-4.2793,-4.3008,-4.3633,0.0,0.0,0.0,0.0,0.0,0.0,0.0,0.0,0.0,-4.22,-4.22,-4.22,-4.2777,-4.3032,-4.2925,-4.2641,-4.2025,-4.1099,-4.0811,-4.0526,-4.0249,-4.001,-3.9588,-3.9038,-3.8799,-3.8707,-3.8707,-3.8707,-3.8707,-3.8707,-3.8707,-3.8854,-3.9038,-3.8799,-3.8889,-3.913,0.0,0.0,0.0,0.0,0.0,0.0,0.0,0.0,0.0,0.0,0.0,0.0,0.0,0.0,0.0,0.0,0.0,0.0,0.0,0.0,-2.5253,-2.5111,-2.5163,-2.5108,-2.4979,-2.5576,-2.6934,-2.9096,-2.895,-2.9336,-3.0198,-2.9987,-3.0089,-3.0482,-3.1042,-3.0489,-2.9145,-2.9026,-2.8198,-2.6906,-2.6555,-2.6078,-2.559,0.0,0.0,0.0,0.0,0.0,0.0,0.0,0.0,0.0,-2.5703,-2.6055,-2.6445,-2.6269,-2.6836,-2.748,-2.7305,-2.8652,-3.0273,-3.0937,-3.3301,-3.5859,-3.7226,-3.7969,-3.8887,-4.0801,-4.0508,-4.0019,-4.0351,-4.0137,0.0,-4.0351,-4.0859,-4.1367,-4.1855,-4.1914,-4.2129,0.0,0.0,0.0,0.0,0.0,0.0,0.0,0.0,0.0,0.0,-4.1324,-4.1277,-4.1277,-4.1797,-4.2066,-4.2066,-4.1834,-4.1322,-4.0577,-4.033,-4.0005,-3.9575,-3.9479,-3.9166,-3.8707,-3.8707,-3.8707,-3.8707,-3.8707,-3.8707,-3.8707,-3.8707,-3.8707,-3.8707,-3.8707,-3.8707,-3.8731,0.0,0.0,0.0,0.0,0.0,0.0,0.0,0.0,0.0,0.0,0.0,0.0,0.0,0.0,0.0,0.0,0.0,0.0,0.0,0.0,-2.5303,-2.5303,-2.5164,-2.5329,-2.58,-2.6257,-2.6239,-2.5689,-2.6622,-2.7277,-2.7742,-2.8656,-2.9456,-3.0167,-3.0385,-3.0405,-3.0153,-2.8688,-2.7602,-2.6797,-2.6016,-2.5703,-2.5683,-2.5634,0.0,0.0,0.0,0.0,0.0,0.0,0.0,0.0,-2.5703,-2.5742,-2.5957,-2.668,-2.7559,-2.8476,-2.9277,-3.0176,-3.1309,-3.2988,-3.418,-3.5781,-3.9043,-3.9785,-4.0059,-4.0996,-4.0566,-4.0254,-4.1055,-4.0547,-4.0273,-4.1074,-4.1191,-4.1191,-4.1191,-4.1191,-4.1191,0.0,0.0,0.0,0.0,0.0,0.0,0.0,0.0,0.0,0.0,-4.0574,-4.0489,-4.0489,-4.0489,-4.0489,-4.0489,-4.0489,-4.0372,0.0,-4.0101,-3.9775,-3.9152,-3.8855,-3.8719,-3.8707,-3.8707,-3.8707,-3.8707,-3.8707,-3.8707,-3.8707,-3.8707,-3.8707,-3.8707,-3.8707,-3.8707,-3.8707,0.0,0.0,0.0,0.0,0.0,0.0,0.0,0.0,0.0,0.0,0.0,0.0,0.0,0.0,0.0,0.0,0.0,0.0,0.0,0.0,-2.5303,-2.5303,-2.5602,-2.6051,-2.6637,-2.6001,-2.5667,-2.5689,-2.5927,-2.6153,-2.6446,-2.8095,-2.8626,-2.8262,-2.9763,-2.9342,-2.7528,-2.7223,-2.6646,-2.5886,-2.5741,-2.5703,-2.5703,-2.5683,-2.5683,0.0,0.0,0.0,0.0,0.0,0.0,0.0,-2.5703,-2.6172,-2.6621,-2.6133,-2.707,-2.834,-2.8535,-2.9726,-3.1309,-3.2988,-3.5078,-3.7129,-3.8555,-3.8887,-3.9316,-4.0879,-4.1055,-4.0976,-4.1172,-4.1055,-4.0976,-4.1172,-4.1191,-4.1191,-4.1191,-4.1191,0.0,0.0,0.0,0.0,0.0,0.0,0.0,0.0,0.0,0.0,-4.0703,-4.0574,-4.0489,-4.0489,-4.0489,-4.0489,-4.0489,-4.0489,-4.0372,0.0,-4.0101,-3.988,-3.9462,-3.9152,-3.8894,-3.8707,-3.8707,-3.8707,-3.8707,-3.8707,-3.8707,-3.8707,-3.8707,-3.8707,-3.8707,-3.8707,-3.8707,-3.8707,0.0,0.0,0.0,0.0,0.0,0.0,0.0,0.0,0.0,0.0,0.0,0.0,0.0,0.0,0.0,0.0,0.0,0.0,0.0,0.0,-2.5233,-2.5068,-2.5582,-2.5777,-2.5597,-2.5481,-2.526,-2.4986,-2.4986,-2.5333,-2.6035,-2.7537,-2.821,-2.8215,-2.9301,-2.8858,-2.7295,-2.6941,-2.6334,-2.5603,-2.5662,-2.5703,-2.5703,-2.5703,-2.5703,-2.5703,-2.5703,0.0,0.0,0.0,0.0,0.0,0.0,0.0,-2.6367,-2.6328,-2.6973,-2.7851,-2.8691,-3.0195,-3.2129,-3.4648,-3.6289,-3.7539,-3.8398,-3.8594,-3.8867,-3.9766,-4.0293,-4.0703,-4.1113,-4.1191,-4.1191,-4.1191,-4.1191,-4.1191,-4.1191,-4.1191,0.0,0.0,0.0,0.0,0.0,0.0,0.0,0.0,0.0,-4.0843,-4.0752,-4.0648,-4.0574,-4.0504,-4.0489,-4.0489,-4.0489,-4.0489,-4.0441,-4.0285,-4.0285,-4.0139,-3.9819,-3.9314,-3.8961,-3.8707,-3.8707,-3.8707,-3.8707,-3.8707,-3.8707,-3.8707,-3.8707,-3.8707,-3.8707,-3.8707,-3.8707,-3.8707,0.0,0.0,0.0,0.0,0.0,0.0,0.0,0.0,0.0,0.0,0.0,0.0,0.0,0.0,0.0,0.0,0.0,0.0,0.0,-2.533,-2.5217,-2.505,-2.5485,-2.5411,-2.4689,-2.5165,-2.5072,-2.441,-2.4263,-2.5005,-2.6531,-2.7224,-2.7984,-2.8751,-2.8847,-2.855,-2.7929,-2.6961,-2.6184,-2.5595,-2.5659,-2.5683,-2.5703,-2.5703,-2.5703,-2.5703,-2.5703,-2.5703,-2.5703,-2.5703,0.0,0.0,0.0,0.0,-2.584,-2.6562,-2.6875,-2.7344,-2.8945,-3.0859,-3.3125,-3.6113,-3.6953,-3.7266,-3.7988,-3.8144,-3.8184,-3.834,-3.9062,-3.9902,-4.0625,-4.0879,-4.0976,-4.0976,-4.1094,-4.1191,-4.1191,-4.1191,0.0,0.0,0.0,0.0,0.0,0.0,0.0,0.0,0.0,-4.0955,-4.085,-4.0752,-4.0662,-4.053,-4.0519,-4.0489,-4.0489,-4.0489,-4.0489,-4.0489,-4.0457,-4.0302,-4.0081,-3.9481,-3.9027,-3.8762,-3.8719,-3.8707,-3.8707,-3.8707,-3.8707,-3.8707,-3.8707,-3.8707,-3.8707,-3.8707,-3.8707,-3.8707,0.0,0.0,0.0,0.0,0.0,0.0,0.0,0.0,0.0,0.0,-2.5703,-2.5703,-2.5703,-2.5658,0.0,0.0,0.0,0.0,-2.5322,0.0,0.0,-2.5983,-2.597,-2.6141,-2.6525,-2.5796,-2.5348,-2.5256,-2.4538,-2.5717,-2.8574,-2.773,-2.7774,-2.8531,-2.8204,-2.8016,-2.7806,-2.6254,-2.5556,-2.5526,-2.5595,-2.5658,-2.5703,-2.5703,-2.5703,-2.5703,-2.5703,-2.5703,-2.5703,-2.5703,-2.5703,0.0,0.0,0.0,-2.5723,-2.584,-2.6406,-2.7226,-2.8203,-3.0801,-3.3535,-3.4746,-3.5605,-3.6191,-3.6328,-3.6348,-3.6562,-3.7324,-3.8164,-3.8809,-3.8926,-3.9551,-4.0078,-4.0078,-4.0703,-4.1191,-4.1191,-4.1191,0.0,0.0,0.0,0.0,0.0,0.0,0.0,0.0,-4.108,-4.0992,-4.0964,-4.08,-4.0692,-4.0667,-4.0559,-4.0489,-4.0489,-4.0489,-4.0489,-4.0489,-4.025,-4.0139,-4.0081,-3.9709,-3.9358,-3.9036,-3.8803,-3.8707,-3.8707,-3.8707,-3.8707,-3.8707,-3.8707,-3.8707,-3.8707,-3.8707,-3.8707,-3.8707,0.0,0.0,0.0,0.0,0.0,0.0,0.0,0.0,0.0,0.0,0.0,-2.5683,-2.5658,-2.5629,0.0,0.0,0.0,0.0,-2.5293,-2.5184,0.0,0.0,-2.5242,-2.5237,-2.5393,-2.4946,-2.4722,-2.4722,-2.4373,-2.5621,-2.8319,-2.8425,-2.9457,-3.1166,-2.9703,-2.8849,-2.842,-2.6307,-2.5415,-2.544,-2.5558,-2.6195,-2.7005,-2.6054,-2.6309,-2.7031,-2.6055,-2.5703,-2.5703,-2.5703,-2.5703,-2.5703,-2.5703,0.0,0.0,0.0,-2.5977,-2.668,-2.8535,-3.0488,-3.2422,-3.4258,-3.498,-3.5391,-3.5898,-3.5996,-3.6113,-3.6484,-3.6875,-3.7441,-3.8418,-3.8906,-3.9336,-3.9824,-4.0215,-4.0644,-4.1133,0.0,0.0,0.0,0.0,0.0,0.0,0.0,0.0,0.0,-4.068,-4.0552,-4.0976,-4.0922,-4.0818,-4.0703,-4.063,-4.0588,-4.0504,-4.0489,-4.0489,-4.0489,-4.0372,-4.0251,-4.0081,-3.9754,-3.9414,-3.9099,-3.899,-3.8844,-3.8707,-3.8707,-3.8707,-3.8707,-3.8707,-3.8707,-3.8707,-3.8707,-3.8707,-3.8707,0.0,0.0,0.0,0.0,0.0,0.0,0.0,0.0,0.0,0.0,0.0,0.0,-2.5605,0.0,0.0,0.0,0.0,0.0,-2.5293,0.0,0.0,0.0,0.0,-2.4478,-2.4284,-2.4228,-2.419,-2.419,-2.419,-2.564,-2.8429,-2.9222,-3.115,-3.3836,-3.1574,-3.0018,-2.8978,-2.691,-2.6052,-2.6059,-2.6197,-2.7022,-2.8106,-2.7323,-2.7695,-2.8437,-2.6914,-2.6211,-2.5996,-2.5762,-2.5703,-2.5664,-2.5449,-2.5371,0.0,0.0,0.0,-2.584,-2.8027,-2.9258,-3.0527,-3.3086,-3.3906,-3.4355,-3.543,-3.5664,-3.5723,-3.5957,-3.5996,-3.6406,-3.7695,-3.8125,-3.8476,-3.9121,-3.9434,-3.9805,-4.0449,0.0,0.0,0.0,0.0,0.0,0.0,0.0,0.0,0.0,-3.9941,-3.99,-4.0681,-4.0476,-4.0357,-4.0421,-4.0173,-4.0095,-4.0196,-4.0392,-4.0489,-4.0489,-4.0441,-4.0339,-4.0195,-3.9778,-3.9462,-3.9212,-3.9063,-3.8865,-3.8707,-3.8707,-3.8707,-3.8707,-3.8707,-3.8707,-3.8707,-3.8707,-3.8707,-3.8707,0.0,0.0,0.0,0.0,0.0,0.0,0.0,0.0,0.0,0.0,0.0,0.0,-2.5605,-2.5547,-2.5488,-2.542,0.0,0.0,0.0,0.0,0.0,0.0,0.0,0.0,-2.4495,-2.4303,-2.419,-2.419,-2.419,-2.6227,-3.0081,-3.0142,-3.2046,-3.531,-3.328,-3.114,-2.9025,-2.8151,-2.7817,-2.7865,-2.7949,-2.8053,-2.8381,-3.0018,-3.0176,-2.9414,-2.8496,-2.7637,-2.6816,-2.5977,-2.5703,-2.5566,-2.4727,-2.4473,-2.4473,0.0,0.0,0.0,-2.5644,-2.6543,-2.7832,-3.0449,-3.1719,-3.2754,-3.4394,-3.4766,-3.5,-3.582,-3.5996,-3.6035,-3.6113,-3.6816,-3.7383,-3.7422,-3.8125,-3.8672,-3.873,0.0,0.0,0.0,0.0,0.0,0.0,0.0,0.0,0.0,-3.8691,-3.9043,-3.9902,-3.9044,-3.8878,-3.9622,-3.8724,-3.8607,-3.9354,-4.0104,-4.0489,-4.0489,-4.0232,-4.0251,-4.0457,-3.9863,-3.9599,-3.9552,-3.897,-3.8719,-3.8707,-3.8707,-3.8707,-3.8707,-3.8707,-3.8707,-3.8707,-3.8707,-3.8707,-3.8707,0.0,0.0,0.0,0.0,0.0,0.0,0.0,0.0,0.0,0.0,0.0,0.0,0.0,-2.5459,-2.5401,-2.5329,-2.5313,0.0,0.0,0.0,0.0,0.0,0.0,0.0,0.0,-2.4247,-2.419,-2.419,-2.419,-2.5474,-2.7897,-2.8411,-2.9414,-3.077,-3.1205,-3.1075,-3.0327,-2.7451,-2.6564,-2.7171,-2.7828,-2.8777,-2.9815,-2.9996,-3.0898,-3.1777,-2.9824,-2.8574,-2.7793,-2.7461,-2.6621,-2.5547,-2.4668,-2.4394,-2.4297,-2.373,-2.3965,-2.4473,-2.4785,-2.5918,-2.7363,-2.8867,-3.0312,-3.168,-3.2832,-3.3926,-3.4785,-3.5098,-3.5605,-3.5996,-3.5996,-3.6269,-3.6641,-3.7207,-3.7559,-3.7969,-3.8516,0.0,0.0,0.0,0.0,0.0,0.0,0.0,0.0,0.0,0.0,-3.8144,-3.9023,-3.8728,-3.8615,-3.8819,-3.8439,-3.8304,-3.845,-3.8738,-3.8892,-3.8892,-3.8796,-3.8692,-3.8567,-3.8366,-3.8061,-3.7723,-3.7503,-3.7608,-3.7918,-3.7918,-3.7918,-3.7973,-3.8505,-3.8707,-3.8707,-3.8707,-3.8707,-3.8707,0.0,0.0,0.0,0.0,0.0,0.0,0.0,0.0,0.0,-2.5567,0.0,0.0,0.0,0.0,-2.5368,-2.5322,-2.5303,-2.5303,-2.5303,0.0,0.0,0.0,0.0,0.0,0.0,-2.419,-2.419,-2.419,-2.419,-2.5016,-2.6612,-2.7145,-2.7745,-2.8431,-2.9174,-2.9847,-3.0304,-2.7905,-2.7086,-2.7556,-2.8851,-2.9913,-3.0784,-3.1478,-3.2266,-3.2812,-3.1387,-3.0137,-2.9121,-2.8848,-2.7773,-2.6367,-2.5195,-2.4453,-2.3769,-2.2598,-2.3086,-2.3926,-2.3633,-2.4629,-2.6074,-2.7519,-2.8516,-2.9609,-3.1367,-3.2637,-3.3516,-3.3809,-3.4531,-3.5137,-3.5137,-3.5137,-3.5508,-3.668,-3.6855,-3.707,-3.7656,0.0,0.0,0.0,0.0,0.0,0.0,0.0,0.0,0.0,0.0,0.0,-3.8125,-3.7891,-3.7672,-3.7558,-3.7741,-3.7763,-3.7642,-3.7882,-3.8007,-3.8007,-3.8007,-3.7874,-3.767,-3.7544,-3.7316,-3.6948,-3.6587,-3.6686,-3.7092,-3.7092,-3.7092,-3.7165,-3.7973,-3.8138,-3.7955,-3.8505,-3.8524,-3.834,0.0,0.0,0.0,0.0,0.0,0.0,0.0,0.0,-2.5489,-2.5508,0.0,0.0,0.0,0.0,0.0,-2.5313,-2.5303,-2.5303,-2.5284,-2.5099,0.0,0.0,0.0,0.0,-2.419,-2.419,-2.419,-2.419,-2.419,-2.4997,-2.6539,-2.6539,-2.7383,-2.8833,-2.7468,-2.7558,-2.876,-2.9522,-2.9557,-2.925,-3.1066,-3.1382,-3.1145,-3.4583,-3.4394,-3.2402,-3.3164,-3.2383,-3.084,-3.0,-2.9082,-2.7988,-2.6211,-2.4531,-2.2871,-2.1172,-2.1894,-2.3047,0.0,0.0,0.0,-2.6309,-2.6328,-2.6621,-3.0019,-3.082,-3.1113,-3.1973,-3.2793,-3.3379,-3.3398,-3.3398,-3.3945,-3.5644,-3.5937,-3.5976,-3.5996,0.0,0.0,0.0,0.0,0.0,0.0,0.0,0.0,0.0,-3.5996,-3.6367,-3.7226,-3.6465,-3.5973,-3.5903,-3.6534,-3.6869,-3.6869,-3.7565,-3.793,-3.793,-3.793,-3.793,-3.793,-3.7594,-3.7432,-3.7356,-3.6326,-3.5992,-3.6258,-3.6277,-3.6248,-3.634,-3.7129,-3.6982,-3.6486,-3.8046,-3.8138,-3.7606,0.0,0.0,0.0,0.0,0.0,-2.5493,-2.5493,-2.5493,-2.5473,0.0,0.0,0.0,-2.5339,-2.5321,-2.5322,-2.5313,-2.5303,-2.5253,-2.5088,-2.4943,-2.4771,-2.4591,-2.4393,-2.4266,-2.419,-2.419,-2.419,-2.419,-2.419,-2.4428,-2.4869,-2.4869,-2.5401,-2.6395,-2.6135,-2.6311,-2.6752,-2.6491,-2.7438,-2.9105,-2.9071,-3.0464,-3.2561,-3.3002,-3.3923,-3.4902,-3.4492,-3.3633,-3.2676,-3.2422,-3.0547,-2.7891,-2.5508,-2.4004,-2.3047,-2.2617,-2.3223,-2.3887,-2.3008,0.0,0.0,0.0,0.0,0.0,0.0,-2.9043,-3.0215,-3.1074,-3.1934,-3.2715,-3.3281,-3.3398,-3.3555,-3.4043,-3.4648,-3.5273,-3.5918,-3.6211,0.0,0.0,0.0,0.0,0.0,0.0,0.0,0.0,-3.5996,-3.6113,-3.6348,-3.6133,-3.5973,-3.5903,-3.6085,-3.6105,-3.5959,-3.6168,-3.624,-3.6199,-3.6199,-3.6199,-3.6199,-3.6089,-3.5943,-3.5736,-3.5454,-3.5126,-3.4835,-3.5447,-3.5568,-3.5459,-3.6303,-3.6486,-3.634,-3.6798,-3.7184,-3.7441,0.0,0.0,0.0,0.0,-2.5933,-2.6086,-2.6454,-2.6183,-2.5929,0.0,0.0,0.0,-2.5293,-2.561,-2.5687,-2.5322,-2.5303,-2.5253,-2.5122,-2.4923,-2.4746,-2.4623,-2.4339,-2.419,-2.419,-2.419,-2.419,-2.419,-2.419,-2.419,-2.419,-2.419,-2.4263,-2.4411,-2.4579,-2.4781,-2.494,-2.462,-2.5888,-2.8161,-2.9165,-3.0613,-3.2263,-3.3298,-3.4191,-3.4941,-3.5156,-3.4687,-3.3945,-3.3945,-3.168,-2.8398,-2.5762,-2.4336,-2.3574,-2.3242,-2.375,-2.4219,-2.3379,-2.4121,-2.5117,-2.498,0.0,0.0,-2.6836,-2.7793,-2.8652,0.0,-2.9961,-3.0723,-3.1191,-3.1562,-3.1934,-3.2305,-3.3086,-3.4082,-3.5293,-3.5469,0.0,0.0,0.0,0.0,0.0,-3.5996,-3.5996,-3.5996,-3.5996,-3.5996,-3.5996,-3.5996,-3.5975,-3.5945,-3.5913,-3.5831,-3.5741,-3.564,-3.5588,-3.5534,-3.5515,-3.5493,-3.5493,-3.5493,-3.5398,-3.5273,-3.5273,-3.4997,-3.4612,-3.4989,-3.4909,-3.4596,-3.544,-3.555,-3.533,-3.6046,-3.6376,-3.6431,0.0,0.0,-2.5572,-2.6447,-2.6601,-2.689,-2.7775,-2.7159,-2.664,0.0,-2.6082,-2.5591,-2.5591,-2.6197,-2.6294,-2.5514,-2.536,-2.5274,-2.5243,-2.4981,-2.4775,-2.4731,-2.4393,-2.419,-2.419,-2.419,-2.419,-2.419,-2.419,-2.419,-2.419,-2.419,-2.3768,-2.3015,-2.3152,-2.3322,-2.351,-2.3719,-2.4881,-2.6881,-3.0066,-3.1204,-3.1318,-3.4417,-3.4808,-3.3886,-3.5449,-3.5508,-3.4805,-3.4629,-3.2539,-2.9551,-2.6836,-2.5527,-2.4766,-2.3691,-2.4004,-2.4512,-2.3691,-2.4004,-2.4727,-2.5508,-2.5195,0.0,-2.6523,-2.6934,-2.6992,0.0,-2.7617,-2.8184,-2.8281,-2.8926,-2.9707,-3.0488,-3.1348,-3.2539,-3.4316,-3.4648,0.0,0.0,0.0,0.0,-3.5996,-3.5996,-3.5996,-3.5996,-3.5918,-3.5898,-3.5996,-3.5918,-3.5898,-3.5996,-3.5945,-3.5907,-3.5903,-3.5714,-3.5631,-3.5611,-3.5534,-3.5515,-3.5515,-3.5507,-3.5493,-3.5493,-3.5493,-3.5354,-3.5088,-3.4832,-3.4375,-3.3915,-3.4596,-3.4431,-3.3972,-3.5459,-3.5587,-3.5082,0.0,-2.5303,-2.5572,-2.6447,-2.6601,-2.689,-2.7775,-2.7159,-2.6851,-2.7544,-2.7505,-2.739,-2.739,-2.6928,-2.6524,-2.637,-2.5687,-2.5201,-2.4929,-2.4847,-2.4654,-2.4339,-2.4247,-2.419,-2.419,-2.419,-2.419,-2.419,-2.419,-2.419,-2.419,-2.419,-2.3768,-2.3015,-2.3205,-2.3352,-2.351,-2.3724,-2.4884,-2.6717,-2.8105,-3.025,-3.271,-3.3453,-3.4437,-3.5469,-3.5858,-3.5898,-3.5527,-3.4121,-3.3203,-3.209,-2.8828,-2.8164,-2.8144,-2.5859,-2.5801,-2.6309,-2.5449,-2.5332,-2.5488,-2.5664,-2.6094,0.0,-2.6035,-2.6504,-2.6992,0.0,-2.7148,-2.7461,-2.8164,-2.8437,-2.8613,-2.8789,-2.9531,-3.0937,-3.332,-3.4258,-3.4766,0.0,0.0,0.0,-3.5996,-3.5996,-3.5996,-3.5996,-3.5351,-3.5254,-3.5957,-3.5332,-3.5273,-3.5976,-3.5995,-3.595,-3.5903,-3.586,-3.5786,-3.5675,-3.5611,-3.5588,-3.5577,-3.5522,-3.5493,-3.5493,-3.5493,-3.5354,-3.5105,-3.5034,-3.4675,-3.4117,-3.406,-3.3935,-3.3844,-3.4174,-3.4596,-3.4917,-2.5264,-2.5303,-2.5707,-2.7024,-2.7255,-2.7678,-2.8948,-2.8409,-2.8005,-2.8429,-2.8486,-2.8179,-2.7332,-2.7255,-2.6909,-2.6024,-2.5553,-2.5182,-2.4917,-2.4828,-2.467,-2.4357,-2.4247,-2.419,-2.419,-2.419,-2.419,-2.419,-2.419,-2.3988,-2.3602,-2.3602,-2.3216,-2.2506,-2.2712,-2.3121,-2.3657,-2.3845,-2.4725,-2.614,-2.8275,-3.0471,-3.2598,-3.391,-3.5022,-3.5903,-3.5864,-3.5896,-3.5638,-3.3515,-3.2793,0.0,-2.9766,-2.8945,-2.8691,0.0,-2.6992,-2.6816,-2.5937,-2.5703,-2.5801,-2.623,-2.6348,0.0,0.0,-2.6348,-2.6348,-2.6348,-2.6348,-2.6484,-2.6914,-2.7363,-2.7656,-2.7656,-2.8379,-2.9394,-3.0684,-3.2363,-3.3594,0.0,0.0,0.0,-3.4707,-3.4707,-3.4707,-3.4707,-3.4297,-3.4434,-3.5312,-3.4531,-3.4453,-3.5312,-3.4922,-3.4687,-3.4658,-3.4622,-3.4577,-3.4511,-3.4367,-3.4536,-3.4951,-3.4892,-3.5084,-3.5493,-3.5493,-3.5432,-3.5289,-3.5174,-3.4925,-3.4615,-3.4171,-3.3928,-3.3807,-3.3807,-3.4064,-3.4357,-2.516,-2.5214,-2.5734,-2.7319,-2.7629,-2.8159,-2.9698,-2.9179,-2.8679,-2.8852,-2.914,-2.889,-2.7717,-2.7909,-2.7698,-2.664,-2.6051,-2.565,-2.5469,-2.5149,-2.4807,-2.4462,-2.4284,-2.419,-2.419,-2.419,-2.419,-2.419,-2.4043,-2.3639,-2.2997,-2.2997,-2.2642,-2.2006,-2.2361,-2.3057,-2.4052,-2.4043,-2.4908,-2.6514,-2.9283,-3.0662,-3.1341,-3.4081,-3.5212,-3.5383,-3.5626,-3.5797,-3.5575,-3.3393,-3.2655,-3.2323,-3.0449,-2.9453,0.0,0.0,-2.793,-2.7305,-2.6445,-2.6191,-2.6328,-2.6875,0.0,-2.6309,0.0,0.0,0.0,0.0,0.0,0.0,0.0,0.0,0.0,0.0,0.0,0.0,0.0,-3.0019,0.0,0.0,0.0,0.0,0.0,-3.3164,-3.3223,-3.3398,-3.3105,-3.3379,-3.4394,-3.3633,-3.3555,-3.4414,-3.3769,-3.3398,-3.3398,-3.3348,-3.3314,-3.3314,-3.3135,-3.3518,-3.4342,-3.4253,-3.4687,-3.5493,-3.5493,-3.5493,-3.5493,-3.5273,-3.5157,-3.5034,-3.4427,-3.4068,-3.3876,-3.3815,-3.3807,-3.3807,-2.4832,-2.4956,-2.534,-2.6314,-2.663,-2.7063,-2.8044,-2.7448,-2.7159,-2.7928,-2.9333,-3.0467,-3.1064,-2.9833,-2.9506,-3.0871,-2.8702,-2.7195,-2.7051,-2.612,-2.5207,-2.4265,-2.4209,-2.419,-2.419,-2.419,-2.419,-2.419,-2.3492,-2.3107,-2.2997,-2.2997,-2.2642,-2.2044,-2.2828,-2.3851,-2.4893,-2.4159,-2.614,-2.984,-3.0244,-2.9575,0.0,-3.2106,-3.3401,-3.363,-3.5157,-3.5797,-3.5747,0.0,-3.4332,-3.391,0.0,-3.1128,-3.1155,-2.8944,0.0,0.0,0.0,0.0,0.0,0.0,-2.7519,0.0,0.0,0.0,-2.6621,-2.5859,0.0,0.0,0.0,0.0,0.0,0.0,0.0,0.0,-2.7148,-2.8066,-2.9062,-2.9922,0.0,0.0,0.0,-3.2344,-3.2637,-3.3359,-3.2012,-3.1875,-3.3457,-3.2773,-3.2715,-3.3516,-3.3457,-3.3398,-3.3398,-3.3398,-3.3398,-3.3398,-3.3311,-3.3682,-3.4469,-3.4352,-3.4728,-3.5493,-3.5493,-3.5493,-3.5493,-3.5479,-3.5304,-3.5034,-3.4427,-3.4176,-3.4123,-3.3876,-3.3807,-3.3807,-2.485,-2.4962,-2.5302,-2.6312,-2.654,-2.689,-2.7775,-2.8429,-2.9121,-2.9987,-3.0717,-3.1295,-3.166,-3.0602,-3.016,-3.0891,-2.9302,-2.798,-2.7343,-2.6293,-2.5245,-2.4246,-2.419,-2.419,-2.419,-2.419,-2.419,-2.419,-2.3859,-2.3217,-2.2299,-2.2795,-2.2642,-2.2062,-2.351,-2.4785,-2.5779,-2.5535,-2.6502,-2.8236,0.0,-2.8525,0.0,-3.2821,-3.4504,-3.4604,-3.5418,-3.5749,-3.5582,0.0,-3.3868,0.0,0.0,0.0,0.0,-3.0722,0.0,0.0,0.0,0.0,0.0,0.0,0.0,0.0,-2.6621,0.0,-2.6133,0.0,0.0,0.0,0.0,0.0,0.0,0.0,-2.6016,0.0,0.0,0.0,-2.7305,0.0,0.0,0.0,0.0,0.0,0.0,0.0,-3.0254,-3.0664,-3.1875,-3.1621,-3.1836,-3.2676,-3.2207,-3.1953,-3.1953,-3.1953,-3.1953,-3.1953,-3.1841,-3.2205,-3.2986,-3.2887,-3.3283,-3.4026,-3.4526,-3.4757,-3.4776,-3.5295,-3.5432,-3.5289,-3.487,-3.4513,-3.4195,-3.4074,-3.3935,-3.3807,-2.4776,-2.4872,-2.512,-2.5893,-2.6075,-2.6385,-2.7247,-2.8675,-2.9946,-3.0791,-3.1155,-3.1482,-3.1872,-3.1162,-3.0906,-3.1522,-3.0392,-2.9231,-2.8267,-2.699,-2.5836,-2.4887,-2.4447,-2.43,-2.452,-2.43,-2.419,-2.419,-2.3988,-2.3272,-2.2134,-2.274,-2.2771,-2.2436,-2.4294,-2.5706,-2.6683,-2.7105,-2.7698,-2.839,-2.9025,-2.9563,-3.0333,-3.3564,-3.5084,-3.5515,-3.5611,-3.5655,-3.5461,-3.4096,-3.3659,0.0,-3.3203,0.0,-3.1287,0.0,0.0,0.0,-2.918,0.0,0.0,0.0,0.0,0.0,0.0,0.0,0.0,0.0,0.0,0.0,0.0,0.0,-2.5683,-2.5703,0.0,-2.5683,0.0,-2.5703,0.0,0.0,0.0,0.0,0.0,0.0,0.0,-2.8281,-2.8652,-2.9375,-3.0488,-3.0547,-3.0937,-3.1816,-3.123,-3.0898,-3.0898,-3.0898,-3.0898,-3.0898,-3.0793,-3.1168,-3.1897,-3.1853,-3.2222,-3.2949,-3.3564,-3.3833,-3.391,-3.4776,-3.5141,-3.5147,-3.5193,-3.4907,-3.4427,-3.4246,-3.4018,-3.3807,-2.4478,-2.4528,-2.4528,-2.4547,-2.4723,-2.5125,-2.594,-2.7001,-2.7981,-2.8788,-2.9794,-3.0951,-3.2336,-3.1752,-3.215,-3.4375,-3.2812,-3.1371,-3.0555,-2.8756,-2.7365,-2.6557,-2.5034,-2.4557,-2.5348,-2.4593,-2.419,-2.419,-2.3419,-2.3015,-2.296,-2.2997,-2.3085,-2.3353,-2.5163,-2.6565,-2.7631,-2.8603,-3.0429,-3.2699,-3.2737,-3.3757,-3.5103,0.0,-3.4026,-3.5507,-3.5488,0.0,0.0,-3.4715,-3.4465,0.0,0.0,0.0,0.0,0.0,0.0,0.0,0.0,0.0,0.0,-2.8711,0.0,0.0,0.0,0.0,-2.6719,0.0,0.0,0.0,0.0,-2.5658,-2.5611,-2.5683,-2.5657,0.0,0.0,0.0,0.0,0.0,0.0,0.0,0.0,0.0,0.0,-2.8242,-2.7539,-2.7832,-2.9551,-2.9648,-3.0039,-3.0918,-3.0918,-3.0898,-3.0898,-3.0898,-3.0898,-3.0898,-3.0898,-3.1253,-3.1897,-3.1897,-3.2258,-3.2891,-3.2929,-3.2949,-3.3006,-3.3872,-3.4237,-3.4314,-3.5147,-3.532,-3.4999,-3.4405,-3.4018,-3.3807,-2.4284,-2.4303,-2.4393,-2.4654,-2.476,-2.5242,-2.6585,-2.815,-2.9894,-3.1855,-3.2588,-3.3637,-3.56,-3.5089,-3.5058,-3.6182,-3.5034,-3.3659,-3.2284,-3.0434,-2.9035,-2.8205,-2.6649,-2.5915,-2.619,-2.5401,-2.4722,-2.419,-2.3933,-2.3529,-2.2997,-2.3547,-2.3548,-2.3177,-2.4993,-2.6403,-2.7485,-2.8471,-2.9806,-3.1352,0.0,-3.3949,-3.5449,0.0,0.0,-3.5493,-3.5493,-3.5534,0.0,-3.5311,-3.4931,-3.4476,-3.3941,-3.3037,-3.2088,-3.1836,-3.1348,0.0,0.0,0.0,-3.0625,-2.9453,0.0,0.0,0.0,0.0,0.0,0.0,0.0,0.0,0.0,-2.5605,-2.5558,-2.5611,-2.5607,-2.5598,0.0,0.0,0.0,0.0,0.0,0.0,0.0,0.0,0.0,-2.6562,-2.6836,-2.7519,0.0,-2.9297,-3.0,-3.0879,-3.0898,-3.0898,-3.0898,-3.0898,-3.0898,-3.0898,-3.0898,-3.0969,-3.1098,-3.1051,-3.1142,-3.1342,-3.1881,-3.2102,-3.2218,-3.3622,-3.4199,-3.4276,-3.5161,-3.5339,-3.5051,-3.4675,-3.4334,-3.4043,-2.4263,-2.419,-2.4284,-2.4545,-2.4818,-2.5454,-2.6782,-2.8898,-3.1045,-3.298,-3.3964,-3.5124,-3.6749,-3.6366,-3.6217,-3.6764,-3.6173,-3.4983,-3.3115,-3.1776,-3.0625,-2.9595,-2.8198,-2.7457,-2.7457,-2.6667,-2.5713,-2.463,-2.463,-2.4208,-2.3437,-2.3951,-2.3914,-2.3511,-2.5089,-2.6371,-2.7415,-2.9107,-3.0401,-3.1448,0.0,-3.4507,0.0,0.0,-3.5493,-3.5493,0.0,-3.5534,-3.5574,-3.559,-3.5135,-3.451,-3.4234,-3.325,-3.2148,-3.1836,-3.1348,-3.0898,-3.0898,-3.0898,0.0,-2.9824,-2.918,0.0,-2.7266,0.0,0.0,0.0,0.0,0.0,0.0,-2.6037,-2.5652,-2.6008,-2.5788,-2.5558,0.0,-2.5567,0.0,0.0,0.0,-2.5703,0.0,-2.5703,-2.5703,-2.5703,-2.6211,-2.6914,0.0,0.0,-2.9531,-3.041,-3.0742,-3.0898,-3.0898,-3.0898,-3.0898,-3.0898,-3.0898,-3.0836,-3.0693,-3.0638,-3.0561,-3.0528,-3.1017,-3.1237,-3.1352,-3.2737,-3.3468,-3.3814,-3.4699,-3.5115,-3.5207,-3.4944,-3.4553,-3.4152,-2.4355,-2.4226,-2.4263,-2.43,-2.4905,-2.5676,0.0,0.0,-3.1296,-3.2203,-3.3958,-3.5362,-3.5996,-3.5773,-3.5821,-3.6368,-3.6413,-3.5524,-3.3361,-3.2951,-3.2189,-3.0897,-2.9761,-2.9159,-2.9104,-2.8246,-2.7016,-2.5458,-2.5384,-2.4962,-2.419,-2.419,-2.419,-2.4246,-2.541,-2.6427,-2.749,-3.0343,-3.209,-3.3103,-3.4834,-3.5493,-3.5493,-3.5493,-3.5493,-3.5493,-3.5493,-3.5493,-3.5501,-3.5508,-3.5105,-3.4406,-3.3516,-3.278,-3.207,-3.1172,-3.0898,-3.0898,-3.0898,-3.0898,-3.0703,-2.9863,0.0,0.0,0.0,0.0,-2.8125,0.0,0.0,0.0,0.0,0.0,-2.5913,-2.6715,-2.6077,-2.5511,-2.5598,-2.5603,-2.5611,0.0,0.0,-2.5703,-2.5703,-2.5703,-2.5703,-2.5703,-2.5703,-2.6074,0.0,0.0,-2.8691,-2.957,-3.0449,-3.0898,-3.0898,-3.0898,-3.0898,-3.0898,-3.0898,-3.0837,-3.0716,-3.0643,-3.0568,-3.0498,-3.0419,-3.039,-3.0456,-3.1352,-3.216,-3.2929,-3.3833,-3.4737,-3.5479,-3.5207,-3.4716,-3.4152,-2.4355,-2.4667,-2.5273,-2.5878,-2.5658,-2.588,0.0,0.0,0.0,-3.3828,-3.5548,-3.7074,-3.8505,-3.8353,-3.8136,-3.8095,-3.8083,-3.7581,-3.6417,-3.5735,-3.4899,-3.3913,-3.2456,-3.1403,-3.0797,-2.8815,-2.7291,-2.6282,-2.5089,-2.4392,-2.419,-2.419,-2.419,-2.4227,-2.4684,-2.5794,-2.7415,-2.8902,-3.1226,-3.3949,-3.5064,-3.5493,-3.5493,0.0,-3.5493,-3.5493,-3.5493,-3.5493,-3.5391,-3.477,-3.4923,-3.5022,-3.292,-3.2648,-3.2793,-3.1328,-3.0898,-3.0898,-3.0898,-3.0898,-3.0859,-3.0625,-3.0078,-2.9473,0.0,0.0,0.0,0.0,0.0,0.0,0.0,0.0,0.0,-2.5988,-2.5683,-2.5547,-2.566,-2.5634,0.0,-2.5683,0.0,0.0,-2.5703,-2.5703,-2.5703,-2.5703,-2.5703,0.0,0.0,0.0,0.0,-2.957,-3.0449,-3.0898,-3.0898,-3.0898,-3.0898,-3.0898,-3.0898,-3.0879,-3.0838,-3.0735,-3.0648,-3.0568,-3.0507,-3.0451,-3.0456,-3.1352,-3.1814,-3.216,-3.3622,-3.4737,-3.5479,-3.5207,-3.4716,-3.4176,-2.4869,-2.5658,-2.6686,-2.7512,0.0,0.0,-2.8191,-2.9953,0.0,-3.3801,-3.5728,0.0,-3.8244,-3.8681,-3.8855,-3.8719,-3.8707,-3.8254,-3.7183,-3.694,-3.6158,-3.471,-3.4007,-3.3128,-3.1953,-3.0246,-2.8631,-2.7126,-2.5878,-2.4887,-2.419,-2.419,-2.419,-2.4209,-2.4512,-2.5396,-2.6851,-2.872,-3.1328,-3.4237,-3.4737,-3.5161,0.0,-3.5493,-3.5493,-3.5493,-3.5493,-3.5493,-3.543,-3.493,-3.4689,-3.4354,-3.2928,-3.2381,-3.2129,-3.1172,-3.0898,-3.0898,-3.0898,-3.0898,-3.0898,-3.0898,-3.0527,-3.0078,-2.9687,-2.9609,-2.9453,0.0,0.0,0.0,0.0,0.0,0.0,-2.5737,-2.5547,-2.5543,-2.5637,-2.5611,-2.5611,0.0,-2.5661,0.0,0.0,-2.5662,-2.5662,-2.5703,-2.5703,0.0,0.0,0.0,0.0,-2.8457,-2.9687,-3.0332,-3.0332,-3.0703,-3.0898,-3.0898,-3.0898,-3.0898,-3.0898,-3.0769,-3.0669,-3.06,-3.0529,-3.0462,-3.0436,-3.0929,-3.1371,-3.1833,-3.3122,-3.416,-3.4916,-3.4745,-3.4656,-3.4574,-2.6007,-2.7071,-2.8338,0.0,0.0,0.0,0.0,-3.1061,0.0,-3.3452,0.0,-3.6987,-3.7019,-3.8024,-3.8707,-3.8707,-3.8707,-3.8184,-3.696,-3.7366,-3.673,-3.4705,-3.4989,-3.444,-3.2963,-3.1825,-3.0155,-2.7952,-2.6943,-2.5697,-2.4247,-2.4247,-2.4247,-2.4303,-2.4651,-2.5371,-2.6437,-2.9225,-3.1795,-3.4026,-3.4141,-3.4718,-3.5493,-3.5493,-3.5493,-3.5493,-3.5493,-3.5493,-3.5474,-3.5372,-3.4466,-3.3336,-3.3096,-3.2124,-3.1055,-3.0937,-3.0898,-3.0898,-3.0898,-3.0898,-3.0898,-3.0898,-3.0898,-3.0703,-2.9941,-2.9766,-2.9766,-2.9766,-2.918,-2.9062,0.0,0.0,0.0,-2.5924,-2.5736,-2.5765,-2.5937,-2.5861,-2.581,-2.5859,0.0,0.0,0.0,0.0,0.0,0.0,0.0,0.0,0.0,0.0,0.0,-2.6992,-2.8691,0.0,-2.9609,0.0,-3.0898,-3.0898,-3.0898,-3.0898,-3.0898,-3.0771,-3.0677,-3.06,-3.0545,-3.0463,-3.0398,-3.0398,-3.091,-3.1775,-3.2468,-3.3333,-3.4199,-3.4199,-3.4602,-3.5069,-2.8411,-2.9127,-2.9824,-2.9971,0.0,-3.2192,-3.2871,-3.3235,-3.4072,-3.5839,-3.7405,-3.8449,-3.8662,-3.8689,-3.8707,-3.8707,-3.8707,0.0,0.0,-3.8426,-3.8021,-3.6959,-3.6368,-3.5605,-3.4587,-3.1843,-2.9879,-2.8796,-2.6649,-2.5206,-2.4444,-2.4444,-2.4545,-2.47,-2.4872,-2.5925,-2.7689,-2.9598,0.0,-3.3179,-3.391,-3.4718,-3.5493,-3.5493,-3.5493,-3.5493,-3.5493,-3.5493,-3.5391,-3.4661,-3.436,-3.4024,-3.2578,-3.2049,-3.1836,-3.1113,-3.0898,-3.0898,-3.0898,-3.0898,-3.0898,-3.0898,-3.0898,-3.0859,-3.0703,-3.0664,-3.0664,-3.0664,-3.0547,-3.0312,-2.9902,0.0,0.0,0.0,0.0,0.0,0.0,-2.7206,-2.6757,-2.6777,-2.6714,-2.6436,0.0,0.0,0.0,0.0,0.0,0.0,0.0,0.0,0.0,0.0,-2.8691,0.0,0.0,0.0,-3.0898,-3.0898,-3.0898,-3.0898,-3.0898,-3.0879,-3.076,-3.0606,-3.0587,-3.0516,-3.0398,-3.0398,-3.091,-3.1718,-3.1852,-3.2852,-3.4199,-3.4199,-3.4724,-3.5383,-3.0705,-3.0852,-3.1091,-3.1916,0.0,0.0,0.0,-3.5092,-3.5257,-3.5761,-3.6767,-3.7511,-3.7627,-3.8276,-3.8707,-3.8707,-3.8707,-3.8707,-3.8707,-3.8303,-3.7716,-3.6909,-3.6083,-3.5238,-3.4412,-3.2467,-3.068,-2.916,0.0,-2.6061,-2.4654,-2.4654,-2.47,-2.4823,-2.5412,-2.6489,0.0,0.0,0.0,-3.2987,-3.3853,-3.4718,-3.5493,-3.5493,-3.5493,-3.5493,-3.5493,-3.5493,-3.5443,-3.5051,-3.473,-3.4283,-3.302,-3.2439,-3.2031,-3.1152,-3.0898,-3.0898,-3.0898,-3.0898,-3.0898,-3.0898,-3.0898,-3.0898,-3.0898,-3.0898,-3.0898,-3.0898,-3.0898,-3.0625,-2.9766,-2.8887,0.0,0.0,0.0,0.0,0.0,0.0,-2.6992,-2.6992,-2.6561,-2.613,0.0,0.0,0.0,0.0,0.0,0.0,0.0,0.0,0.0,0.0,0.0,0.0,0.0,0.0,0.0,-3.0898,-3.0898,-3.0898,-3.0898,-3.0898,-3.0784,-3.0606,-3.0606,-3.0513,-3.0398,-3.0398,-3.066,-3.1025,-3.1025,-3.1795,-3.2949,-3.3372,-3.4083,-3.4845,-3.2577,-3.2485,-3.2559,0.0,-3.3844,0.0,-3.6028,-3.6597,-3.656,-3.5899,-3.6395,-3.6798,-3.6798,-3.7936,-3.8707,-3.8707,-3.8542,-3.8432,-3.8432,-3.7679,-3.6945,-3.6321,-3.5477,-3.4697,-3.4082,-3.3109,-3.1593,0.0,0.0,0.0,0.0,-2.4908,-2.4964,0.0,0.0,0.0,0.0,0.0,-3.1468,-3.3237,-3.391,-3.4718,-3.5493,-3.5493,-3.5493,-3.5493,-3.5493,-3.5501,-3.5528,-3.5611,-3.513,-3.4387,-3.3774,-3.2938,-3.207,-3.1387,-3.1055,-3.0898,-3.0898,-3.0898,-3.0898,-3.0898,-3.0898,-3.0898,-3.0898,-3.0898,-3.0898,-3.0898,-3.0898,-3.0625,-2.9766,-2.9199,0.0,0.0,0.0,0.0,0.0,0.0,-2.7207,-2.7012,-2.6387,-2.5898,-2.5723,0.0,0.0,0.0,0.0,0.0,-2.5703,-2.5703,0.0,0.0,0.0,-2.8301,-2.8301,0.0,-3.0898,0.0,-3.0898,-3.0898,-3.0898,-3.0898,-3.0784,-3.0606,-3.0606,-3.0513,-3.0398,-3.0398,-3.0398,-3.0398,-3.0398,-3.0929,-3.1775,-3.241,-3.3179,-3.4032,0.0,0.0,0.0,0.0,0.0,0.0,-3.6376,-3.7533,-3.845,-3.8358,-3.8432,-3.8487,-3.8487,-3.8615,-3.8707,-3.8707,-3.8028,-3.7606,-3.7606,-3.6853,-3.6376,-3.6303,-3.5477,-3.4954,-3.488,-3.3385,-3.177,0.0,0.0,-2.7326,0.0,-2.5259,-2.5497,0.0,0.0,0.0,0.0,-3.0321,-3.1814,-3.4083,-3.416,-3.4718,-3.5493,-3.5493,-3.5493,-3.5493,-3.5493,-3.554,-3.5591,-3.5679,-3.5171,-3.4504,-3.448,-3.3426,-3.2187,-3.2109,-3.1523,-3.0898,-3.0898,-3.0898,-3.0898,-3.0898,-3.0898,-3.0898,-3.0898,-3.0898,-3.0898,-3.0898,-3.0898,-3.0625,-2.9766,-3.0176,-3.0137,0.0,0.0,0.0,0.0,0.0,-2.7891,-2.709,-2.6934,-2.6562,0.0,-2.5703,0.0,0.0,-2.5703,0.0,-2.5703,-2.5703,-2.5703,-2.5703,0.0,-2.8301,-2.8301,-3.0039,-3.0898,-3.0898,-3.0898,-3.0898,-3.0898,-3.0898,-3.0784,-3.0606,-3.0606,-3.0513,-3.0398,-3.0398,-3.0398,-3.0398,-3.0398,-3.0929,-3.1718,-3.1775,-3.2333,-3.3141,0.0,0.0,0.0,0.0,0.0,0.0,0.0,-3.7881,-3.8138,-3.8634,-3.8707,-3.8707,-3.8707,-3.8707,-3.8707,-3.8707,-3.8414,-3.801,-3.7544,-3.6743,-3.6064,-3.555,-3.4724,-3.4284,-3.4284,-3.366,-3.2599,0.0,0.0,-2.9042,-2.7608,-2.7026,0.0,0.0,0.0,-2.9737,-3.1256,-3.2256,-3.3276,-3.4237,-3.4776,-3.5199,-3.5493,-3.5493,-3.5493,-3.552,-3.5546,-3.5577,-3.5621,-3.5774,-3.5617,-3.5256,-3.4791,-3.4217,-3.3496,-3.25,-3.1953,-3.1562,-3.1035,-3.0898,-3.0898,-3.0898,-3.0898,-3.0898,-3.0898,-3.0898,-3.0898,-3.0898,-3.0898,-3.0781,-3.0449,-3.0234,-3.0059,0.0,0.0,0.0,0.0,0.0,0.0,-2.7812,-2.6855,-2.6074,-2.5723,0.0,0.0,0.0,0.0,0.0,0.0,0.0,0.0,-2.5703,0.0,-2.8301,-2.8301,-3.0039,-3.0898,-3.0898,-3.0898,-3.0898,-3.0898,-3.0898,-3.0784,-3.06,-3.0567,-3.0491,-3.0398,-3.0398,-3.0398,-3.0398,-3.0398,-3.0609,-3.0987,-3.1506,-3.191,-3.2372,-3.6597,0.0,-3.6193,0.0,-3.6872,-3.6615,-3.812,-3.8065,-3.7955,-3.8303,-3.856,-3.8707,-3.8707,-3.8707,-3.8707,-3.8707,-3.8487,-3.8102,-3.7533,-3.6505,-3.5771,-3.5404,-3.4376,0.0,-3.4156,-3.3917,-3.3239,-3.208,-3.1519,-3.0634,-2.9455,0.0,0.0,0.0,-3.0506,-3.141,-3.2506,-3.3699,-3.4353,-3.4641,-3.5257,-3.5493,-3.5493,-3.5493,-3.5515,-3.554,-3.5568,-3.564,-3.5698,-3.5856,-3.591,-3.5825,-3.5253,-3.4902,-3.4473,-3.3281,-3.2598,-3.207,-3.1445,-3.1094,-3.0898,-3.0898,-3.0898,-3.0898,-3.0898,-3.0898,-3.0898,-3.0898,-3.0898,-3.0898,-3.0898,-3.0391,-3.0098,-3.0469,0.0,0.0,0.0,-2.8906,0.0,-2.7598,-2.6425,-2.5683,-2.5703,-2.5703,0.0,0.0,0.0,0.0,0.0,0.0,0.0,0.0,0.0,0.0,0.0,-3.0039,-3.0898,-3.0898,-3.0898,-3.0898,-3.0898,-3.0858,-3.0762,-3.0614,-3.0545,-3.0472,-3.0428,-3.0402,-3.0398,-3.0398,-3.0398,-3.0398,-3.0456,-3.1102,-3.1314,-3.1564,-3.7342,-3.7489,-3.7716,-3.8542,-3.867,-3.8395,-3.7624,-3.8175,-3.8395,-3.7606,-3.8212,-3.8707,-3.8707,-3.8707,-3.8707,-3.8707,-3.7955,-3.7526,-3.7507,-3.5954,-3.5404,0.0,0.0,-3.4174,-3.4954,-3.4211,-3.3522,-3.2989,0.0,0.0,-3.1268,0.0,-3.0833,-3.1679,-3.1679,-3.2602,-3.416,-3.418,-3.4699,-3.5488,-3.5507,-3.5493,-3.5493,-3.5493,-3.5534,-3.5611,-3.5611,-3.5741,-3.59,-3.59,-3.5947,-3.5996,-3.5996,-3.5391,-3.4707,-3.4687,-3.3496,-3.2207,-3.2187,-3.1562,-3.0898,-3.0898,-3.0898,-3.0898,-3.0898,-3.0898,-3.0898,-3.0898,-3.0898,-3.0898,-3.0898,-3.0898,-3.0605,-2.9746,0.0,0.0,0.0,-2.7708,0.0,-2.5937,-2.5657,-2.5633,-2.5683,-2.5703,0.0,0.0,0.0,0.0,0.0,0.0,0.0,-2.5703,-2.7383,0.0,-2.8301,-3.0039,-3.0898,-3.0898,-3.0898,-3.0898,-3.0898,-3.0769,-3.0696,-3.069,-3.0554,-3.0498,-3.049,-3.0428,-3.0398,-3.0398,-3.0398,-3.0398,-3.0398,-3.0398,-3.0417,-3.0648,-3.8267,-3.8322,-3.8395,-3.867,-3.8707,-3.8615,-3.8358,-3.8542,-3.8615,-3.834,-3.8542,-3.8707,-3.8707,-3.8707,-3.8707,0.0,-3.8469,-3.8083,0.0,-3.7,-3.6578,-3.6303,-3.522,-3.4852,-3.5328,-3.4494,-3.4088,-3.4156,0.0,0.0,0.0,-3.2193,-3.2564,-3.3391,-3.3391,-3.4026,-3.5084,-3.5084,-3.5257,-3.5493,-3.5493,-3.5493,-3.5493,-3.5493,-3.5534,-3.5601,-3.5646,-3.5774,-3.5907,-3.5948,-3.5975,-3.5996,-3.5996,-3.5801,-3.5469,-3.4863,-3.4316,-3.3652,-3.2519,-3.1992,-3.1641,-3.1055,-3.0898,-3.0898,-3.0898,-3.0898,-3.0898,-3.0898,-3.0898,-3.0898,-3.0898,-3.0836,-3.0671,-3.0398,-3.0534,0.0,0.0,0.0,-2.7706,-2.6575,-2.5901,-2.5558,0.0,-2.5634,0.0,0.0,0.0,0.0,0.0,0.0,0.0,0.0,-2.7383,0.0,-2.8301,-3.0039,-3.0898,-3.0898,-3.0898,-3.0898,-3.0898,-3.0858,-3.0792,-3.0693,-3.0642,-3.0617,-3.0554,-3.049,-3.0482,-3.0472,-3.0425,-3.0398,-3.0398,-3.0398,-3.0398,-3.0629,-3.8707,-3.8707,-3.8707,-3.8707,-3.8707,-3.8707,-3.8707,-3.8707,-3.8707,-3.8707,-3.8707,-3.8707,-3.8707,-3.8773,0.0,-3.8707,-3.8707,-3.8487,-3.7973,-3.7753,-3.7562,-3.7359,-3.6366,-3.6081,-3.6574,0.0,0.0,-3.5306,-3.4721,-3.4261,-3.3891,-3.3891,-3.418,-3.468,-3.468,-3.4988,-3.5493,-3.5493,-3.5493,-3.5493,-3.5493,-3.5493,-3.5545,-3.5894,-3.6071,-3.6132,-3.6229,-3.6337,-3.6376,-3.6093,-3.5996,-3.5996,-3.5996,-3.5996,-3.5898,-3.5351,-3.4961,-3.4394,-3.3027,-3.2422,-3.1992,-3.1113,-3.0898,-3.0898,-3.0898,-3.0898,-3.0898,-3.0837,-3.0817,-3.0814,-3.0786,-3.0726,-3.0669,-3.0669,-3.0633,-3.0197,-2.9069,0.0,-2.764,0.0,0.0,0.0,0.0,-2.6373,-2.6466,0.0,0.0,0.0,0.0,0.0,0.0,-2.6172,-2.7559,0.0,-2.8789,-3.0195,-3.0898,-3.0898,-3.0898,-3.0898,-3.0898,-3.0898,-3.0858,-3.0771,-3.0721,-3.068,-3.0638,-3.0545,-3.0498,-3.049,-3.0428,-3.0398,-3.0436,-3.0775,-3.0679,-3.0686,-3.8707,-3.8707,0.0,0.0,-3.8707,0.0,-3.8707,-3.8707,-3.8707,-3.8707,-3.8738,-3.8719,-3.8719,-3.8961,-3.9036,-3.8792,0.0,0.0,0.0,-3.8312,-3.835,-3.9115,-3.7957,-3.7646,-3.8398,-3.6852,-3.6121,-3.6341,-3.5844,-3.5551,-3.5493,-3.5565,-3.557,-3.557,-3.557,-3.5622,-3.568,-3.568,-3.568,-3.568,-3.5694,-3.5694,-3.5778,-3.6654,-3.7042,-3.7118,-3.7234,-3.7294,-3.7187,-3.6426,-3.6133,-3.6094,-3.6094,-3.6094,-3.6074,-3.6016,-3.543,-3.4609,-3.373,-3.2891,-3.207,-3.1211,-3.0937,-3.0898,-3.0898,-3.0898,-3.0857,-3.0718,-3.069,-3.0677,-3.0617,-3.06,-3.0594,-3.0594,-3.0535,-2.9926,-2.8312,0.0,-2.7314,0.0,0.0,0.0,0.0,-2.7667,-2.7855,0.0,0.0,0.0,0.0,0.0,-2.6211,-2.6973,-2.7891,-2.8789,-2.959,-3.0469,-3.0898,-3.0898,-3.0898,-3.0898,-3.0898,-3.0898,-3.0898,-3.0898,-3.0767,-3.0696,-3.069,-3.0567,-3.0498,-3.0509,-3.0486,-3.0436,-3.0513,-3.1391,-3.1198,-3.0852,0.0,0.0,-3.8707,-3.8707,-3.8707,-3.8707,-3.8707,-3.8707,-3.8707,-3.8707,-3.8884,-3.8999,-3.8999,-3.9282,-3.9457,-3.9402,-3.9402,-3.9402,-3.9402,-3.9269,-3.9274,-3.9462,-3.8595,-3.8315,-3.8688,-3.77,-3.7007,-3.6607,-3.6479,-3.6103,-3.5512,-3.6142,-3.643,-3.643,-3.643,-3.6796,-3.7411,-3.7411,-3.7411,-3.7425,-3.7513,-3.7572,-3.7583,-3.7866,-3.802,-3.8077,-3.8108,-3.7762,-3.7363,-3.7832,-3.7539,-3.6992,-3.6992,-3.6992,-3.6855,-3.6191,-3.5859,-3.5508,-3.4629,-3.3769,-3.293,-3.2109,-3.1387,-3.0878,-3.0769,-3.0745,-3.0716,-3.0643,-3.0614,-3.0628,-3.0606,-3.0554,-3.0521,-3.0521,-2.993,-2.911,-2.8087,-2.7364,0.0,0.0,-2.6506,-2.6901,-2.764,-2.793,-2.7995,0.0,0.0,0.0,0.0,-2.7676,-2.7461,-2.7012,-2.8496,-2.9394,-2.9609,-3.0469,-3.0898,-3.0898,-3.0898,-3.0898,-3.0898,-3.0898,-3.0898,-3.0898,-3.0767,-3.0696,-3.069,-3.0567,-3.0498,-3.0567,-3.116,-3.0987,-3.0513,-3.1391,-3.1564,-3.1564,-3.8707,-3.8707,-3.8707,-3.8707,-3.8707,-3.8732,-3.8855,-3.8884,-3.8923,-3.9073,-3.9249,-3.9314,-3.9314,-3.9622,-3.9819,-3.9819,-3.969,-3.9599,-3.9599,-3.9735,-3.9819,-3.9819,-3.9546,-3.9414,-3.9578,-3.8791,-3.8016,-3.7296,-3.7296,-3.7065,-3.6661,-3.7084,-3.7296,-3.7296,-3.7296,-3.7565,-3.8007,-3.8007,-3.8007,-3.8003,-3.816,-3.8208,-3.8248,-3.8747,-3.897,-3.8993,-3.9069,-3.8825,-3.8496,-3.8574,-3.8027,-3.7305,-3.7305,-3.7031,-3.6601,-3.6133,-3.5996,-3.5801,-3.4941,-3.4355,-3.3691,-3.2418,-3.1723,-3.1237,-3.0767,-3.0642,-3.0643,-3.0568,-3.0547,-3.0533,-3.0516,-3.0472,-3.0317,-2.9912,-2.9426,-2.8679,-2.7467,-2.6909,0.0,-2.6601,-2.6948,-2.7536,-2.8425,-2.8896,-2.9009,-2.8674,0.0,0.0,-2.8274,-2.8652,-2.8672,-2.8203,-2.9101,-2.9785,-3.0195,-3.0664,-3.0898,-3.0898,-3.0898,-3.0898,-3.0898,-3.0898,-3.0898,-3.0898,-3.0817,-3.0792,-3.0788,-3.0606,-3.0552,-3.0576,-3.0951,-3.0833,-3.0513,-3.1391,-3.1698,-3.1872,-3.8707,-3.8707,-3.8707,-3.8707,-3.875,-3.8844,-3.9063,-3.9133,-3.9264,-3.9576,-3.9645,-3.9668,-3.9668,-3.9963,-4.0158,-4.0158,-3.9903,-3.9735,-3.9735,-4.0003,-4.0158,-4.0158,-4.0372,-4.0489,-4.0489,-3.97,-3.8931,-3.82,-3.82,-3.8123,-3.8007,-3.8123,-3.82,-3.82,-3.82,-3.8257,-3.8373,-3.8402,-3.8416,-3.8425,-3.8565,-3.8617,-3.8714,-3.9589,-3.9937,-3.9942,-4.0057,-4.0019,-3.9805,-3.9199,-3.832,-3.75,-3.75,-3.6894,-3.6172,-3.6035,-3.5976,-3.5819,-3.5077,-3.4783,-3.4232,-3.2433,-3.1934,-3.1663,-3.0782,-3.0587,-3.0561,-3.0498,-3.0472,-3.0472,-3.0414,-3.0398,-3.0121,-2.9236,-2.9102,-2.8506,-2.6832,0.0,-2.6794,-2.6794,-2.7563,-2.839,-2.9217,-3.0028,-3.0181,-2.9455,-2.9555,-2.9331,0.0,-2.933,-2.9785,-2.9805,-2.9805,-3.0156,-3.0898,-3.0898,-3.0898,-3.0898,-3.0898,-3.0898,-3.0898,-3.0898,-3.0898,-3.0898,-3.0879,-3.0878,-3.0857,-3.0676,-3.0606,-3.0607,-3.0617,-3.0543,-3.0524,-3.1388,-3.1715,-3.1927,-3.8707,-3.8707,-3.8707,-3.8707,-3.8884,-3.9063,-3.9099,-3.9339,-3.9552,-3.9599,-3.9859,-4.0022,-4.0022,-4.0267,-4.0441,-4.0441,-4.0389,-4.0353,-4.0353,-4.0406,-4.0441,-4.0441,-4.0473,-4.0489,-4.0489,-3.97,-3.9219,-3.9104,-3.9104,-3.8719,-3.8027,-3.8738,-3.9104,-3.9104,-3.9104,-3.9469,-4.0119,-4.0237,-4.028,-4.0304,-4.048,-4.056,-4.0589,-4.0851,-4.0976,-4.0976,-4.0996,-4.0527,-3.998,-4.0586,-3.9726,-3.8398,-3.8398,-3.7793,-3.6933,-3.6155,-3.5913,-3.5893,-3.5757,-3.5119,-3.4119,-3.2355,-3.1909,-3.167,-3.0742,-3.0524,-3.049,-3.0428,-3.0425,-3.0414,-3.041,-3.0398,-3.0121,-2.9236,-2.9102,-2.8506,-2.6832,0.0,-2.7698,-2.7698,-2.8409,-2.9256,-3.0121,-3.0325,-3.0372,-3.0296,-3.0338,-3.0348,-3.03,-3.0445,-3.0577,-3.0684,-3.0703,-3.0762,-3.0898,-3.0898,-3.0898,-3.0898,-3.0898,-3.0898,-3.0898,-3.0898,-3.0898,-3.0898,-3.0771,-3.0723,-3.0718,-3.0638,-3.0606,-3.0678,-3.1384,-3.1222,-3.0671,-3.1476,-3.1787,-3.1806,-3.8884,-3.8803,-3.8792,-3.9127,-3.9216,-3.9327,-3.9599,-3.9775,-3.9903,-4.0063,-4.0212,-4.0321,-4.0321,-4.0441,-4.0489,-4.0489,-4.0489,-4.0489,-4.0489,-4.0489,-4.0489,-4.0489,-4.0489,-4.0489,-4.0489,-4.0142,-3.995,-3.995,-3.995,-3.9738,-3.9354,-3.9758,-3.995,-3.995,-3.995,-4.0142,-4.0504,-4.063,-4.0703,-4.0726,-4.0922,-4.0996,-4.1,-4.115,-4.1191,-4.1191,-4.1191,-4.0937,-4.0664,-4.1055,-4.0351,-3.9219,-3.875,-3.7986,-3.7077,-3.6163,-3.5845,-3.5797,-3.5797,-3.5444,-3.4794,-3.3514,-3.2811,-3.2203,-3.133,-3.0779,-3.043,-3.0421,-3.0398,-3.0398,-3.0398,-3.0398,-3.0121,-2.9236,-2.9102,0.0,0.0,-2.764,-2.8063,-2.8486,-2.8871,-2.9429,-3.0333,-3.0398,-3.0414,-3.0451,-3.0482,-3.0529,-3.0594,-3.0669,-3.0721,-3.0792,-3.0858,-3.0898,-3.0898,-3.0898,-3.0898,-3.0898,-3.0898,-3.0898,-3.0898,-3.0898,-3.0898,-3.0898,-3.0837,-3.0814,-3.0793,-3.0703,-3.0642,-3.0696,-3.1065,-3.095,-3.0639,-3.1028,-3.1452,-3.1853,-3.8961,-3.8844,-3.8833,-3.9301,-3.9377,-3.95,-3.9922,-4.0101,-4.0269,-4.0473,-4.0489,-4.0489,-4.0489,-4.0489,-4.0489,-4.0489,-4.0489,-4.0489,-4.0489,-4.0489,-4.0489,-4.0489,-4.0489,-4.0489,-4.0489,-4.0489,-4.0489,-4.0489,-4.0489,-4.0489,-4.0489,-4.0489,-4.0489,-4.0504,-4.053,-4.0545,-4.0559,-4.0707,-4.0762,-4.0781,-4.0974,-4.1052,-4.1055,-4.1151,-4.1191,-4.1191,-4.1191,-4.1191,-4.1191,-4.1191,-4.0605,-3.9705,-3.8826,-3.7912,-3.6976,-3.608,-3.5749,-3.5655,-3.5667,-3.563,-3.5364,-3.4494,-3.3585,-3.2699,-3.1891,-3.1025,-3.0398,-3.0398,-3.0398,-3.0398,-3.0398,-3.0398,-3.0121,-2.9236,0.0,0.0,0.0,-2.8236,-2.864,-2.9044,-2.9275,-2.9679,-3.034,-3.0398,-3.0398,-3.0398,-3.0451,-3.0491,-3.0498,-3.0606,-3.0669,-3.068,-3.0816,-3.0898,-3.0898,-3.0898,-3.0898,-3.0898,-3.0898,-3.0898,-3.0898,-3.0898,-3.0898,-3.0898,-3.0898,-3.0898,-3.0898,-3.0792,-3.0745,-3.0743,-3.0689,-3.0672,-3.0672,-3.0638,-3.1056,-3.1615,-3.8719,-3.8719,-3.8689,-3.875,-3.9216,-3.9599,-3.9622,-4.012,-4.0473,-4.0489,-4.0489,-4.0489,-4.0489,-4.0489,-4.0489,-4.0489,-4.0489,-4.0489,-4.0489,-4.0489,-4.0489,-4.0489,-4.0489,-4.0489,-4.0489,-4.0489,-4.0489,-4.0489,-4.0489,-4.0489,-4.0489,-4.0489,-4.0489,-4.0504,-4.0636,-4.068,-4.0703,-4.0883,-4.0983,-4.0988,-4.1128,-4.1191,-4.1191,-4.1191,-4.1191,-4.1191,-4.1191,-4.1191,-4.1191,-4.1191,-4.0541,-3.9556,-3.8681,-3.7761,-3.6829,-3.5902,-3.5574,-3.5534,-3.559,-3.555,-3.529,-3.4437,-3.3558,-3.2699,-3.1891,-3.1025,-3.0398,-3.0398,-3.0398,-3.0398,-3.0398,-3.0398,-3.0121,-2.9236,0.0,0.0,-2.8121,-2.9236,-2.9948,-2.9179,-2.9813,-3.0321,-3.0379,-3.0398,-3.0398,-3.0398,-3.039,-3.043,-3.0498,-3.0516,-3.0533,-3.0611,-3.0806,-3.0898,-3.0898,-3.0898,-3.0898,-3.0898,-3.0898,-3.0898,-3.0898,-3.0898,-3.0898,-3.0898,-3.0898,-3.0898,-3.0898,-3.0898,-3.0898,-3.0879,-3.0878,-3.0878,-3.0858,-3.0743,-3.0729,-3.0781,-3.9519,-3.9313,-3.9216,-3.9735,-4.0004,-4.0157,-4.0157,-4.0353,-4.0489,-4.0489,-4.0489,-4.0489,-4.0489,-4.0489,-4.0489,-4.0489,-4.0489,-4.0489,-4.0489,-4.0489,-4.0489,-4.0489,-4.0489,-4.0489,-4.0489,-4.0489,-4.0489,-4.0489,-4.0489,-4.0489,-4.0504,-4.0602,-4.0623,-4.0636,-4.0712,-4.0752,-4.0761,-4.0939,-4.0996,-4.1019,-4.115,-4.1191,-4.1191,-4.1191,-4.1191,-4.1191,-4.1191,-4.1191,-4.1191,-4.1103,-4.0815,-4.0344,-3.9427,-3.849,-3.7444,-3.5956,-3.5522,-3.552,-3.5528,-3.5509,-3.543,-3.5084,-3.3949,-3.2814,-3.2506,-3.1391,-3.0398,-3.0398,-3.0398,-3.0398,-3.0398,-3.0398,-3.0294,-2.9967,0.0,-3.0167,-2.9544,-3.0006,-3.0294,-2.9948,-3.0198,-3.0398,-3.0398,-3.0398,-3.0398,-3.0398,-3.0398,-3.0414,-3.043,-3.0482,-3.0529,-3.06,-3.0676,-3.0716,-3.0716,-3.0762,-3.0771,-3.0771,-3.0858,-3.0898,-3.0898,-3.0898,-3.0898,-3.0898,-3.0898,-3.0898,-3.0898,-3.0898,-3.0898,-3.0898,-3.0898,-3.0898,-3.0898,-3.0837,-3.0817,-3.0816,-3.9901,-3.9641,-3.9576,-4.012,-4.0302,-4.0372,-4.0372,-4.0457,-4.0489,-4.0489,-4.0489,-4.0489,-4.0489,-4.0489,-4.0489,-4.0489,-4.0489,-4.0489,-4.0489,-4.0489,-4.0489,-4.0489,-4.0489,-4.0489,-4.0489,-4.0489,-4.0489,-4.0489,-4.0489,-4.0534,-4.0574,-4.0662,-4.0707,-4.0731,-4.0821,-4.0864,-4.087,-4.1016,-4.1055,-4.1077,-4.1151,-4.1191,-4.1191,-4.1191,-4.1191,-4.1191,-4.1191,-4.1171,-4.1126,-4.1026,-4.095,-4.0747,-3.9835,-3.8704,-3.7448,-3.5951,-3.5493,-3.5493,-3.5493,-3.5493,-3.5493,-3.5493,-3.441,-3.3314,-3.3314,-3.2218,-3.1121,-3.0871,-3.0814,-3.0717,-3.0436,-3.0398,-3.0398,-3.0398,-3.0398,-3.0398,-3.0398,-3.0398,-3.0398,-3.0398,-3.0398,-3.0398,-3.0398,-3.0398,-3.0398,-3.0398,-3.0398,-3.0398,-3.0398,-3.0441,-3.05,-3.0537,-3.0537,-3.0537,-3.0537,-3.0614,-3.0673,-3.0673,-3.076,-3.0808,-3.081,-3.0835,-3.0837,-3.0837,-3.0879,-3.0898,-3.0898,-3.0898,-3.0898,-3.0898,-3.0898,-3.0898,-3.0898,-3.0898,-3.0898,-3.0898,-3.9599,-3.9599,-3.9599,-3.9599,-3.988,-4.0101,-4.0101,-4.0339,-4.0489,-4.0489,-4.0489,-4.0489,-4.0489,-4.0489,-4.0489,-4.0489,-4.0489,-4.0489,-4.0489,-4.0489,-4.0489,-4.0489,-4.0489,-4.0489,-4.0504,-4.0504,-4.0504,-4.0504,-4.0504,-4.0574,-4.0703,-4.0703,-4.0742,-4.0801,-4.095,-4.0996,-4.1019,-4.1149,-4.1191,-4.1191,-4.1191,-4.1191,-4.1191,-4.1191,-4.1191,-4.1191,-4.1191,-4.1105,-4.0996,-4.0996,-4.0875,-4.0548,-3.9669,-3.8138,-3.6546,-3.5738,-3.5493,-3.5493,-3.5493,-3.5493,-3.5493,-3.5493,-3.4834,-3.4199,-3.4199,-3.3526,-3.2679,-3.1872,-3.1698,-3.1448,-3.0571,-3.0398,-3.0398,-3.0398,-3.0398,-3.0398,-3.0398,-3.0398,-3.0398,-3.0398,-3.0398,-3.0398,-3.0398,-3.0398,-3.0398,-3.0398,-3.0398,-3.0398,-3.0398,-3.0398,-3.0398,-3.0398,-3.0398,-3.0398,-3.0398,-3.0529,-3.0606,-3.0606,-3.0606,-3.0606,-3.0606,-3.0673,-3.0693,-3.0716,-3.0837,-3.0898,-3.0898,-3.0898,-3.0898,-3.0898,-3.0898,-3.0898,-3.0898,-3.0898,-3.0898,-3.0898,-4.023,-4.023,-4.023,-4.023,-4.0319,-4.0372,-4.0372,-4.0457,-4.0489,-4.0489,-4.0489,-4.0489,-4.0489,-4.0489,-4.0489,-4.0489,-4.0489,-4.0489,-4.0489,-4.0489,-4.0489,-4.0489,-4.0489,-4.0545,-4.0649,-4.0649,-4.066,-4.0713,-4.0713,-4.0733,-4.077,-4.0863,-4.0928,-4.095,-4.108,-4.1149,-4.1149,-4.1171,-4.1191,-4.1191,-4.1191,-4.1191,-4.1191,-4.1191,-4.1191,-4.1191,-4.1082,-4.1026,-4.0983,-4.0843,-4.0751,-4.0428,-3.8903,-3.7627,-3.6546,-3.5738,-3.5493,-3.5493,-3.5493,-3.5493,-3.5493,-3.5493,-3.4834,-3.4199,-3.4199,-3.3526,-3.2833,-3.2583,-3.2083,-3.1621,-3.1371,-3.0814,-3.0398,-3.0398,-3.0398,-3.0398,-3.0398,-3.0398,-3.0398,-3.0398,-3.0398,-3.0398,-3.0398,-3.0398,-3.0398,-3.0398,-3.0398,-3.0398,-3.0398,-3.0398,-3.0398,-3.0398,-3.0398,-3.0398,-3.0398,-3.0491,-3.0529,-3.0529,-3.0575,-3.0606,-3.0606,-3.0628,-3.0638,-3.0638,-3.0676,-3.0685,-3.0689,-3.0738,-3.0767,-3.0769,-3.0858,-3.0898,-3.0898,-3.0898,-3.0898,-3.0898,-4.0489,-4.0489,-4.0489,-4.0489,-4.0489,-4.0489,-4.0489,-4.0489,-4.0489,-4.0489,-4.0489,-4.0489,-4.0489,-4.0489,-4.0489,-4.0489,-4.0489,-4.0489,-4.0489,-4.0489,-4.0489,-4.0489,-4.0489,-4.053,-4.0623,-4.0623,-4.066,-4.0771,-4.0771,-4.0796,-4.0877,-4.0959,-4.1026,-4.108,-4.1151,-4.1191,-4.1191,-4.1191,-4.1191,-4.1191,-4.1191,-4.1191,-4.1191,-4.1191,-4.1171,-4.1105,-4.1026,-4.0944,-4.0848,-4.074,-4.0655,-4.0378,-3.8955,-3.7911,-3.7046,-3.6219,-3.5757,-3.5493,-3.5493,-3.5493,-3.5493,-3.5493,-3.5103,-3.4718,-3.4718,-3.4314,-3.3833,-3.3487,-3.3026,-3.2487,-3.1814,-3.1275,-3.0814,-3.0456,-3.0398,-3.0398,-3.0398,-3.0311,-3.0267,-3.0398,-3.0311,-3.0279,-3.0398,-3.0398,-3.0398,-3.0398,-3.0398,-3.0398,-3.0398,-3.0398,-3.0398,-3.0398,-3.0398,-3.0398,-3.0398,-3.0441,-3.0462,-3.0462,-3.0498,-3.0513,-3.0513,-3.0552,-3.0554,-3.0554,-3.0587,-3.0606,-3.0606,-3.0633,-3.0665,-3.0669,-3.0755,-3.0782,-3.0782,-3.0782,-3.081,-3.0816,-4.0489,-4.0489,-4.0489,-4.0489,-4.0489,-4.0489,-4.0489,-4.0489,-4.0489,-4.0489,-4.0489,-4.0489,-4.0489,-4.0489,-4.0489,-4.0489,-4.0489,-4.0489,-4.0489,-4.0519,-4.0519,-4.0519,-4.0515,-4.053,-4.053,-4.053,-4.061,-4.074,-4.074,-4.0843,-4.1023,-4.1023,-4.108,-4.1191,-4.1191,-4.1191,-4.1191,-4.1191,-4.1191,-4.1191,-4.1191,-4.1191,-4.1171,-4.1171,-4.1103,-4.0988,-4.0983,-4.0859,-4.0692,-4.068,-4.0557,-4.0258,-3.9527,-3.8642,-3.7738,-3.693,-3.6142,-3.5493,-3.5493,-3.5493,-3.5493,-3.5493,-3.5493,-3.5493,-3.5493,-3.5493,-3.5276,-3.4468,-3.418,-3.3622,-3.2083,-3.1679,-3.1321,-3.0501,-3.0367,-3.0355,-3.0343,-3.0122,-3.0061,-3.0299,-3.0122,-3.0075,-3.0343,-3.0398,-3.0398,-3.0398,-3.0398,-3.0398,-3.0398,-3.0398,-3.0398,-3.0398,-3.0398,-3.0398,-3.0398,-3.0398,-3.0398,-3.0398,-3.0398,-3.0398,-3.041,-3.0472,-3.0481,-3.049,-3.0567,-3.0581,-3.0581,-3.0587,-3.0594,-3.0594,-3.06,-3.0606,-3.0606,-3.0606,-3.0648,-3.069,-4.0489,-4.0489,-4.0489,-4.0489,-4.0489,-4.0489,-4.0489,-4.0489,-4.0489,-4.0489,-4.0489,-4.0489,-4.0489,-4.0489,-4.0489,-4.0489,-4.0489,-4.0489,-4.0489,-4.0596,-4.0662,-4.0662,-4.0712,-4.0723,-4.0723,-4.0723,-4.0843,-4.1097,-4.1097,-4.1103,-4.1151,-4.1151,-4.1171,-4.1191,-4.1191,-4.1191,-4.1191,-4.1191,-4.1191,-4.1191,-4.1191,-4.1149,-4.103,-4.103,-4.0959,-4.0843,-4.0771,-4.074,-4.068,-4.0588,-4.0111,-3.9527,-3.9354,-3.8238,-3.6949,-3.6757,-3.6142,-3.5493,-3.5493,-3.5493,-3.5493,-3.5493,-3.5493,-3.5493,-3.5493,-3.5493,-3.5449,-3.5257,-3.4122,-3.3064,-3.2718,-3.1564,-3.0554,-3.0142,-3.0089,-3.0032,-2.988,-2.9815,-2.9799,-2.9848,-2.9799,-2.9845,-3.0061,-3.0286,-3.0398,-3.0398,-3.0398,-3.0398,-3.0398,-3.0398,-3.0398,-3.0398,-3.0398,-3.0398,-3.0398,-3.0398,-3.0398,-3.0398,-3.0398,-3.0398,-3.041,-3.0425,-3.0417,-3.0417,-3.0449,-3.0441,-3.0451,-3.0498,-3.0513,-3.0521,-3.0581,-3.0606,-3.0606,-3.0606,-3.0617,-3.0628,-4.0489,-4.0489,-4.0489,-4.0489,-4.0489,-4.0489,-4.0489,-4.0489,-4.0489,-4.0489,-4.0489,-4.0489,-4.0489,-4.0559,-4.0604,-4.0653,-4.0633,-4.0633,-4.0633,-4.0701,-4.0742,-4.0742,-4.0788,-4.0824,-4.0883,-4.0902,-4.0959,-4.1103,-4.1103,-4.1149,-4.1191,-4.1191,-4.1191,-4.1191,-4.1191,-4.1191,-4.1191,-4.1128,-4.1149,-4.1191,-4.1055,-4.1016,-4.0992,-4.0925,-4.0836,-4.0742,-4.0707,-4.0655,-4.0582,-4.0515,-4.0219,-3.9873,-3.9873,-3.8969,-3.7853,-3.745,-3.6627,-3.5802,-3.54,-3.5207,-3.5122,-3.5122,-3.5122,-3.519,-3.5446,-3.5398,-3.5304,-3.5304,-3.448,-3.3503,-3.2718,-3.1859,-3.0956,-3.001,-2.9861,-2.9813,-2.9695,-2.9626,-2.9589,-2.9696,-2.9626,-2.9644,-2.9845,-2.9973,-3.0071,-3.0071,-3.0071,-3.0114,-3.0196,-3.0209,-3.0267,-3.0398,-3.0398,-3.0398,-3.0398,-3.0398,-3.0398,-3.0398,-3.0398,-3.0398,-3.0398,-3.0398,-3.0398,-3.0398,-3.0398,-3.0398,-3.041,-3.043,-3.0442,-3.0452,-3.05,-3.0498,-3.0498,-3.0498,-3.0521,-3.0567,-4.0489,-4.0489,-4.0489,-4.0489,-4.0489,-4.0489,-4.0489,-4.0489,-4.0489,-4.0489,-4.0519,-4.053,-4.053,-4.0642,-4.0742,-4.0793,-4.0801,-4.0801,-4.0801,-4.0816,-4.0824,-4.0824,-4.0857,-4.092,-4.1026,-4.1026,-4.1026,-4.1026,-4.1026,-4.1082,-4.1191,-4.1191,-4.1191,-4.1191,-4.1171,-4.1171,-4.1151,-4.1023,-4.1026,-4.1105,-4.0883,-4.0857,-4.0939,-4.0828,-4.0732,-4.0674,-4.0674,-4.0568,-4.0422,-4.0422,-4.0389,-4.0353,-4.0353,-3.978,-3.8955,-3.8092,-3.7077,-3.6062,-3.5245,-3.487,-3.4694,-3.4694,-3.4694,-3.4832,-3.5254,-3.519,-3.5016,-3.5016,-3.4756,-3.4015,-3.2468,-3.2072,-3.1468,-2.9888,-2.9643,-2.9625,-2.9588,-2.9435,-2.9394,-2.9551,-2.9474,-2.9474,-2.9625,-2.9678,-2.9696,-2.9696,-2.9696,-2.9763,-2.9939,-2.9954,-3.0061,-3.0323,-3.0323,-3.0355,-3.0398,-3.0398,-3.0398,-3.0398,-3.0398,-3.0398,-3.0398,-3.0398,-3.0398,-3.0398,-3.0398,-3.0398,-3.0398,-3.0398,-3.0398,-3.0398,-3.0398,-3.0398,-3.0398,-3.0398,-3.0449,-3.0481,-4.0489,-4.0489,-4.0489,-4.0489,-4.0489,-4.0489,-4.0489,-4.0489,-4.0489,-4.0489,-4.0596,-4.0667,-4.0667,-4.0742,-4.0785,-4.0801,-4.0801,-4.0801,-4.0801,-4.0914,-4.0964,-4.0964,-4.108,-4.115,-4.1171,-4.1171,-4.1171,-4.1171,-4.1171,-4.1171,-4.1191,-4.1191,-4.1191,-4.1191,-4.108,-4.1026,-4.1023,-4.0877,-4.0843,-4.0857,-4.0809,-4.079,-4.074,-4.0718,-4.063,-4.0534,-4.0534,-4.0372,-4.0158,-4.0158,-3.9963,-3.9735,-3.9735,-3.9126,-3.8272,-3.7442,-3.6627,-3.5773,-3.4981,-3.4714,-3.4694,-3.4694,-3.4694,-3.4714,-3.4793,-3.4774,-3.4754,-3.4754,-3.4128,-3.3297,-3.2374,-3.1581,-3.0716,-2.9623,-2.9434,-2.9353,-2.9115,-2.9067,-2.9067,-2.9093,-2.9289,-2.9412,-2.9434,-2.9607,-2.9696,-2.9696,-2.9696,-2.9713,-2.9748,-2.9748,-2.9829,-3.0061,-3.0042,-3.0182,-3.0398,-3.0398,-3.0398,-3.0398,-3.0398,-3.0398,-3.0398,-3.0398,-3.0398,-3.0398,-3.0398,-3.0398,-3.0398,-3.0398,-3.0398,-3.0398,-3.0398,-3.0398,-3.0398,-3.0398,-3.0421,-3.0414,-4.0668,-4.0668,-4.0668,-4.0668,-4.0668,-4.0668,-4.0668,-4.0668,-4.0668,-4.0668,-4.0722,-4.0762,-4.0762,-4.0843,-4.093,-4.1023,-4.1023,-4.1023,-4.1023,-4.108,-4.1105,-4.1105,-4.1171,-4.1191,-4.1191,-4.1191,-4.1191,-4.1191,-4.1191,-4.1191,-4.1191,-4.1191,-4.1151,-4.1082,-4.1026,-4.0959,-4.0877,-4.079,-4.0781,-4.0785,-4.069,-4.066,-4.0692,-4.0623,-4.0545,-4.0473,-4.0339,-4.0195,-4.0081,-3.988,-3.9712,-3.9599,-3.9599,-3.9354,-3.8859,-3.8011,-3.7408,-3.6723,-3.5492,-3.5016,-3.476,-3.432,-3.4208,-3.4208,-3.4208,-3.4208,-3.4255,-3.4379,-3.4004,-3.3255,-3.1976,-3.1433,-3.0887,-2.9976,-2.9843,-2.9798,-2.9677,-2.9677,-2.9512,-2.9049,-2.9112,-2.9178,-2.9178,-2.927,-2.9314,-2.9314,-2.9314,-2.9357,-2.9514,-2.9532,-2.9607,-2.9829,-2.9829,-2.9896,-3.0007,-3.0109,-3.0182,-3.0182,-3.0323,-3.0398,-3.0398,-3.0398,-3.0398,-3.0398,-3.0398,-3.0398,-3.0398,-3.0398,-3.0398,-3.0398,-3.0398,-3.0398,-3.0398,-3.0398,-3.0398,-3.0398]},{"header":{"parameterUnit":"m.s-1","parameterCategory":1,"la1":30.6,"la2":28.766,"lo1":-90.7593,"lo2":-88.6598,"dy":0.0162,"dx":0.0183,"nx":116,"ny":114,"refTime":"2024-06-06T18:00:00:Z","depth":0,"parameterNumber":3,"parameterNumberName":"V-component_of_WINDS"},"data":[0.0,0.0,0.0,0.0,0.0,0.0,0.0,0.0,0.0,0.0,0.0,0.0,0.0,0.0,0.0,0.0,0.0,0.0,0.0,0.0,0.0,0.0,0.0,0.0,0.0,0.0,0.0,0.0,0.0,0.0,0.0,0.0,0.0,0.0,0.0,0.0,0.0,0.0,0.0,0.0,0.0,0.0,0.0,0.0,0.0,0.0,0.0,0.0,0.0,0.0,0.0,0.0,0.0,0.0,0.0,0.0,0.0,0.0,0.0,0.0,0.0,0.0,0.0,0.0,0.0,0.0,0.0,0.0,0.0,0.0,0.0,0.0,0.0,0.0,0.0,0.0,0.0,0.0,0.0,0.0,0.0,0.0,0.0,0.0,0.0,0.0,0.0,0.0,0.0,0.0,0.0,0.0,0.0,0.0,0.0,0.0,0.0,0.0,0.0,0.0,0.0,0.0,0.0,0.0,0.0,0.0,0.0,0.0,0.0,0.0,0.0,0.0,0.0,0.0,0.0,0.0,0.0,0.0,0.0,0.0,0.0,0.0,0.0,0.0,0.0,0.0,0.0,0.0,0.0,0.0,0.0,0.0,0.0,0.0,0.0,0.0,0.0,0.0,0.0,0.0,0.0,0.0,0.0,0.0,0.0,0.0,0.0,0.0,0.0,0.0,0.0,0.0,0.0,0.0,0.0,0.0,0.0,0.0,0.0,0.0,0.0,0.0,0.0,0.0,0.0,0.0,0.0,0.0,0.0,0.0,0.0,0.0,0.0,0.0,0.0,0.0,0.0,0.0,0.0,0.0,0.0,0.0,0.0,0.0,0.0,0.0,0.0,0.0,0.0,0.0,0.0,0.0,0.0,0.0,0.0,0.0,0.0,0.0,0.0,0.0,0.0,0.0,0.0,0.0,0.0,0.0,0.0,0.0,0.0,0.0,0.0,0.0,0.0,0.0,0.0,0.0,0.0,0.0,0.0,0.0,0.0,0.0,0.0,0.0,0.0,0.0,0.0,0.0,0.0,0.0,0.0,0.0,0.0,0.0,0.0,0.0,0.0,0.0,0.0,0.0,0.0,0.0,0.0,0.0,0.0,0.0,0.0,0.0,0.0,0.0,0.0,0.0,0.0,0.0,0.0,0.0,0.0,0.0,0.0,0.0,0.0,0.0,0.0,0.0,0.0,0.0,0.0,0.0,0.0,0.0,0.0,0.0,0.0,0.0,0.0,0.0,0.0,0.0,0.0,0.0,0.0,0.0,0.0,0.0,0.0,0.0,0.0,0.0,0.0,0.0,0.0,0.0,0.0,0.0,0.0,0.0,0.0,0.0,0.0,0.0,0.0,0.0,0.0,0.0,0.0,0.0,0.0,0.0,0.0,0.0,0.0,0.0,0.0,0.0,0.0,0.0,0.0,0.0,0.0,0.0,0.0,0.0,0.0,0.0,0.0,0.0,0.0,0.0,0.0,0.0,0.0,0.0,0.0,0.0,0.0,0.0,0.0,0.0,0.0,0.0,0.0,0.0,0.0,0.0,0.0,0.0,0.0,0.0,0.0,0.0,0.0,0.0,0.0,0.0,0.0,0.0,0.0,0.0,0.0,0.0,0.0,0.0,0.0,0.0,0.0,0.0,0.0,0.0,0.0,0.0,0.0,0.0,0.0,0.0,0.0,0.0,0.0,0.0,0.0,0.0,0.0,0.0,0.0,0.0,0.0,0.0,0.0,0.0,0.0,0.0,0.0,0.0,0.0,0.0,0.0,0.0,0.0,0.0,0.0,0.0,0.0,0.0,0.0,0.0,0.0,0.0,0.0,0.0,0.0,0.0,0.0,0.0,0.0,0.0,0.0,0.0,0.0,0.0,0.0,0.0,0.0,0.0,0.0,0.0,0.0,0.0,0.0,0.0,0.0,0.0,0.0,0.0,0.0,0.0,0.0,0.0,0.0,0.0,0.0,0.0,0.0,0.0,0.0,0.0,0.0,0.0,0.0,0.0,0.0,0.0,0.0,0.0,0.0,0.0,0.0,0.0,0.0,0.0,0.0,0.0,0.0,0.0,0.0,0.0,0.0,0.0,0.0,0.0,0.0,0.0,0.0,0.0,0.0,0.0,0.0,0.0,0.0,0.0,0.0,0.0,0.0,0.0,0.0,0.0,0.0,0.0,0.0,0.0,0.0,0.0,0.0,0.0,0.0,0.0,0.0,0.0,0.0,0.0,0.0,0.0,0.0,0.0,0.0,0.0,0.0,0.0,0.0,0.0,0.0,0.0,0.0,0.0,0.0,0.0,0.0,0.0,0.0,0.0,0.0,0.0,0.0,0.0,0.0,0.0,0.0,0.0,0.0,0.0,0.0,0.0,0.0,0.0,0.0,0.0,0.0,0.0,0.0,0.0,0.0,0.0,0.0,0.0,0.0,0.0,0.0,0.0,0.0,0.0,0.0,0.0,0.0,0.0,0.0,0.0,0.0,0.0,0.0,0.0,0.0,0.0,0.0,0.0,0.0,0.0,0.0,0.0,0.0,0.0,0.0,0.0,0.0,0.0,0.0,0.0,0.0,0.0,0.0,0.0,0.0,0.0,0.0,0.0,0.0,0.0,0.0,0.0,0.0,0.0,0.0,0.0,0.0,0.0,0.0,0.0,0.0,0.0,0.0,0.0,0.0,0.0,0.0,0.0,0.0,0.0,0.0,0.0,0.0,0.0,0.0,0.0,0.0,0.0,0.0,0.0,0.0,0.0,0.0,0.0,0.0,0.0,0.0,0.0,0.0,0.0,0.0,0.0,0.0,0.0,0.0,0.0,0.0,0.0,0.0,0.0,0.0,0.0,0.0,0.0,0.0,0.0,0.0,0.0,0.0,0.0,0.0,0.0,0.0,0.0,0.0,0.0,0.0,0.0,0.0,0.0,0.0,0.0,0.0,0.0,0.0,0.0,0.0,0.0,0.0,0.0,0.0,0.0,0.0,0.0,0.0,0.0,0.0,0.0,0.0,0.0,0.0,0.0,0.0,0.0,0.0,0.0,0.0,0.0,0.0,0.0,0.0,0.0,0.0,0.0,0.0,0.0,0.0,0.0,0.0,0.0,0.0,0.0,0.0,0.0,0.0,0.0,0.0,0.0,0.0,0.0,0.0,0.0,0.0,0.0,0.0,0.0,0.0,0.0,0.0,0.0,0.0,0.0,0.0,0.0,0.0,0.0,0.0,0.0,0.0,0.0,0.0,0.0,0.0,0.0,0.0,0.0,0.0,0.0,0.0,0.0,0.0,0.0,0.0,0.0,0.0,0.0,0.0,0.0,0.0,0.0,0.0,0.0,0.0,0.0,0.0,0.0,0.0,0.0,0.0,0.0,0.0,0.0,0.0,0.0,0.0,0.0,0.0,0.0,0.0,0.0,0.0,0.0,0.0,0.0,0.0,0.0,0.0,0.0,0.0,0.0,0.0,0.0,0.0,0.0,0.0,0.0,0.0,0.0,0.0,0.0,0.0,0.0,0.0,0.0,0.0,0.0,0.0,0.0,0.0,0.0,0.0,0.0,0.0,0.0,0.0,0.0,0.0,0.0,0.0,0.0,0.0,0.0,0.0,0.0,0.0,0.0,0.0,0.0,0.0,0.0,0.0,0.0,0.0,0.0,0.0,0.0,0.0,0.0,0.0,0.0,0.0,0.0,0.0,0.0,0.0,0.0,0.0,0.0,0.0,0.0,0.0,0.0,0.0,0.0,0.0,0.0,0.0,0.0,0.0,0.0,0.0,0.0,0.0,0.0,0.0,0.0,0.0,0.0,0.0,0.0,0.0,0.0,0.0,0.0,0.0,0.0,0.0,0.0,0.0,0.0,0.0,0.0,0.0,0.0,0.0,0.0,0.0,0.0,0.0,0.0,0.0,0.0,0.0,0.0,0.0,0.0,0.0,0.0,0.0,0.0,0.0,0.0,0.0,0.0,0.0,0.0,0.0,0.0,0.0,0.0,0.0,0.0,0.0,0.0,0.0,0.0,0.0,0.0,0.0,0.0,0.0,0.0,0.0,0.0,0.0,0.0,0.0,0.0,0.0,0.0,0.0,0.0,0.0,0.0,0.0,0.0,0.0,0.0,0.0,0.0,0.0,0.0,0.0,0.0,0.0,0.0,0.0,0.0,0.0,0.0,0.0,0.0,0.0,0.0,0.0,0.0,0.0,0.0,0.0,0.0,0.0,0.0,0.0,0.0,0.0,0.0,0.0,0.0,0.0,0.0,0.0,0.0,0.0,0.0,0.0,0.0,0.0,0.0,0.0,0.0,0.0,0.0,0.0,0.0,0.0,0.0,0.0,0.0,0.0,0.0,0.0,0.0,0.0,0.0,0.0,0.0,0.0,0.0,0.0,0.0,0.0,0.0,0.0,0.0,0.0,0.0,0.0,0.0,0.0,0.0,0.0,0.0,0.0,0.0,0.0,0.0,0.0,0.0,0.0,0.0,0.0,0.0,0.0,0.0,0.0,0.0,0.0,0.0,0.0,0.0,0.0,0.0,0.0,0.0,0.0,0.0,0.0,0.0,0.0,0.0,0.0,0.0,0.0,0.0,0.0,0.0,0.0,0.0,0.0,0.0,0.0,0.0,0.0,0.0,0.0,0.0,0.0,0.0,0.0,0.0,0.0,0.0,0.0,0.0,0.0,0.0,0.0,0.0,0.0,0.0,0.0,0.0,0.0,0.0,0.0,0.0,0.0,0.0,0.0,0.0,0.0,0.0,0.0,0.0,0.0,0.0,0.0,0.0,0.0,0.0,0.0,0.0,0.0,0.0,0.0,0.0,0.0,0.0,0.0,0.0,0.0,0.0,0.0,0.0,0.0,0.0,0.0,0.0,0.0,0.0,0.0,0.0,0.0,0.0,0.0,0.0,0.0,0.0,0.0,0.0,0.0,0.0,0.0,0.0,0.0,0.0,0.0,0.0,0.0,0.0,0.0,0.0,0.0,0.0,0.0,0.0,0.0,0.0,0.0,0.0,0.0,0.0,0.0,0.0,0.0,0.0,0.0,0.0,0.0,0.0,0.0,0.0,0.0,0.0,0.0,0.0,0.0,0.0,0.0,0.0,0.0,0.0,0.0,0.0,0.0,0.0,0.0,0.0,0.0,0.0,0.0,0.0,0.0,0.0,0.0,0.0,0.0,0.0,0.0,0.0,0.0,0.0,0.0,0.0,0.0,0.0,0.0,0.0,0.0,0.0,0.0,0.0,0.0,0.0,0.0,0.0,0.0,0.0,0.0,0.0,0.0,0.0,0.0,0.0,0.0,0.0,0.0,0.0,0.0,0.0,0.0,0.0,0.0,0.0,0.0,0.0,0.0,0.0,0.0,0.0,0.0,0.0,0.0,0.0,0.0,0.0,0.0,0.0,0.0,0.0,0.0,0.0,0.0,0.0,0.0,0.0,0.0,0.0,0.0,0.0,0.0,0.0,0.0,0.0,0.0,0.0,0.0,0.0,0.0,0.0,0.0,0.0,0.0,0.0,0.0,0.0,0.0,0.0,0.0,0.0,0.0,0.0,0.0,0.0,0.0,0.0,0.0,0.0,0.0,0.0,0.0,0.0,0.0,0.0,0.0,0.0,0.0,0.0,0.0,0.0,0.0,0.0,0.0,0.0,0.0,0.0,0.0,0.0,0.0,0.0,0.0,0.0,0.0,0.0,0.0,0.0,0.0,0.0,0.0,0.0,0.0,0.0,0.0,0.0,0.0,0.0,0.0,0.0,0.0,0.0,0.0,0.0,0.0,0.0,0.0,0.0,0.0,0.0,0.0,0.0,0.0,0.0,0.0,0.0,0.0,0.0,0.0,0.0,0.0,0.0,0.0,0.0,0.0,0.0,0.0,0.0,0.0,0.0,0.0,0.0,0.0,0.0,0.0,0.0,0.0,0.0,0.0,0.0,0.0,0.0,0.0,0.0,0.0,0.0,0.0,0.0,0.0,0.0,0.0,0.0,0.0,0.0,0.0,0.0,0.0,0.0,0.0,0.0,0.0,0.0,0.0,0.0,0.0,0.0,0.0,0.0,0.0,0.0,0.0,0.0,0.0,0.0,0.0,0.0,0.0,0.0,0.0,0.0,0.0,0.0,0.0,0.0,0.0,0.0,0.0,0.0,-1.3941,0.0,0.0,0.0,0.0,0.0,0.0,0.0,0.0,0.0,0.0,0.0,0.0,0.0,0.0,0.0,0.0,0.0,0.0,0.0,0.0,0.0,0.0,0.0,0.0,-1.9645,-2.0755,-2.1845,-2.2298,-2.25,-2.25,0.0,0.0,0.0,0.0,0.0,-1.9286,-1.8989,-1.9232,-1.9968,-2.2053,-1.953,-1.2465,0.1078,0.897,1.1744,0.0,0.0,0.0,0.0,0.0,0.0,0.0,0.0,0.0,0.0,0.0,0.0,0.0,0.0,0.0,0.0,0.0,0.0,0.0,0.0,0.0,0.0,0.0,0.0,0.0,0.0,0.0,0.0,0.0,0.0,0.0,0.0,0.0,0.0,0.0,0.0,0.0,0.0,0.0,0.0,0.0,0.0,0.0,0.0,0.0,0.0,0.0,0.0,0.0,0.0,0.0,0.0,0.0,0.0,0.0,0.0,0.0,0.0,0.0,0.0,0.0,0.0,0.0,0.0,0.0,0.0,0.0,0.0,0.0,0.0,0.0,-1.4541,0.0,0.0,0.0,0.0,0.0,0.0,0.0,0.0,0.0,0.0,0.0,0.0,0.0,0.0,0.0,0.0,0.0,0.0,0.0,0.0,0.0,-1.6338,-1.8882,-1.9963,-2.1011,-2.2324,-2.2652,-2.2797,-2.2797,-2.3076,0.0,0.0,0.0,-2.1907,-2.1194,-2.0739,-2.1746,-2.4276,-2.85,-2.5378,-1.4974,0.4234,1.4513,1.6739,1.3124,0.0,0.0,0.0,0.0,0.0,0.0,0.0,0.0,0.0,0.0,0.0,0.0,0.0,0.0,0.0,0.0,0.0,0.0,0.0,0.0,0.0,0.0,0.0,0.0,0.0,0.0,0.0,0.0,0.0,0.0,0.0,0.0,0.0,0.0,0.0,0.0,0.0,0.0,0.0,0.0,0.0,0.0,0.0,0.0,0.0,0.0,0.0,0.0,0.0,0.0,0.0,0.0,0.0,0.0,0.0,0.0,0.0,0.0,0.0,0.0,0.0,0.0,0.0,-1.7891,-1.79,-1.7422,-1.7852,-1.8008,-1.7881,-1.6787,-1.6299,-1.6201,-1.5059,0.0,0.0,0.0,0.0,0.0,0.0,0.0,0.0,0.0,0.0,0.0,0.0,0.0,0.0,0.0,0.0,0.0,0.0,0.0,-1.8166,-1.9698,-2.1361,-2.2538,-2.3045,-2.3117,-2.3141,-2.3141,-2.333,0.0,0.0,-2.2775,-2.28,-2.2634,-2.2556,-2.2805,-2.3362,-2.7433,-2.4606,-1.5097,-0.1773,1.3877,3.0395,2.1852,1.8608,1.9399,0.0,0.0,0.0,0.0,0.0,0.0,0.0,0.0,0.0,0.0,0.0,0.0,0.0,0.0,0.0,0.0,0.0,0.0,0.0,0.0,0.0,0.0,0.0,0.0,0.0,0.0,0.0,0.0,0.0,0.0,0.0,0.0,0.0,0.0,0.0,0.0,0.0,0.0,0.0,0.0,0.0,-0.896,-0.9929,0.0,0.0,0.0,0.0,0.0,0.0,0.0,0.0,0.0,0.0,0.0,0.0,0.0,-1.7803,-1.8291,-1.9473,-1.9873,-1.9512,-2.0713,-2.0859,-2.0078,-2.0518,-2.0518,-2.0137,-1.9961,0.0,-1.7168,-1.6621,0.0,0.0,0.0,0.0,0.0,0.0,0.0,0.0,0.0,0.0,0.0,0.0,0.0,0.0,0.0,0.0,0.0,0.0,0.0,0.0,0.0,-2.1952,-2.3259,-2.3824,-2.4757,-2.5131,-2.4644,-2.4577,-2.4238,-2.3454,-2.3234,-2.3007,-2.2796,-2.372,-2.5184,-2.7267,-2.7356,-2.4075,-1.7423,-0.4284,1.0033,2.4606,2.1179,2.0737,2.2495,2.0594,0.0,0.0,0.0,0.0,0.0,0.0,0.0,0.0,0.0,0.0,0.0,0.0,0.0,0.0,0.0,0.0,0.0,0.0,0.0,0.0,0.0,0.0,0.0,0.0,0.0,0.0,0.0,0.0,0.0,0.0,0.0,0.0,0.0,0.0,0.0,0.0,0.0,0.0,0.0,-0.8974,-0.9583,-0.9918,-0.9799,-0.9891,0.0,0.0,0.0,0.0,0.0,0.0,0.0,0.0,0.0,-1.6741,-1.8521,-1.9658,-2.0088,-2.0898,-2.1211,-2.1035,-2.1846,-2.1914,-2.1318,-2.1758,-2.1719,-2.1309,-2.1309,-2.0781,-1.9805,-1.8389,-1.7619,-1.7387,0.0,0.0,0.0,0.0,-2.0635,-2.1004,0.0,0.0,0.0,0.0,0.0,0.0,0.0,0.0,0.0,0.0,0.0,0.0,-2.113,-2.3108,-2.4505,-2.5141,-2.6591,-2.7083,-2.618,-2.5781,-2.5196,-2.4374,-2.3649,-2.3106,-2.2721,-2.4406,-2.6557,-2.9146,-2.7415,-2.4474,-2.0138,-0.6683,0.5786,1.7027,1.9696,2.2699,2.5597,2.3575,2.1686,0.0,0.0,0.0,0.0,0.0,0.0,0.0,0.0,0.0,0.0,0.0,0.0,0.0,0.0,0.0,0.0,0.0,0.0,0.0,0.0,0.0,0.0,0.0,0.0,0.0,0.0,0.0,0.0,0.0,0.0,0.0,0.0,0.0,0.0,0.0,0.0,0.0,0.0,-0.9681,-1.0151,-0.9865,-1.0247,-1.0483,0.0,0.0,0.0,0.0,0.0,0.0,-1.4723,-1.5732,-1.6954,-1.8476,-1.9874,-2.0889,-2.1562,-2.1992,-2.2207,-2.2207,-2.2519,-2.251,-2.2217,-2.2529,-2.25,-2.2207,-2.2207,-2.2148,-2.1904,-2.0351,-1.9657,-1.9594,-2.0072,-2.0315,-2.0677,-2.2157,-2.2736,-2.2887,0.0,0.0,0.0,0.0,0.0,0.0,0.0,0.0,0.0,0.0,0.0,-2.0726,-2.3348,-2.5552,-2.6962,-2.7301,-2.8172,-2.8307,0.0,0.0,-2.5833,-2.526,-2.4096,-2.3244,-2.2721,-2.4586,-2.5615,-2.5746,-2.7405,-2.6385,-2.2656,-1.0288,0.209,1.4199,2.0716,2.5956,2.9646,2.5874,2.4837,2.5348,0.0,0.0,0.0,0.0,0.0,0.0,0.0,0.0,0.0,0.0,0.0,0.0,0.0,0.0,0.0,0.0,0.0,0.0,0.0,0.0,0.0,0.0,0.0,0.0,0.0,0.0,0.0,0.0,0.0,0.0,0.0,0.0,0.0,0.0,0.0,0.0,0.0,0.0,0.0,-1.0134,-1.1089,0.0,0.0,0.0,0.0,-1.3107,-1.2663,-1.2777,-1.3608,-1.4953,-1.6425,-1.7987,-1.9795,-2.1256,-2.2441,-2.2861,-2.3076,-2.3076,-2.3096,-2.3096,-2.3076,-2.3096,-2.3096,-2.3076,-2.3076,-2.2852,-2.2487,-2.2628,-2.2145,-2.1415,-2.273,-2.2738,-2.2039,-2.3443,-2.3916,-2.4004,0.0,0.0,0.0,0.0,0.0,0.2301,-0.3923,-0.6594,-0.9895,-1.5443,-1.8432,-2.0898,0.0,-2.566,-2.7415,-2.8148,-2.9165,-2.9422,-2.8604,0.0,-2.6395,-2.5901,-2.4721,-2.4697,-2.6018,-2.6926,-2.7658,-2.8198,-2.8751,-2.612,-2.0448,-1.3736,-0.3727,0.8784,1.3148,1.9521,2.6939,2.7219,2.7148,2.6544,2.3578,2.0668,0.0,0.0,0.0,0.0,0.0,0.0,0.0,0.0,0.0,0.0,0.0,0.0,0.0,0.0,0.0,0.0,0.0,0.0,0.0,0.0,0.0,0.0,0.0,0.0,0.0,0.0,0.0,0.0,0.0,0.0,0.0,0.0,0.0,0.0,0.0,0.0,0.0,-1.1565,-1.2238,0.0,-1.2797,-1.3414,-1.3775,-1.3815,-1.4332,-1.5004,-1.5828,-1.7187,-1.8539,-2.0044,-2.1493,-2.2457,-2.291,-2.3066,-2.3135,-2.3135,-2.3135,-2.3135,-2.3135,-2.3135,-2.3135,-2.3135,-2.3135,-2.3057,-2.2967,-2.3794,-2.3134,-2.1906,-2.3375,-2.3701,-2.357,-2.5074,-2.5586,-2.5611,0.0,0.0,0.0,0.0,0.542,0.2631,-0.2078,-0.5695,-0.9711,-1.4763,-1.8514,-2.1692,-2.4279,-2.6783,-2.8521,-2.912,-3.0131,-3.0278,-2.9198,-2.7846,-2.6748,-2.6057,-2.5366,-2.5816,-2.7672,-2.8224,-2.8761,-2.9218,-2.9356,-2.6297,-2.0299,-1.6067,-0.8043,0.2968,0.8061,1.5087,2.3335,2.6118,2.7442,2.7496,2.5361,2.3222,2.0931,0.0,0.0,0.0,0.0,0.0,0.0,0.0,0.0,0.0,0.0,0.0,0.0,0.0,0.0,0.0,0.0,0.0,0.0,0.0,0.0,0.0,0.0,0.0,0.0,0.0,0.0,0.0,0.0,0.0,0.0,0.0,0.0,0.0,0.0,0.0,-1.2834,-1.2493,-1.3247,-1.3728,-1.3527,-1.442,-1.4951,-1.4589,-1.5297,-1.6063,-1.667,-1.7515,-1.8789,-2.0657,-2.1489,-2.2315,-2.3047,-2.3135,-2.3135,-2.3135,-2.3135,-2.3135,-2.3135,-2.3135,-2.3135,-2.3135,-2.3135,-2.3135,-2.3135,-2.3877,-2.3458,-2.2508,-2.448,-2.5344,-2.5608,-2.6692,-2.6904,-2.6716,0.0,0.0,0.0,0.7272,0.5299,0.2655,-0.1294,-0.5287,-0.9777,-1.5114,-1.9463,-2.3284,-2.6627,-2.9016,-3.0346,-3.0319,-3.1054,-3.0823,-2.9169,-2.7985,-2.6887,-2.5814,-2.6051,-2.6611,-2.7434,-2.834,-2.8677,-2.8366,-2.9099,-2.722,-2.2761,-1.7277,-1.0637,-0.2895,0.6213,1.3613,1.9497,2.2546,2.5646,2.8421,2.6935,2.5588,2.4206,0.0,0.0,0.0,0.0,0.0,0.0,0.0,0.0,0.0,0.0,0.0,0.0,0.0,0.0,0.0,0.0,0.0,0.0,0.0,0.0,0.0,0.0,0.0,0.0,0.0,0.0,0.0,0.0,0.0,0.0,0.0,0.0,0.0,-1.2498,-1.3367,-1.383,-1.2979,-1.4179,-1.4756,-1.4195,-1.4656,-1.511,-1.5391,-1.5411,-1.5531,-1.5812,-1.5825,-1.7023,-1.9405,-1.9497,-2.0674,-2.3047,-2.3047,-2.3047,-2.3135,-2.3135,-2.3135,-2.3135,-2.3135,-2.3135,-2.3135,-2.3135,-2.3135,-2.3135,-2.3135,-2.3135,-2.3424,-2.6142,-2.756,-2.8049,-2.8109,-2.777,-2.7231,0.0,0.0,0.9692,0.8486,0.6812,0.4437,0.0937,-0.3899,-0.8858,-1.3572,-1.9304,-2.3852,-2.6231,-2.8391,-2.9901,-3.0553,-3.0009,-2.9773,-3.0068,0.0,-2.6647,-2.72,-2.8315,-2.9486,-3.0677,-3.0968,-3.0784,-3.0216,-3.0375,-2.8677,-2.5064,-1.8003,-1.156,-0.5426,0.4793,1.22,1.7203,2.0198,2.3834,2.7573,2.7246,2.6843,2.6138,0.0,0.0,0.0,0.0,0.0,0.0,0.0,0.0,0.0,0.0,0.0,0.0,0.0,0.0,0.0,0.0,0.0,0.0,0.0,0.0,0.0,0.0,0.0,0.0,0.0,0.0,0.0,0.0,0.0,0.0,0.0,-1.3058,-1.4953,-1.3748,-1.4156,-1.4479,-1.4374,-1.4903,-1.5297,-1.5344,-1.5498,-1.5625,-1.5705,-1.5712,-1.5745,-1.5825,-1.6669,-1.7863,-1.9488,-1.9497,-2.0674,-2.3047,-2.2217,-2.2217,-2.3135,-2.3135,-2.3135,-2.3135,-2.3135,-2.3135,-2.3135,-2.3135,-2.3135,-2.3135,-2.3135,-2.3551,-2.4416,-2.5577,-2.6188,-2.6418,-2.7619,-2.8009,-2.7858,0.0,1.0934,0.9968,0.93,0.7752,0.5631,0.2805,-0.1569,-0.6535,-1.1904,-1.7346,-2.1987,-2.5278,-2.7247,-2.8602,-2.9186,-2.8992,-2.8826,-2.8759,-2.7357,-2.7112,-2.8405,-2.9939,-3.1164,-3.1993,-3.2068,-3.1817,-3.1175,-3.098,-2.934,-2.628,-1.9894,-1.401,-0.83,0.2339,0.9738,1.4529,1.9392,2.3699,2.7259,2.7668,2.7849,2.7516,2.4457,2.2267,2.0423,1.7534,1.5584,1.3993,1.1846,0.0,0.0,0.0,0.0,0.0,0.0,0.0,0.0,0.0,0.0,0.0,0.0,0.0,0.0,0.0,0.0,0.0,0.0,0.0,0.0,0.0,0.0,0.0,0.0,-1.4298,-1.5278,-1.4889,-1.5014,-1.5123,-1.5174,-1.5398,-1.5645,-1.5812,-1.5832,-1.5832,-1.5832,-1.5832,-1.5832,-1.5832,-1.648,-1.749,-1.868,-1.8772,-1.9861,-2.2306,-2.1658,-2.1933,-2.3135,-2.3135,-2.3135,-2.3135,-2.3135,-2.3135,0.0,-2.3135,-2.3135,-2.3135,-2.3135,-2.38,0.0,0.0,0.0,0.0,0.0,-2.8448,-2.8411,0.0,1.1062,1.0168,0.9818,0.839,0.6558,0.4384,0.0999,-0.3715,-1.0518,0.0,-1.9203,-2.4156,-2.6041,-2.7028,-2.7195,-2.8127,-2.8095,0.0,0.0,-2.8357,-2.9619,-3.115,-3.2051,-3.2195,-3.2478,-3.2396,-3.1917,-3.1528,-2.9946,-2.721,-2.2443,-1.7144,-1.1198,-0.035,0.7136,1.2047,1.923,2.4092,2.7115,2.8029,2.8512,2.8486,2.6131,2.3732,2.1293,1.8683,1.6356,1.435,1.3659,0.0,0.0,0.0,0.0,0.0,0.0,0.0,0.0,0.0,0.0,0.0,0.0,0.0,0.0,0.0,0.0,0.0,0.0,0.0,0.0,0.0,0.0,0.0,0.0,-1.5368,-1.5241,-1.5762,-1.5819,-1.5679,-1.551,-1.5671,-1.5832,-1.5832,-1.5832,-1.5832,-1.5832,-1.5832,-1.5845,-1.5879,0.0,0.0,0.0,0.0,-1.868,-2.1114,-2.0935,-2.1578,-2.2862,-2.2862,-2.296,-2.3135,-2.3135,-2.3135,-2.3135,-2.3135,-2.3135,-2.3135,-2.3135,-2.38,-2.4957,-2.6224,-2.7371,-2.8366,-2.8795,-2.9026,-2.895,0.0,1.1042,1.055,1.0159,0.9503,0.8102,0.5354,0.1789,-0.3178,-1.0443,-1.5254,-1.9707,-2.4126,-2.6176,-2.7253,-2.7286,-2.7819,-2.8195,0.0,0.0,-3.0978,-3.132,-3.2458,-3.3183,-3.3451,-3.4136,-3.4268,-3.3866,-3.3969,-3.2784,-3.0287,-2.3943,-1.8272,-1.2833,-0.083,0.7136,1.1971,1.7812,2.2535,2.6169,2.7072,2.8268,2.9286,2.7486,2.5692,2.376,2.0501,1.9057,1.8427,1.7105,1.5566,1.3669,1.1086,0.0,0.0,0.0,0.0,0.0,0.0,0.0,0.0,0.0,0.0,0.0,0.0,0.0,0.0,0.0,0.0,0.0,0.0,0.0,0.0,-1.4653,-1.5412,-1.5679,-1.5752,-1.5765,-1.5785,-1.5738,-1.5798,-1.5832,-1.5832,-1.5832,-1.5832,-1.5832,-1.5832,-1.5932,-1.6172,-1.5959,-1.6497,-1.7978,-1.6795,-1.739,-1.9852,-1.8864,-1.9497,-2.1667,0.0,0.0,-2.3135,-2.3135,-2.3135,-2.3135,-2.3135,-2.3135,-2.3135,-2.3135,-2.38,-2.5041,-2.7023,-2.8518,-2.9521,-2.9589,-2.9628,-2.9616,1.1327,1.0922,1.0528,1.03,1.0191,0.9243,0.6579,0.4222,0.0041,-0.7513,-1.1914,-1.636,-2.1611,-2.3791,-2.506,-2.5612,-2.6556,0.0,0.0,-3.0743,-3.1835,-3.2572,-3.3374,-3.3808,-3.3788,-3.4596,-3.4887,-3.4695,-3.4771,-3.3865,-3.1976,-2.6395,-2.0381,-1.3921,-0.5105,0.2863,1.0143,1.7134,2.2598,2.6649,2.8465,2.9729,3.0196,2.8027,2.5849,2.3767,2.203,2.076,1.9248,1.5381,1.3597,1.2724,1.1135,0.8999,0.6479,0.0,0.0,0.0,0.0,0.0,0.0,0.0,0.0,0.0,0.0,0.0,0.0,0.0,0.0,-0.7571,-0.7528,0.0,-1.2087,-1.3831,-1.4275,-1.4825,-1.5685,-1.5259,-1.5051,-1.573,-1.5832,-1.5832,-1.5832,-1.5832,-1.5832,-1.5832,-1.5832,-1.5959,-1.6259,-1.6132,-1.6402,-1.7126,-1.6409,-1.6911,-1.8596,-1.7956,-1.8956,-2.1293,-2.1293,-2.1933,-2.3135,-2.3135,-2.3135,-2.3135,-2.3135,-2.3135,-2.3135,-2.3714,-2.4296,-2.5041,-2.7267,-2.8426,-2.9028,-2.9624,-2.9792,-2.9792,1.1394,1.1,1.0637,1.0621,1.0732,1.0079,0.7853,0.6521,0.3162,-0.4055,-0.808,-1.2478,-1.8119,-2.0837,-2.277,0.0,0.0,0.0,0.0,-3.1081,-3.2188,-3.3677,-3.4027,-3.4099,-3.3876,-3.4623,-3.5036,-3.5096,-3.4909,-3.4164,-3.2908,-2.8464,-2.2604,-1.5489,-0.9581,-0.131,0.8754,1.6729,2.2564,2.6653,2.989,3.0577,2.931,2.6471,2.4023,2.2097,2.2101,2.0339,1.7144,1.1473,0.9585,0.9606,0.9568,0.7691,0.5294,0.4816,0.2429,0.0,0.0,0.0,0.0,0.0,0.0,0.0,0.0,-0.3287,-0.632,-0.643,-0.7215,-0.791,-0.8014,-0.9717,-1.1557,-1.2731,-1.2908,-1.3531,-1.521,-1.4561,-1.4268,-1.5337,-1.5635,-1.5832,-1.5832,-1.5832,-1.5832,-1.5832,-1.5832,-1.5959,-1.6259,-1.6273,-1.6299,-1.6359,-1.6299,-1.6636,-1.7413,-1.7347,-1.8588,-2.0935,-2.0935,-2.1667,-2.3135,-2.3135,-2.3135,-2.3135,-2.3135,-2.3135,-2.3135,-2.4125,-2.4457,-2.4702,-2.6942,-2.7763,-2.7936,-2.9287,-2.9792,-2.9792,0.0,1.1608,1.1615,1.1775,1.132,1.047,0.915,0.6828,0.3259,-0.2077,-0.6754,-1.1002,-1.4623,-1.8905,-2.2545,0.0,0.0,0.0,-3.1102,-3.1939,-3.3127,-3.4824,-3.4454,-3.4195,-3.4171,-3.4694,-3.5148,-3.5435,-3.5009,-3.4324,-3.3234,-2.8601,-2.384,-1.8795,-1.0605,-0.0587,1.0358,1.595,2.0353,2.4012,2.9154,2.831,2.3637,2.0287,1.8862,1.8564,1.8563,1.5557,1.1067,0.7239,0.596,0.598,0.5958,0.5712,0.5398,0.5301,0.2808,0.0586,0.3285,0.2019,0.0,0.0,-0.0332,-0.055,0.0,-0.3265,-0.6461,-0.6892,-0.7375,-0.7735,-0.7941,-0.9132,-1.04,-1.1701,-1.1975,-1.2496,-1.3872,-1.3974,-1.3974,-1.407,-1.514,-1.5832,-1.5832,-1.5832,-1.5832,-1.5832,-1.5832,-1.5959,-1.6259,-1.6273,-1.6393,-1.6647,-1.6406,-1.6357,-1.6413,-1.615,-1.7203,-1.967,-1.967,-2.0854,-2.3135,-2.3135,-2.3135,-2.3135,-2.3135,-2.3135,-2.3135,-2.3222,-2.3309,-2.3551,-2.5808,-2.6637,-2.6964,-2.904,-2.9792,-2.9792,0.0,1.2334,1.2648,1.2846,1.2051,1.1101,1.0378,0.845,0.5408,0.0714,-0.3934,-0.8514,-1.2926,-1.8077,-2.2024,-2.3994,0.0,0.0,-2.9642,-3.1473,-3.3048,-3.4285,-3.4451,-3.4508,-3.4508,-3.5156,-3.5377,-3.5089,-3.561,-3.5082,-3.3582,-3.1512,-2.8057,-2.3183,-1.7445,-0.7744,0.5146,1.7615,2.4819,2.8032,3.0273,2.797,2.2924,2.1485,1.9083,1.6488,1.6514,1.2624,0.0,0.0,0.487,0.4958,0.5297,0.5373,0.5432,0.543,0.2851,0.0303,0.1569,0.2213,0.2224,0.0418,0.0,-0.0749,-0.3512,-0.5459,-0.6798,-0.7055,-0.7371,-0.771,-0.778,-0.8981,-1.0074,-1.0651,-1.0724,-1.1263,-1.2522,-1.2134,-1.2226,-1.368,-1.3686,-1.4178,-1.5635,-1.5832,-1.5832,-1.5832,-1.5832,-1.5959,-1.6259,-1.6273,-1.6406,-1.6693,-1.6426,-1.6273,-1.6273,-1.5979,-1.6655,-1.8411,-1.8411,-1.9679,-2.2031,-2.2031,-2.2403,-2.3135,-2.3135,-2.3135,-2.3135,-2.3135,-2.3135,-2.3222,-2.4882,-2.5546,-2.588,-2.8712,-2.9792,-2.9792,0.0,1.2903,1.326,1.3464,1.2724,1.1895,1.1302,0.9676,0.7135,0.3282,-0.1546,-0.7051,-1.3409,-1.816,-2.1516,-2.2951,-2.5142,0.0,0.0,-3.0633,-3.2489,-3.3754,-3.4377,-3.4772,-3.4926,-3.5358,-3.531,-3.477,-3.5235,-3.4958,-3.4024,-3.2949,-3.0683,-2.7347,-2.2671,-1.0783,0.6533,1.9896,2.7765,3.1212,3.1185,2.7965,2.3004,2.2046,1.9083,1.5413,1.5378,1.0974,0.0,0.0,0.4521,0.4546,0.4984,0.5147,0.4989,0.4131,0.203,0.0,0.0,0.1623,0.2717,0.0512,0.0,-0.0884,-0.4365,-0.5653,-0.6294,-0.6947,-0.7041,-0.7076,-0.7496,-0.8568,-0.9531,-0.9922,-0.9674,-0.9899,-1.117,-1.0583,-1.0676,-1.2619,-1.2237,-1.2624,-1.4567,-1.5051,-1.5439,-1.5737,-1.5832,-1.5925,-1.6139,-1.6226,-1.6373,-1.658,-1.638,-1.6273,-1.6273,-1.5979,-1.648,-1.7692,-1.7692,-1.8772,-2.0845,-2.1114,-2.1943,-2.3135,-2.3135,-2.3135,-2.3135,-2.3135,-2.3135,-2.3222,-2.4372,-2.4787,-2.5126,-2.7879,-2.9118,-2.9365,0.0,0.0,1.326,1.3464,1.3233,1.2785,1.1909,0.9897,0.7666,0.5303,-0.0198,-0.7404,-1.6549,-1.9338,-2.1116,-2.26,-2.4506,-2.6353,-2.8015,-2.9585,-3.1446,-3.3692,-3.4371,-3.4946,-3.5467,-3.4983,-3.4749,-3.4696,-3.3314,-3.3336,-3.46,-3.1143,-3.0162,-3.1005,-2.3779,-0.5457,2.0132,2.225,2.6293,3.1213,3.1221,2.7927,2.272,1.9389,1.7019,1.5391,1.5421,0.0,0.0,0.4512,0.4516,0.452,0.4533,0.4511,0.396,0.1018,0.0065,0.0,0.0,0.0068,0.0146,0.0,0.0,0.0,-0.0172,-0.2018,-0.4393,-0.6612,-0.6087,-0.5655,-0.7095,-0.762,-0.8297,-0.9627,-0.8815,-0.8531,-0.9899,-0.9998,-0.9998,-1.0096,-1.1165,-1.1945,0.0,-1.3199,-1.4459,-1.573,-1.5832,-1.5832,-1.5845,-1.6119,-1.6279,-1.6286,-1.6279,-1.6273,-1.6273,-1.5979,-1.648,-1.7692,-1.7692,-1.8319,-1.9579,-2.0755,-2.1943,-2.3135,-2.3135,-2.3135,-2.3135,-2.3135,-2.3135,-2.3222,-2.4372,-2.4787,-2.4957,-2.6141,-2.729,-2.8335,0.0,0.0,0.0,1.3776,1.3891,1.3537,1.2018,1.0548,0.8551,0.5507,-0.1422,0.0,0.0,0.0,0.0,0.0,-2.4088,-2.5544,-2.6393,-2.8925,-3.0753,-3.1501,-3.3911,-3.532,-3.5508,-3.532,-3.5242,-3.523,-3.471,-3.3768,-3.2307,-2.9531,-2.1884,-1.0516,-0.8047,0.2651,1.9053,2.1917,2.4151,2.6133,2.9763,2.7933,2.2622,1.801,1.5899,1.4782,0.0,0.0,0.0,0.4524,0.4482,0.4482,0.4495,0.3142,0.1338,0.0307,0.0,0.0528,0.2908,0.183,0.0,0.0,0.0,0.0,0.0,-0.1423,-0.3301,-0.5046,-0.5361,-0.5697,-0.7011,-0.7417,-0.7768,-0.835,-0.8143,-0.8021,-0.8612,-0.8627,-0.9019,-0.9903,-0.9608,0.0,0.0,0.0,0.0,-1.4555,-1.5343,-1.5832,-1.5832,-1.5925,-1.6072,-1.6266,-1.6079,-1.6072,-1.6273,-1.5979,-1.6015,-1.648,-1.7318,-1.8319,-1.9588,-2.0755,-2.1943,-2.3135,-2.3135,-2.3135,-2.3135,-2.3135,-2.3135,-2.3135,-2.3551,-2.3637,-2.38,-2.4967,-2.6047,-2.7209,0.0,0.0,0.0,0.0,0.0,0.0,0.0,0.0,0.0,0.0,0.0,0.0,0.0,0.0,0.0,0.0,0.0,-2.4413,-2.5331,0.0,-2.9125,-3.0349,-3.2513,-3.3679,-3.3686,-3.4995,-3.5624,-3.5494,-3.5093,-3.3619,-3.1162,-2.8712,-1.7709,0.0249,0.5807,1.19,1.8238,2.1625,2.3114,2.3471,2.7773,2.6469,2.1424,1.7063,1.3934,0.0,0.0,0.0,0.4501,0.4473,0.4519,0.4473,0.4485,0.2423,0.0,0.0,0.0916,0.2125,0.3167,0.1785,0.0,0.0,0.0,0.0,0.0,-0.0802,-0.1941,-0.3295,-0.3886,-0.4583,-0.6097,-0.653,-0.6882,-0.7597,-0.7699,-0.7807,-0.8011,-0.8038,-0.8333,-0.9217,-0.8531,-0.8627,-1.0386,0.0,0.0,-1.3872,-1.5045,-1.5832,-1.5832,-1.5925,-1.6079,-1.6266,-1.6086,-1.6079,-1.6273,-1.5979,-1.5832,-1.5832,-1.6669,-1.7855,-1.9497,-2.0305,-2.1578,-2.3135,-2.3135,-2.3135,-2.3135,-2.3135,-2.3135,-2.3135,-2.3135,-2.3135,-2.3222,-2.3877,-2.5136,-2.6637,0.0,0.0,0.0,0.0,0.0,0.0,0.0,0.0,0.0,0.0,0.0,0.0,0.0,0.0,0.0,0.0,0.0,0.0,-2.4748,0.0,0.0,-2.9991,-3.0138,-3.0129,-3.0129,-3.3627,-3.5297,-3.4983,-3.4016,-3.2684,-3.0906,-2.8774,-1.7855,0.0664,1.6067,2.1144,1.8322,2.1679,2.3049,2.3105,2.5097,2.3389,1.9256,1.6066,0.0,0.0,0.0,0.0,0.4519,0.4525,0.4484,0.4472,0.4339,0.2277,0.0065,0.0201,0.2595,0.436,0.0933,0.0,0.0,0.0,0.0,0.0,0.0,0.0,-0.0348,-0.1554,-0.1835,-0.2521,-0.4641,-0.5253,-0.589,-0.7195,-0.7495,-0.7702,-0.7997,-0.8038,-0.8041,-0.8052,-0.8052,-0.8055,-0.8062,-0.924,0.0,-1.3528,0.0,-1.5737,-1.575,-1.6119,-1.6273,-1.6273,-1.6273,-1.6266,-1.6253,-1.5972,-1.5832,-1.5832,-1.5832,-1.7117,-1.9497,-1.9497,-2.0863,-2.3135,-2.3135,-2.3135,-2.3135,-2.3135,-2.3135,-2.3135,-2.3135,-2.3135,-2.3135,-2.3135,-2.4478,-2.6554,0.0,0.0,0.0,0.0,0.0,0.0,0.0,0.0,0.0,0.0,0.0,0.0,0.0,0.0,0.0,0.0,0.0,0.0,0.0,0.0,0.0,0.0,0.0,-2.6608,-2.6606,-2.7535,-2.7996,-2.7901,-2.9476,-2.9412,-2.7883,-2.9381,-1.9305,0.0596,1.4482,2.0161,1.9514,2.2048,2.2175,2.0476,0.0,1.7515,1.5881,0.0,0.0,0.0,0.0,0.4509,0.448,0.4478,0.4492,0.412,0.1882,0.0646,0.0538,0.3248,0.278,0.1141,0.0244,0.0,0.0,0.0,0.0,0.0,0.0,0.0,-0.0343,-0.1384,-0.2151,-0.3066,-0.4501,-0.558,-0.6427,-0.7037,-0.7424,-0.7702,-0.7997,-0.8038,-0.8082,-0.8197,-0.8211,-0.8252,-0.8357,-0.9492,-1.0608,0.0,-1.3204,-1.4449,-1.4643,-1.5726,-1.6273,-1.6273,-1.6273,-1.6166,-1.5945,-1.5865,-1.5832,-1.5832,-1.5832,-1.7117,-1.9497,-1.9497,-2.0863,-2.3135,-2.3135,-2.3135,-2.3135,-2.3135,-2.3135,-2.3135,-2.3135,-2.3135,-2.3135,-2.3135,-2.4049,-2.5378,0.0,0.0,0.0,0.0,0.0,0.0,0.0,0.0,0.0,0.0,0.0,0.0,0.0,0.0,0.0,0.0,0.0,0.0,0.0,0.0,0.0,0.0,0.0,-2.3988,-2.3988,-2.4856,-2.4884,0.0,0.0,0.0,-2.5334,-2.45,-1.7878,-0.6248,0.5758,1.1105,1.1421,1.5749,0.0,0.0,0.0,0.0,0.0,0.0,0.0,0.0,0.4505,0.449,0.4548,0.4829,0.3862,0.2206,0.0542,0.0,0.0364,0.2424,0.1558,0.0,0.0,0.0,0.0,0.0,0.0,0.0,0.0,0.0,-0.0164,-0.0769,-0.128,-0.2073,-0.3528,-0.452,-0.5518,-0.6615,-0.7214,-0.76,-0.7896,-0.7997,-0.8096,-0.8252,-0.8272,-0.8326,-0.8469,-0.91,-0.9514,0.0,-1.2465,-1.4278,-1.4419,-1.5863,-1.66,-1.6466,-1.6466,-1.6259,-1.5832,-1.5832,-1.5832,-1.5832,-1.5832,-1.6842,-1.8772,-1.9222,-2.0494,-2.2306,0.0,-2.3135,-2.3135,-2.3135,-2.3135,-2.3135,-2.3135,-2.3135,-2.3135,-2.3135,-2.38,-2.4872,0.0,0.0,0.0,0.0,0.0,0.0,0.0,0.0,0.0,0.0,0.0,0.0,0.0,0.0,0.0,0.0,0.0,0.0,0.0,0.0,0.0,0.0,-2.2287,-2.2296,-2.2303,-2.4009,-2.424,-2.2876,0.0,0.0,0.0,0.0,0.0,0.0,0.0,0.0,0.0,0.0,0.0,0.0,0.0,0.0,0.0,0.0,0.0,0.0,0.4521,0.4556,0.4614,0.4665,0.2615,0.0,0.0,0.0,0.0,0.0,0.0,0.0,0.0,0.0,0.0,0.0,0.0,0.0,0.0,0.0,0.0,0.0,-0.0071,-0.062,-0.2209,-0.3052,-0.418,-0.6039,-0.6887,-0.7458,-0.7794,-0.7957,-0.8096,-0.8252,-0.8286,-0.8353,-0.8499,-0.853,-0.8543,-0.8543,-1.2043,-1.4174,-1.4236,-1.5871,-1.6806,-1.6653,-1.6613,-1.6346,-1.5832,-1.5832,-1.5832,-1.5832,-1.5832,-1.648,-1.7777,-1.8956,-2.0124,-2.1382,0.0,0.0,-2.3135,-2.3135,-2.3135,-2.3135,-2.3135,-2.3135,-2.3135,-2.3135,-2.3714,-2.4628,0.0,0.0,0.0,0.0,0.0,0.0,0.0,0.0,0.0,0.0,0.223,-0.1238,0.0,0.0,0.0,0.0,0.0,0.0,0.0,0.0,0.0,0.0,-2.2288,-2.2281,-2.2306,-2.2637,-2.3828,-2.5946,-2.4013,0.0,0.0,0.0,0.0,0.0,0.0,0.0,0.0,0.0,0.0,0.0,0.0,0.0,0.0,0.0,0.0,0.0,0.4502,0.483,0.4777,0.1893,0.05,0.0,0.0,0.0,0.0,0.0,0.0,0.0,0.0,0.0,0.0,0.0,0.0,0.0,0.0,0.0,0.0,0.0,-0.0601,-0.1175,-0.1493,-0.3061,-0.4556,-0.5485,-0.643,-0.737,-0.7923,-0.8021,-0.8096,-0.8252,-0.8374,-0.8506,-0.8655,-0.8784,-0.8859,0.0,-1.0547,-1.1959,-1.2915,-1.4076,-1.5282,-1.6346,-1.6106,-1.5932,-1.5832,-1.5832,-1.5832,-1.5832,-1.5832,-1.648,-1.7777,-1.8956,-2.0124,-2.1382,-2.2589,0.0,-2.3135,-2.3135,-2.3135,-2.3135,-2.3135,-2.3135,-2.3135,-2.3135,-2.3222,-2.3551,0.0,0.0,0.0,0.0,0.0,0.0,0.0,0.9206,0.7337,0.6041,0.3655,0.0507,-0.3649,-0.6597,-0.8967,0.0,0.0,0.0,0.0,0.0,0.0,0.0,0.0,-2.0952,-2.0958,-2.0964,-2.1652,-2.3063,0.0,-1.9321,-1.609,-1.2464,-1.0035,-0.8607,-0.426,-0.149,0.0116,0.0,0.0,0.0,0.0,0.0,0.0,0.0,0.0,0.0,0.0,0.4684,0.4432,0.1091,0.0,0.0,0.0,0.0,0.0,0.0,0.0,0.0,0.0,0.0,0.0,0.0,0.0,0.0,0.0,0.0,0.0,0.0,-0.0319,-0.0748,-0.1146,-0.2222,-0.3351,-0.4013,-0.533,-0.638,-0.6756,-0.7369,-0.7926,-0.8235,-0.833,-0.8462,-0.8686,-0.8777,-0.8818,-0.8818,-0.9312,-1.0577,-1.2561,-1.4377,-1.5667,-1.6273,-1.5985,-1.5832,-1.5832,-1.5832,-1.5832,-1.5832,-1.5832,-1.6109,-1.6756,-1.8672,-1.9852,-2.0486,-2.2315,0.0,-2.3135,-2.3135,-2.3135,-2.3135,-2.3135,-2.3135,-2.3135,-2.3135,-2.3135,-2.3222,0.0,0.0,0.0,0.0,0.0,0.0,0.0,0.8792,0.7047,0.6624,0.4677,0.1881,-0.1882,-0.4275,-0.6509,0.0,0.0,0.0,0.0,0.0,0.0,0.0,0.0,-1.9024,-1.9001,0.0,0.0,-1.9002,-1.8508,0.0,0.0,0.0,0.0,0.0,-0.4841,-0.2216,0.0,0.0,0.0,0.0,0.0,0.4862,0.0,0.0,0.0,0.0,0.0,0.429,0.3668,0.1258,0.0266,0.0,0.0,0.0,0.0,0.0,0.0,0.0,0.0,0.0,0.0,0.0,0.0,0.0,0.0,0.0,0.0,0.0,0.0,-0.0179,-0.0748,-0.1326,-0.1928,-0.2564,-0.3962,-0.5175,-0.5775,-0.6671,-0.7462,-0.817,-0.8252,-0.8364,-0.8594,-0.8645,-0.8662,-0.8662,-0.8832,-0.9812,-1.2091,-1.4506,-1.5778,-1.5778,-1.5754,-1.5832,-1.5832,-1.5832,-1.5832,-1.5832,-1.5832,-1.5832,-1.5927,-1.8126,-1.9222,-1.9579,-2.1765,0.0,0.0,-2.3135,-2.3135,-2.3135,-2.3135,-2.3135,-2.3135,-2.3135,-2.3135,-2.3135,0.0,0.0,0.0,0.0,0.0,0.0,0.0,0.8273,0.6838,0.5923,0.4333,0.2392,0.0,-0.0523,-0.2877,0.0,0.0,0.0,0.0,0.0,0.0,0.0,0.0,0.0,0.0,0.0,0.0,-1.6778,-1.4596,0.0,0.0,0.0,0.0,0.0,0.0,-0.0276,0.0,0.0,0.0,0.0,0.0,0.0,0.0,0.0,0.0,0.0,0.0,0.3574,0.2359,0.2073,0.1116,0.0,0.0,0.0,0.0,0.0,0.0,0.0,0.0,0.0,0.0,0.0,0.0,0.0,0.0,0.0,0.0,0.0,0.0,0.0,-0.0061,-0.0804,-0.151,-0.197,-0.2888,-0.4119,-0.5771,-0.6064,-0.6646,-0.7922,-0.8184,-0.8282,-0.8306,-0.8428,-0.8503,-0.8503,-0.948,-1.0125,-1.0276,-1.2673,-1.4106,-1.4106,-1.5255,-1.5832,-1.5832,-1.5832,-1.5832,-1.5832,-1.5832,-1.5832,-1.5825,-1.7225,-1.8503,-1.9579,-2.0845,0.0,0.0,-2.3135,-2.3135,-2.3135,-2.3135,-2.3135,-2.3135,-2.3135,-2.3135,-2.3135,0.0,0.0,0.0,0.0,0.0,0.0,0.967,0.8724,0.7779,0.6659,0.5362,0.4216,0.3315,-0.03,-0.3655,-0.6019,0.0,0.0,0.0,0.0,0.0,0.0,0.0,0.0,0.0,0.0,-1.4111,-1.3608,-1.2186,0.0,0.0,0.0,0.0,0.0,0.0,0.0,0.0112,0.1952,0.0,0.0,0.0,0.0,0.0,0.0,0.0,0.0,0.0,0.0,0.1684,0.1077,0.0787,0.0554,0.0124,0.0,0.0,0.0,0.0,0.0,0.0,0.0,0.0,0.0,0.0,0.0,0.0,0.0,0.0,0.0,0.0,0.0,0.0,-0.0309,-0.0587,-0.0778,-0.1667,-0.2592,-0.3495,-0.411,-0.5153,-0.6649,-0.6914,-0.726,-0.8252,-0.8323,-0.8357,-0.8357,-0.8711,0.0,-0.8829,-1.2032,-1.3878,-1.3878,-1.514,-1.5832,-1.5832,-1.5832,-1.5832,-1.5832,-1.5832,-1.5832,-1.5825,-1.7131,-1.7963,-1.8503,-2.0486,0.0,0.0,-2.2775,-2.3135,-2.3135,-2.3135,-2.3135,-2.3135,-2.3135,-2.3135,-2.3135,0.0,0.0,0.0,0.0,0.0,1.0927,0.9694,0.912,0.8351,0.7089,0.603,0.5391,0.5376,-0.0667,-0.4689,-0.4515,-0.7149,0.0,0.0,0.0,0.0,0.0,0.0,0.0,0.0,0.0,-1.2163,-1.1381,-1.0847,-0.9925,0.0,0.0,-0.4425,-0.3743,0.0,0.0,0.0,0.0,0.0,0.0,0.0,0.0,0.0,0.0,0.0,0.0,0.0,0.0,0.0,0.0,0.0,0.0665,0.0176,0.0,0.0,0.0,0.0,0.0,0.0,0.0,0.0,0.0,0.0,0.0,0.0,0.0,0.0,0.0,0.0,0.0,0.0,0.0,0.0,0.0,-0.0627,-0.132,-0.1939,-0.267,-0.3662,-0.5268,-0.5379,-0.5987,-0.75,-0.7971,-0.8204,-0.8204,-0.8102,0.0,-0.8038,-1.1063,-1.2909,-1.3295,-1.4949,-1.5832,-1.5832,-1.5832,-1.5832,-1.5832,-1.5832,-1.5832,-1.5832,-1.6763,-1.7318,-1.7777,-1.9852,0.0,0.0,-2.2589,-2.3135,-2.3135,-2.3135,-2.3135,-2.3135,-2.3135,-2.3135,-2.3135,0.0,0.0,0.0,0.0,0.0,0.0,0.9603,0.9102,0.8261,0.6776,0.5914,0.5391,0.5426,-0.107,-0.5169,-0.4532,-0.7122,0.0,0.0,0.0,0.0,0.0,0.0,0.0,0.0,0.0,-1.1353,-1.06,-1.06,-0.9714,-0.7995,-0.6233,-0.4284,-0.2225,0.0,0.0,0.0,0.0,0.0,0.0,0.0,0.0,0.0,0.0,0.0,0.0,0.0,0.0,0.0,0.0,0.0,0.0,0.0,0.0,0.0,0.0,0.0,0.0,0.0,0.0,0.0,0.0,0.0,0.0,0.0,0.0,0.0,0.0,0.0,0.0,0.0,0.0,0.0,0.0,0.0,-0.0453,-0.1821,-0.2052,-0.2484,-0.3866,-0.3989,-0.4594,-0.5853,-0.7257,-0.8041,-0.8041,-0.8041,0.0,-0.8038,-0.9312,-1.0583,-1.1848,-1.4465,-1.5832,-1.5832,-1.5832,-1.5832,-1.5832,-1.5832,-1.5832,-1.5832,-1.5825,-1.648,0.0,0.0,0.0,0.0,-2.2589,-2.3135,-2.3135,-2.3135,-2.3135,-2.3135,-2.3135,-2.3135,-2.3135,0.0,0.0,0.0,0.0,0.0,0.0,0.0,1.0097,0.7929,0.55,0.4948,0.4,0.1949,-0.2528,-0.5165,-0.4535,-0.7128,0.0,0.0,0.0,0.0,0.0,0.0,0.0,0.0,0.0,-1.0205,-0.99,-0.9334,-0.8907,-0.8491,-0.6407,-0.4385,-0.2552,-0.2269,-0.0523,0.0,0.0,0.0,0.0,0.0,0.0,0.0,0.0,0.0,0.0,0.0,0.0,0.0,0.0,0.0,0.0,0.0,0.0,0.0,0.0,0.0,0.0,0.0,0.0,0.0,0.0,0.0,0.0,0.0,0.0,0.0,0.0,0.0,0.0,0.0,0.0,0.0,0.0,0.0,-0.015,-0.0569,-0.0594,-0.115,-0.2502,-0.4242,-0.5937,-0.7267,0.0,-0.8038,-0.8038,-0.8038,0.0,-0.8038,-0.9312,-1.0583,-1.1848,-1.359,-1.4949,-1.5825,-1.5832,-1.5832,-1.5832,-1.5832,-1.5832,-1.5832,-1.5832,-1.6015,0.0,0.0,0.0,0.0,-2.1391,-2.2403,-2.3135,-2.3135,-2.3135,-2.3135,-2.3135,-2.3135,-2.3135,0.0,0.0,0.0,0.0,0.0,0.0,0.0,0.9891,0.7768,0.4858,0.4528,0.3357,0.0348,-0.3011,-0.4926,-0.4545,-0.7143,0.0,0.0,0.0,0.0,0.0,0.0,0.0,0.0,-1.0064,-0.9874,-0.9414,-0.8571,-0.811,-0.8141,-0.6423,-0.4634,-0.2797,-0.27,-0.1028,0.0,0.0,0.0,0.0,0.0,0.0,0.0,0.0,0.0,0.0,0.0,0.0,0.0,0.0,0.0,0.0,0.0,0.0,0.0,0.0,0.0,0.0,0.0,0.0,0.0,0.0,0.0,0.0,0.0,0.0,0.0,0.0,0.0,0.0,0.0,0.0,0.0,0.0,0.0,0.0,0.0,0.0,-0.0532,-0.1858,-0.3879,-0.5768,0.0,-0.7707,-0.8038,-0.8038,-0.8038,0.0,-0.8038,-0.8825,-0.9801,-1.117,-1.2909,-1.4555,-1.5825,-1.5832,-1.5832,-1.5832,-1.5832,-1.5832,-1.5832,-1.5832,-1.5832,0.0,0.0,0.0,0.0,-2.0567,-2.1747,-2.2492,-2.295,-2.3135,-2.3135,-2.3135,-2.3135,-2.3135,0.0,0.0,0.0,0.0,0.0,0.0,0.0,0.8789,0.7741,0.4869,0.4501,0.3334,0.0346,-0.2665,-0.4472,-0.4498,0.0,0.0,0.0,0.0,0.0,0.0,0.0,0.0,0.0,-1.0326,-1.0118,-0.9022,-0.8195,-0.7464,-0.6881,-0.6211,-0.4784,-0.2753,-0.2815,-0.1279,0.0,0.0,0.0,0.0,0.0,0.0,0.0,0.0,0.0,0.0,0.0,0.0,0.0,0.0,0.0,0.0,0.0,0.0,0.0,0.0,0.0,0.0,0.0,0.0,0.0,0.0,0.0,0.0,0.0,0.0,0.0,0.0,0.0,0.0,0.0,0.0,0.0,0.0,0.0,0.0,0.0,0.0,-0.0538,-0.1804,-0.32,-0.4505,-0.5874,-0.726,-0.8038,-0.8038,0.0,0.0,-0.8038,-0.8038,-0.8627,-0.9998,-1.242,-1.4364,-1.5635,-1.573,-1.5832,-1.5832,-1.5832,-1.5832,-1.5832,-1.5832,-1.5832,0.0,0.0,0.0,0.0,-2.0124,-2.1114,-2.1382,-2.2492,-2.3047,-2.3135,-2.3135,-2.3135,-2.3135,0.0,0.0,0.0,0.0,0.0,0.0,0.0,0.0,0.0,0.0,0.4512,0.336,0.0335,-0.2685,-0.4487,0.0,0.0,0.0,0.0,0.0,0.0,0.0,0.0,0.0,0.0,-0.9747,-0.9382,-0.8276,-0.8275,-0.7141,-0.514,-0.4916,-0.3698,-0.1658,-0.1694,-0.0196,0.0,0.0,0.0,0.0,0.0,0.0,0.0,0.0,0.0,0.0,0.4745,0.4551,0.0,0.0,0.0,0.0,0.0,0.0,0.0,0.0,0.0,0.0,0.0,0.0,0.0,0.0,0.0,0.0,0.0,0.0,0.0,0.0,0.0,0.0,0.0,0.0,0.0,0.0,0.0,0.0,0.0,0.0,-0.0474,-0.1879,-0.3187,-0.4491,-0.5889,-0.7217,-0.8038,-0.8038,0.0,-0.8038,-0.8038,-0.8038,-0.8627,-0.9998,-1.1556,-1.3006,-1.4364,-1.5337,-1.5832,-1.5832,-1.5832,-1.5832,-1.5832,-1.5832,-1.5832,0.0,0.0,0.0,-1.7777,-1.8319,-1.967,-2.1293,-2.1569,-2.2306,-2.3135,-2.3135,-2.3135,-2.3135,0.0,0.0,0.0,0.0,0.0,0.0,0.0,0.0,0.0,0.0,0.0,0.0,0.0,0.0,0.0,0.0,0.0,0.0,0.0,0.0,0.0,0.0,0.0,0.0,-0.9432,-0.9599,-0.9174,-0.8162,-0.8344,-0.7339,-0.5287,-0.4825,-0.373,-0.2057,-0.1148,0.0327,0.0,0.0,0.0,0.0,0.0,0.0,0.0,0.0,0.0,0.0,0.4585,0.4587,0.0,0.4545,0.4235,0.3744,0.0,0.0,0.0,0.0,0.028,0.0,0.0,0.0,0.0,0.0,0.0,0.0,0.0,0.0,0.0,0.0,0.0,0.0,0.0,0.0,0.0,0.0,0.0,0.0,0.0,0.0,-0.0483,-0.1803,-0.3215,-0.4518,0.0,-0.7235,-0.8038,0.0,0.0,-0.8038,-0.8038,-0.8038,-0.8333,-0.9019,-1.0386,-1.194,-1.3878,-1.5146,-1.5832,-1.5832,-1.5832,-1.5832,-1.5832,-1.5832,-1.5832,0.0,0.0,0.0,-1.685,-1.7505,-1.8503,-1.9761,-2.0845,-2.1658,-2.2306,-2.2862,-2.3135,-2.3135,0.0,0.0,0.0,0.0,0.0,0.0,0.0,0.0,0.0,0.0,0.0,0.0,0.0,0.0,0.0,0.0,0.0,0.0,0.0,0.0,0.0,0.0,0.0,-0.9078,-0.9666,-0.9563,-0.916,-0.8354,-0.8282,-0.7488,-0.5989,-0.5168,-0.4042,-0.2808,-0.0873,0.0453,0.0,0.0,0.0,0.0,0.0,0.0,0.0,0.0,0.0,0.0,0.0,0.0,0.0,0.4613,0.4568,0.4373,0.3631,0.0,0.0,0.0,0.0,0.0,0.0,0.0,0.0,0.0,0.0,0.0,0.0,0.0,0.0,0.0,0.0,0.0,0.0,0.0,0.0,0.0,0.0,0.0,0.0,0.0,-0.0388,-0.1605,-0.2914,0.0,-0.5525,-0.693,-0.7736,0.0,0.0,-0.8038,-0.8038,-0.8038,-0.8038,-0.8038,-0.9312,-1.1165,-1.3584,-1.4854,-1.5635,-1.5832,-1.5832,-1.5832,-1.5832,-1.5832,-1.5832,-1.5832,0.0,0.0,-1.592,-1.6943,-1.7498,-1.787,-1.9943,-2.1025,-2.1382,-2.2492,-2.295,-2.3135,0.0,0.0,0.0,0.0,0.0,0.0,0.0,0.0,0.0,0.0,0.0,0.0,0.0,0.0,0.0,0.0,0.0,0.0,0.0,0.0,0.0,0.0,-0.8938,-0.9078,-0.9666,-0.8961,-0.8511,-0.821,-0.7731,-0.6519,-0.4774,-0.482,-0.3766,-0.1755,-0.0544,0.0462,0.1352,0.0,0.0,0.0,0.0,0.0,0.0,0.0,0.0,0.0,0.0,0.0,0.0,0.4543,0.4536,0.4242,0.286,0.0,0.0,0.0,0.0,0.0,0.0,0.0,0.0,0.0,0.0,0.0,0.0,0.0,0.0,0.0,0.0,0.0,0.0,0.0,0.0,0.0,0.0,0.0,0.0,0.0,-0.0099,-0.0302,0.0,-0.2815,-0.4218,-0.5522,0.0,0.0,0.0,-0.8038,-0.8038,-0.8038,-0.8038,-0.8038,-0.9312,-1.0681,-1.2237,-1.3494,-1.4752,-1.5832,-1.5832,-1.5832,-1.5832,-1.5832,-1.5832,0.0,0.0,-1.5832,-1.5825,-1.6015,-1.6763,-1.7777,-1.8141,-1.9497,-2.1293,-2.148,-2.2217,-2.3135,0.0,0.0,0.0,0.0,0.0,0.0,0.0,0.0,0.0,0.0,0.0,0.0,0.0,0.0,0.0,0.0,0.0,0.0,0.0,0.0,0.0,-0.9141,-0.8807,-0.8934,-0.9679,-0.962,-0.9145,-0.8329,-0.815,-0.7166,-0.5457,-0.4442,-0.3017,-0.1368,-0.0406,0.0199,0.071,0.2089,0.0,0.0,0.0,0.0,0.0,0.0,0.0,0.0,0.0,0.0,0.0,0.0,0.3901,0.368,0.2565,0.0,0.0,0.0,0.0,0.0,0.0,0.0,0.0,0.0,0.0,0.0,0.0,0.0,0.0,0.0,0.0,0.0,0.0,0.0,0.0,0.0,0.0,0.0,0.0,0.0,0.0,0.0,0.0,-0.2514,-0.3915,0.0,0.0,0.0,0.0,0.0,-0.8038,-0.8038,-0.8038,-0.8038,-0.8627,-0.9509,-1.0877,-1.2139,-1.3788,-1.5832,-1.5832,-1.5832,-1.5832,-1.5832,-1.5832,-1.5832,0.0,-1.5832,-1.5832,-1.5832,-1.6014,-1.6529,-1.7338,-1.8286,-1.9289,-2.0757,-2.1658,-2.2217,0.0,0.0,0.0,0.0,0.0,0.0,0.0,0.0,0.0,0.0,0.0,0.0,0.0,0.0,0.0,0.0,0.0,0.0,0.0,0.0,-0.7517,-0.9009,-0.8667,-0.8961,-0.9886,-1.0141,-0.9706,-0.8473,-0.8524,-0.778,-0.6254,-0.4338,-0.2772,-0.1613,-0.0745,-0.02,0.0129,0.1921,0.2637,0.0,0.0,0.0,0.0,0.0,0.0,0.0,0.0,0.0,0.0,0.0,0.0,0.0,0.0,0.0,0.0,0.0895,0.0448,0.0,0.0,0.0,0.0,0.0,0.0,0.0,0.0,0.0,0.0,0.0,0.0,0.0,0.0,0.0,0.0,0.0,0.0,0.0,0.0,0.0,0.0,0.0,-0.0907,-0.2012,-0.3416,0.0,0.0,0.0,0.0,0.0,-0.8038,-0.8038,-0.8038,-0.8038,-0.8038,-0.8825,-1.0391,-1.1365,-1.3011,-1.5343,-1.5635,-1.5832,-1.5825,-1.5758,-1.5732,-1.5725,-1.5658,-1.5625,-1.5625,-1.5625,-1.5491,-1.5409,-1.6636,-1.7157,-1.7447,-1.9775,-2.0953,-2.1462,0.0,0.0,0.0,0.0,0.0,0.0,0.0,0.0,0.0,0.0,0.0,0.0,0.0,0.0,0.0,0.0,0.0,0.0,0.0,0.0,-0.6818,-0.8586,-0.8698,-0.9321,-1.0494,-0.9767,-0.9119,-0.8554,-0.8101,-0.7314,-0.6257,-0.5019,-0.3824,-0.275,-0.1653,-0.0746,0.0129,0.1921,0.2637,0.2629,0.0,0.0,0.0,0.0,0.0,0.0,0.0,0.0,0.0,0.0,0.0,0.0,0.0,0.0,0.095,0.028,0.0056,0.0,0.0,0.0,0.0,0.0,0.0,0.0,0.0,0.0,0.0,0.0,0.0,0.0,0.0,0.0,0.0,0.0,0.0,0.0,0.0,0.0,0.0,0.0,-0.0101,-0.0706,0.0,0.0,0.0,0.0,0.0,0.0,-0.8038,-0.8038,-0.8038,-0.8038,-0.8038,-0.9213,-1.175,-1.1848,-1.2624,-1.407,-1.5242,-1.5832,-1.5818,-1.5551,-1.5431,-1.5411,-1.5144,-1.5023,-1.5023,-1.5023,-1.5017,-1.4997,-1.5107,-1.6055,-1.7304,-1.8423,-1.9878,-2.1248,0.0,0.0,0.0,0.0,0.0,0.0,0.0,0.0,0.0,0.0,0.0,0.0,0.0,0.0,0.0,0.0,0.0,0.0,0.0,0.0,-0.6629,-0.8252,-0.7596,-0.8133,-1.0212,-0.989,-0.9071,-0.7816,-0.7017,-0.6489,-0.6112,-0.491,-0.382,-0.2884,-0.1775,-0.0809,0.0066,0.1336,0.2022,0.2435,0.364,0.0,0.0,0.0,0.0,0.0,0.0,0.0,0.0,0.0,0.2343,0.1786,0.0727,0.0392,0.0336,0.0056,0.0,0.0,0.0,0.0,0.0,0.0,0.0,0.0,0.0,0.0,0.0,0.0,0.0,0.0,0.0,0.0,0.0,0.0,0.0,0.0,0.0,0.0,0.0,0.0,0.0,0.0,0.0,0.0,0.0,0.0,0.0,0.0,-0.7896,-0.7896,-0.7896,-0.7896,-0.7991,-0.8432,-0.9505,-1.1068,-1.2062,-1.2389,-1.4671,-1.5732,-1.5558,-1.5444,-1.5297,-1.5124,-1.501,-1.4963,-1.4963,-1.4963,-1.4856,-1.4689,-1.4689,-1.5123,-1.5984,-1.7072,-1.7874,-1.8732,0.0,0.0,0.0,0.0,0.0,0.0,0.0,0.0,0.0,0.0,0.0,0.0,0.0,0.0,0.0,0.0,0.0,0.0,0.0,-0.5216,-0.6054,-0.7419,-0.6646,-0.7154,-0.9236,-0.9265,-0.8859,-0.8022,-0.6872,-0.6152,-0.5888,-0.5041,-0.4186,-0.3275,-0.2238,-0.128,-0.0409,0.0801,0.1553,0.1992,0.2869,0.348,0.0,0.0,0.0,0.0,0.0,0.0,0.0,0.0,0.1507,0.095,0.0224,0.0,0.0,0.0,0.0,0.0,0.0,0.0,0.0,0.0,0.0,0.0,0.0,0.0,0.0,0.0,0.0,0.0,0.0,0.0,0.0,0.0,0.0,0.0,0.0,0.0,0.0,0.0,0.0,0.0,0.0,0.0,0.0,0.0,0.0,0.0,0.0,-0.7743,-0.7743,-0.7743,-0.7845,-0.8091,-0.847,-1.0298,-1.1462,-1.2061,-1.4029,-1.5073,-1.5257,-1.5164,-1.501,-1.4823,-1.4723,-1.4689,-1.4689,-1.4689,-1.4569,-1.4382,-1.4382,-1.4563,-1.4898,-1.5647,-1.6329,-1.7033,0.0,0.0,0.0,0.0,0.0,0.0,0.0,0.0,0.0,0.0,0.0,0.0,0.0,0.0,0.0,0.0,0.0,0.0,-0.34,-0.42,-0.5085,-0.5931,-0.6112,-0.6605,-0.7489,-0.7835,-0.8521,-0.9504,-0.7887,-0.6565,-0.5589,-0.5589,-0.5095,-0.4178,-0.3185,-0.2313,-0.1461,0.0461,0.1287,0.1344,0.2165,0.2463,0.0,0.0,0.0,0.0,0.0,0.0,0.0,0.0,0.1118,0.095,0.0224,0.0,0.0,0.0,0.0,0.0,0.0,0.0,0.0,0.0,0.0,0.0,0.0,0.0,0.0,0.0,0.0,0.0,0.0,0.0,0.0,0.0,0.0,0.0,0.0,0.0,0.0,0.0,0.0,0.0,0.0,0.0,0.0,0.0,0.0,0.0,0.0,-0.7597,-0.7597,-0.7597,-0.76,-0.8243,-0.9427,-0.952,-1.0716,-1.3211,-1.3211,-1.3851,-1.495,-1.4656,-1.4522,-1.4496,-1.4215,-1.4088,-1.4088,-1.4088,-1.4088,-1.4088,-1.4088,-1.4262,-1.4482,-1.4195,-1.5197,-1.6703,0.0,0.0,0.0,0.0,0.0,0.0,0.0,0.0,0.0,0.0,0.0,0.0,0.0,0.0,0.0,0.0,0.0,0.0,-0.3345,-0.4107,-0.486,-0.5622,-0.5237,-0.5854,-0.7611,-0.8431,-0.8466,-0.7681,-0.7126,-0.6395,-0.5589,-0.5481,-0.495,-0.4069,-0.3842,-0.2817,-0.1216,-0.0707,0.0126,0.1205,0.142,0.185,0.0,0.0,0.0,0.0,0.0,0.0,0.0,0.0,0.0,0.0,0.0056,0.0,0.0,0.0,0.0,0.0,0.0,0.0,0.0,0.0,0.0,0.0,0.0,0.0,0.0,0.0,0.0,0.0,0.0,0.0,0.0,0.0,0.0,0.0,0.0,0.0,0.0,0.0,0.0,0.0,0.0,0.0,0.0,0.0,0.0,0.0,0.0,-0.7441,-0.7441,-0.7441,-0.7543,-0.7782,-0.8149,-0.9064,-1.0186,-1.1494,-1.2477,-1.356,-1.4649,-1.4563,-1.4409,-1.4208,-1.4122,-1.4088,-1.4088,-1.4088,-1.4088,-1.4088,-1.4088,-1.4142,-1.4208,-1.4122,-1.4443,-1.5021,0.0,0.0,0.0,0.0,0.0,0.0,0.0,0.0,0.0,0.0,0.0,0.0,0.0,0.0,0.0,0.0,0.0,0.0,0.0,0.0,-0.468,-0.5109,-0.4948,-0.5854,-0.7876,-0.8869,-0.8751,-0.7389,-0.7084,-0.6369,-0.5325,-0.5287,-0.5035,-0.4556,-0.4225,-0.3272,-0.1783,-0.1458,-0.0554,0.0646,0.0637,0.0911,0.1341,0.0,0.0,0.0,0.0,0.0,0.0,0.0,0.0,0.0,0.0,0.0,0.0,0.0,0.0,0.0,0.0,0.0,0.0,0.0,0.0,0.0,0.0,0.0,0.0,0.0,0.0,0.0,0.0,0.0,0.0,0.0,0.0,0.0,0.0,0.0,0.0,0.0,0.0,0.0,0.0,0.0,0.0,0.0,0.0,0.0,0.0,-0.7008,-0.7278,-0.7278,-0.737,-0.7417,-0.7417,-0.8132,-0.9066,-1.0023,-1.0901,-1.204,-1.3627,-1.4077,-1.4255,-1.4088,-1.4088,-1.4088,-1.4088,-1.4088,-1.4088,-1.4088,-1.4088,-1.4088,-1.4088,-1.4088,-1.4088,-1.4193,0.0,0.0,0.0,0.0,0.0,0.0,0.0,0.0,0.0,0.0,0.0,0.0,0.0,0.0,0.0,0.0,0.0,0.0,0.0,0.0,-0.4519,-0.4519,-0.5234,-0.6433,-0.8196,-0.9169,-0.9163,-0.8223,-0.7634,-0.6611,-0.5079,-0.5182,-0.526,-0.5387,-0.4541,-0.3666,-0.2903,-0.188,-0.0904,-0.0117,0.0,0.0,0.0056,0.0727,0.0,0.0,0.0,0.0,0.0,0.0,0.0,0.0,0.0,0.0,0.0,0.0,0.0,0.0,0.0,0.0,0.0,0.0,0.0,0.0,0.0,0.0,0.0,0.0,0.0,0.0,0.0,0.0,0.0,0.0,0.0,0.0,0.0,0.0,0.0,0.0,0.0,0.0,0.0,0.0,0.0,0.0,0.0,0.0,0.0,-0.6517,-0.7139,-0.7139,-0.7139,-0.7139,-0.7139,-0.7139,-0.7665,0.0,-0.889,-1.0009,-1.2157,-1.3379,-1.3997,-1.4088,-1.4088,-1.4088,-1.4088,-1.4088,-1.4088,-1.4088,-1.4088,-1.4088,-1.4088,-1.4088,-1.4088,-1.4088,0.0,0.0,0.0,0.0,0.0,0.0,0.0,0.0,0.0,0.0,0.0,0.0,0.0,0.0,0.0,0.0,0.0,0.0,0.0,0.0,-0.4519,-0.4519,-0.597,-0.7286,-0.8463,-0.9016,-0.8963,-0.8223,-0.8051,-0.7499,-0.6471,-0.61,-0.5954,-0.5879,-0.5315,-0.4516,-0.338,-0.2561,-0.1688,-0.0791,-0.0225,0.0,0.0,0.0168,0.0224,0.0,0.0,0.0,0.0,0.0,0.0,0.0,0.0,0.0,0.0,0.0,0.0,0.0,0.0,0.0,0.0,0.0,0.0,0.0,0.0,0.0,0.0,0.0,0.0,0.0,0.0,0.0,0.0,0.0,0.0,0.0,0.0,0.0,0.0,0.0,0.0,0.0,0.0,0.0,0.0,0.0,0.0,0.0,-0.5359,-0.6517,-0.7139,-0.7139,-0.7139,-0.7139,-0.7139,-0.7139,-0.7665,0.0,-0.889,-0.9666,-1.1037,-1.2157,-1.3203,-1.4088,-1.4088,-1.4088,-1.4088,-1.4088,-1.4088,-1.4088,-1.4088,-1.4088,-1.4088,-1.4088,-1.4088,-1.4088,0.0,0.0,0.0,0.0,0.0,0.0,0.0,0.0,0.0,0.0,0.0,0.0,0.0,0.0,0.0,0.0,0.0,0.0,0.0,0.0,-0.4791,-0.55,-0.6855,-0.7942,-0.8689,-0.9023,-0.8945,-0.8482,-0.8482,-0.7987,-0.6976,-0.6357,-0.6125,-0.6191,-0.5563,-0.47,-0.3654,-0.2832,-0.1957,-0.1062,-0.028,0.0,0.0,0.0,0.0,0.0,0.0,0.0,0.0,0.0,0.0,0.0,0.0,0.0,0.0,0.0,0.0,0.0,0.0,0.0,0.0,0.0,0.0,0.0,0.0,0.0,0.0,0.0,0.0,0.0,0.0,0.0,0.0,0.0,0.0,0.0,0.0,0.0,0.0,0.0,0.0,0.0,0.0,0.0,0.0,0.0,0.0,-0.3304,-0.4463,-0.5622,-0.6517,-0.7051,-0.7139,-0.7139,-0.7139,-0.7139,-0.7404,-0.8013,-0.8013,-0.8623,-0.9836,-1.1552,-1.2942,-1.4088,-1.4088,-1.4088,-1.4088,-1.4088,-1.4088,-1.4088,-1.4088,-1.4088,-1.4088,-1.4088,-1.4088,-1.4088,0.0,0.0,0.0,0.0,0.0,0.0,0.0,0.0,0.0,0.0,0.0,0.0,0.0,0.0,0.0,0.0,0.0,0.0,0.0,-0.4125,-0.5073,-0.642,-0.7489,-0.8257,-0.8743,-0.9035,-0.9064,-0.8884,-0.8831,-0.8427,-0.767,-0.6662,-0.6332,-0.6572,-0.5542,-0.465,-0.3925,-0.3012,-0.2118,-0.1229,-0.0504,-0.0112,0.0,0.0,0.0,0.0,0.0,0.0,0.0,0.0,0.0,0.0,0.0,0.0,0.0,0.0,0.0,0.0,0.0,0.0,0.0,0.0,0.0,0.0,0.0,0.0,0.0,0.0,0.0,0.0,0.0,0.0,0.0,0.0,0.0,0.0,0.0,0.0,0.0,0.0,0.0,0.0,0.0,0.0,0.0,0.0,0.0,-0.2236,-0.3215,-0.4643,-0.5805,-0.6782,-0.6962,-0.7139,-0.7139,-0.7139,-0.7139,-0.7139,-0.7316,-0.7925,-0.8978,-1.1042,-1.2681,-1.3822,-1.3997,-1.4088,-1.4088,-1.4088,-1.4088,-1.4088,-1.4088,-1.4088,-1.4088,-1.4088,-1.4088,-1.4088,0.0,0.0,0.0,0.0,0.0,0.0,0.0,0.0,0.0,0.0,0.0,0.0,0.0,-0.056,0.0,0.0,0.0,0.0,-0.4294,0.0,0.0,-0.6058,-0.6837,-0.7681,-0.8619,-0.9009,-0.9163,-0.913,-0.8931,-0.9233,-1.0118,-0.7951,-0.7118,-0.7312,-0.5674,-0.4877,-0.4716,-0.3631,-0.2742,-0.2009,-0.1229,-0.056,0.0,0.0,0.0,0.0,0.0,0.0,0.0,0.0,0.0,0.0,0.0,0.0,0.0,0.0,0.0,0.0,0.0,0.0,0.0,0.0,0.0,0.0,0.0,0.0,0.0,0.0,0.0,0.0,0.0,0.0,0.0,0.0,0.0,0.0,0.0,0.0,0.0,0.0,0.0,0.0,0.0,0.0,0.0,0.0,-0.1076,-0.1879,-0.2057,-0.4198,-0.5447,-0.5625,-0.6605,-0.7139,-0.7139,-0.7139,-0.7139,-0.7139,-0.8189,-0.8715,-0.8978,-1.0269,-1.1472,-1.2589,-1.3646,-1.4088,-1.4088,-1.4088,-1.4088,-1.4088,-1.4088,-1.4088,-1.4088,-1.4088,-1.4088,-1.4088,0.0,0.0,0.0,0.0,0.0,0.0,0.0,0.0,0.0,0.0,0.0,-0.0168,-0.056,-0.0895,0.0,0.0,0.0,0.0,-0.446,-0.4838,0.0,0.0,-0.706,-0.7836,-0.8682,-0.8895,-0.8998,-0.8998,-0.8871,-0.9325,-1.0307,-0.8962,-0.8377,-0.8351,-0.6789,-0.5738,-0.4947,-0.3814,-0.3121,-0.273,-0.1563,-0.0915,-0.0589,-0.0171,0.0,0.0,0.0,0.0,0.0,0.0,0.0,0.0,0.0,0.0,0.0,0.0,0.0,0.0,0.0,0.0,0.0,0.0,0.0,0.0,0.0,0.0,0.0,0.0,0.0,0.0,0.0,0.0,0.0,0.0,0.0,0.0,0.0,0.0,0.0,0.0,0.0,0.0,0.0,0.0,0.0,0.0,-0.0533,-0.1062,-0.1789,-0.2772,-0.402,-0.5359,-0.5891,-0.6428,-0.7051,-0.7139,-0.7139,-0.7139,-0.7665,-0.8281,-0.8978,-1.0096,-1.1209,-1.2328,-1.2857,-1.347,-1.4088,-1.4088,-1.4088,-1.4088,-1.4088,-1.4088,-1.4088,-1.4088,-1.4088,-1.4088,0.0,0.0,0.0,0.0,0.0,0.0,0.0,0.0,0.0,0.0,0.0,0.0,-0.1006,0.0,0.0,0.0,0.0,0.0,-0.446,0.0,0.0,0.0,0.0,-0.7777,-0.848,-0.8699,-0.8804,-0.8804,-0.8804,-0.9332,-1.0347,-0.9919,-0.9672,-0.9543,-0.7946,-0.6449,-0.5044,-0.4142,-0.3661,-0.3315,-0.1947,-0.1239,-0.1043,-0.0298,0.0,0.0,0.0,0.0,0.0,0.0,0.0,0.0,0.0,0.0,0.0,0.0,0.0,0.0,0.0,0.0,0.0,0.0,0.0,0.0,0.0,0.0,0.0,0.0,0.0,0.0,0.0,0.0,0.0,0.0,0.0,0.0,0.0,0.0,0.0,0.0,0.0,0.0,0.0,0.0,0.0,0.0,0.0,-0.0435,-0.1332,-0.159,-0.2734,-0.4784,-0.52,-0.5903,-0.6997,-0.7122,-0.7139,-0.7139,-0.7404,-0.7841,-0.8452,-0.9918,-1.1037,-1.1895,-1.2504,-1.3288,-1.4088,-1.4088,-1.4088,-1.4088,-1.4088,-1.4088,-1.4088,-1.4088,-1.4088,-1.4088,0.0,0.0,0.0,0.0,0.0,0.0,0.0,0.0,0.0,0.0,0.0,0.0,-0.1006,-0.173,-0.2454,-0.3234,0.0,0.0,0.0,0.0,0.0,0.0,0.0,0.0,-0.7723,-0.8427,-0.8804,-0.8804,-0.8804,-0.9546,-1.0949,-1.0896,-1.0956,-1.0964,-0.8529,-0.6619,-0.5118,-0.49,-0.4406,-0.3668,-0.2568,-0.1716,-0.0991,-0.0262,0.0,0.0,0.0,0.0,0.0,0.0,0.0,0.0,0.0,0.0,0.0,0.0,0.0,0.0,0.0,0.0,0.0,0.0,0.0,0.0,0.0,0.0,0.0,0.0,0.0,0.0,0.0,0.0,0.0,0.0,0.0,0.0,0.0,0.0,0.0,0.0,0.0,0.0,0.0,0.0,0.0,0.0,0.0,0.0,-0.0087,-0.1193,-0.2293,-0.3379,-0.4498,-0.5684,-0.6939,-0.7071,-0.7139,-0.7139,-0.8277,-0.8281,-0.7316,-0.957,-1.0611,-1.0783,-1.3039,-1.3997,-1.4088,-1.4088,-1.4088,-1.4088,-1.4088,-1.4088,-1.4088,-1.4088,-1.4088,-1.4088,0.0,0.0,0.0,0.0,0.0,0.0,0.0,0.0,0.0,0.0,0.0,0.0,0.0,-0.2732,-0.3231,-0.4012,-0.4349,0.0,0.0,0.0,0.0,0.0,0.0,0.0,0.0,-0.8646,-0.8804,-0.8804,-0.8804,-0.9272,-1.0154,-1.0341,-1.02,-0.9775,-0.8801,-0.7604,-0.6308,-0.515,-0.4564,-0.4243,-0.2802,-0.2012,-0.1693,-0.0458,0.0,0.0,0.0,0.0,0.0,0.0,0.0,0.0,0.0,0.0,0.0,0.0,0.0,0.0,0.0,0.0,0.0,0.0,0.0,0.0,0.0,0.0,0.0,0.0,0.0,0.0,0.0,0.0,0.0,0.0,0.0,0.0,0.0,0.0,0.0,0.0,0.0,0.0,0.0,0.0,0.0,0.0,0.0,0.0,0.0,-0.0422,-0.118,-0.2289,-0.3448,-0.4873,-0.678,-0.6831,-0.6858,-0.6858,-0.7278,-0.7609,-0.7934,-0.8769,-0.9932,-1.1353,-1.2186,-1.3041,-1.3801,-1.3801,-1.3801,-1.3821,-1.4015,-1.4088,-1.4088,-1.4088,-1.4088,-1.4088,0.0,0.0,0.0,0.0,0.0,0.0,0.0,0.0,0.0,-0.1396,0.0,0.0,0.0,0.0,-0.3622,-0.4408,-0.4519,-0.4519,-0.4519,0.0,0.0,0.0,0.0,0.0,0.0,-0.8804,-0.8804,-0.8804,-0.8804,-0.9105,-0.9686,-0.988,-0.9825,-0.9513,-0.8989,-0.8067,-0.6788,-0.5677,-0.5081,-0.4673,-0.2969,-0.2289,-0.2153,-0.0618,0.0,0.0,0.0,0.0,0.0,0.0,0.0,0.0,0.0,0.0,0.0,0.0,0.0,0.0,0.0,0.0,0.0,0.0,0.0,0.0,0.0,0.0,0.0,0.0,0.0,0.0,0.0,0.0,0.0,0.0,0.0,0.0,0.0,0.0,0.0,0.0,0.0,0.0,0.0,0.0,0.0,0.0,0.0,0.0,0.0,0.0,-0.0493,-0.1722,-0.3136,-0.4637,-0.6046,-0.6509,-0.6702,-0.6702,-0.6702,-0.7105,-0.7835,-0.8237,-0.9217,-1.0595,-1.0925,-1.192,-1.35,-1.35,-1.35,-1.3527,-1.3821,-1.3881,-1.3814,-1.4015,-1.4021,-1.3955,0.0,0.0,0.0,0.0,0.0,0.0,0.0,0.0,-0.223,-0.2232,0.0,0.0,0.0,0.0,0.0,-0.4463,-0.4519,-0.4519,-0.4515,-0.5164,0.0,0.0,0.0,0.0,-0.8804,-0.8804,-0.8804,-0.8804,-0.8804,-0.9098,-0.9659,-0.9659,-0.9967,-1.0494,-0.9191,-0.7772,-0.6442,-0.6613,-0.6081,-0.496,-0.3197,-0.2539,-0.2314,-0.0679,0.0,0.0,0.0,0.0,0.0,0.0,0.0,0.0,0.0,0.0,0.0,0.0,0.0,0.0,0.0,0.0,0.0,0.0,0.0,0.0,0.0,0.0,0.0,0.0,0.0,0.0,0.0,0.0,0.0,0.0,0.0,0.0,0.0,0.0,0.0,0.0,0.0,0.0,0.0,0.0,0.0,0.0,0.0,0.0,0.0,0.0,-0.0471,-0.1568,-0.3679,-0.4854,-0.4854,-0.6034,-0.6688,-0.6688,-0.6688,-0.6688,-0.6688,-0.782,-0.8384,-0.8453,-0.931,-1.1004,-1.3107,-1.3114,-1.3193,-1.3227,-1.3514,-1.346,-1.328,-1.3848,-1.3881,-1.3687,0.0,0.0,0.0,0.0,0.0,-0.2174,-0.2174,-0.2174,-0.2397,0.0,0.0,0.0,-0.407,-0.4181,-0.4294,-0.4463,-0.4519,-0.468,-0.5218,-0.5873,-0.6637,-0.7343,-0.8103,-0.8593,-0.8804,-0.8804,-0.8804,-0.8804,-0.8804,-0.8891,-0.9051,-0.9051,-0.9245,-0.9542,-0.8681,-0.7794,-0.6856,-0.6116,-0.552,-0.5001,-0.3634,-0.2933,-0.2491,-0.1297,-0.0444,0.0,0.0,0.0,0.0,0.0,0.0,0.0,0.0,0.0,0.0,0.0,0.0,0.0,0.0,0.0,0.0,0.0,0.0,0.0,0.0,0.0,0.0,0.0,0.0,0.0,0.0,0.0,0.0,0.0,0.0,0.0,0.0,0.0,0.0,0.0,0.0,0.0,0.0,0.0,0.0,0.0,0.0,0.0,0.0,0.0,-0.0471,-0.1568,-0.2207,-0.3238,-0.4734,-0.5083,-0.5659,-0.6383,-0.6383,-0.6383,-0.6383,-0.677,-0.7313,-0.8004,-0.8185,-0.9494,-1.1487,-1.1689,-1.2247,-1.2906,-1.3213,-1.328,-1.3227,-1.3394,-1.3534,-1.3627,0.0,0.0,0.0,0.0,-0.3529,-0.3261,-0.3307,-0.3273,-0.3414,0.0,0.0,0.0,-0.446,-0.4573,-0.4587,-0.4522,-0.4519,-0.468,-0.5054,-0.6041,-0.6804,-0.7235,-0.8262,-0.8804,-0.8804,-0.8804,-0.8804,-0.8804,-0.8804,-0.8804,-0.8804,-0.8804,-0.8831,-0.8825,-0.8224,-0.7458,-0.6683,-0.5797,-0.5208,-0.4839,-0.3969,-0.3218,-0.2539,-0.1672,-0.0746,0.0,0.0,0.0,0.0,0.0,0.0,0.0,0.0,0.0,0.0,0.0,0.0,0.0,0.0,0.0,0.0,0.0,0.0,0.0,0.0,0.0,0.0,0.0,0.0,0.0,0.0,0.0,0.0,0.0,0.0,0.0,0.0,0.0,0.0,0.0,0.0,0.0,0.0,0.0,0.0,0.0,0.0,0.0,0.0,0.0,-0.0314,-0.0941,-0.1333,-0.2192,-0.3363,-0.4297,-0.5002,-0.5628,-0.6103,-0.6338,-0.6338,-0.6338,-0.6641,-0.7176,-0.7176,-0.808,-0.9599,-1.0198,-1.1258,-1.2592,-1.2899,-1.2939,-1.2859,-1.312,-1.324,-1.326,0.0,0.0,-0.4567,-0.4663,-0.4691,-0.4741,-0.4897,-0.4789,-0.4697,0.0,-0.4599,-0.457,-0.457,-0.4619,-0.4636,-0.4556,-0.4529,-0.457,-0.4736,-0.5882,-0.6696,-0.6858,-0.8103,-0.8804,-0.8804,-0.8804,-0.8804,-0.8804,-0.8804,-0.8804,-0.8804,-0.8804,-0.8651,-0.8377,-0.7747,-0.7019,-0.6135,-0.5531,-0.5062,-0.4679,-0.4292,-0.3555,-0.2602,-0.1954,-0.1063,-0.0148,-0.0077,0.0,0.0,0.0,0.0,0.0,0.0,0.0,0.0,0.0,0.0,0.0,0.0,0.0,0.0,0.0,0.0,0.0,0.0,0.0,0.0,0.0,0.0,0.0,0.0,0.0,0.0,0.0,0.0,0.0,0.0,0.0,0.0,0.0,0.0,0.0,0.0,0.0,0.0,0.0,0.0,0.0,0.0,0.0,0.0,0.0,-0.0941,-0.1489,-0.1568,-0.3439,-0.4375,-0.453,-0.5628,-0.6103,-0.6103,-0.6261,-0.6338,-0.6338,-0.6338,-0.6872,-0.7859,-0.8765,-1.0346,-1.2177,-1.2592,-1.2532,-1.2365,-1.2906,-1.2953,-1.2856,0.0,-0.4519,-0.4567,-0.4663,-0.4691,-0.4741,-0.4897,-0.4789,-0.4735,-0.4857,-0.485,-0.483,-0.483,-0.4748,-0.4677,-0.465,-0.4587,-0.4956,-0.61,-0.6426,-0.7128,-0.8321,-0.8646,-0.8804,-0.8804,-0.8804,-0.8804,-0.8804,-0.8804,-0.8804,-0.8804,-0.8804,-0.8651,-0.8377,-0.7652,-0.6917,-0.6135,-0.5423,-0.495,-0.4711,-0.4703,-0.4386,-0.3799,-0.2853,-0.1955,-0.1161,-0.0313,0.0,0.0,0.0,0.0,0.0,0.0,0.0,0.0,0.0,0.0,0.0,0.0,0.0,0.0,0.0,0.0,0.0,0.0,0.0,0.0,0.0,0.0,0.0,0.0,0.0,0.0,0.0,0.0,0.0,0.0,0.0,0.0,0.0,0.0,0.0,0.0,0.0,0.0,0.0,0.0,0.0,0.0,0.0,0.0,0.0,-0.0236,-0.0706,-0.1568,-0.2036,-0.2581,-0.3435,-0.453,-0.5002,-0.5079,-0.5944,-0.6338,-0.6338,-0.6338,-0.6872,-0.7783,-0.8008,-0.9291,-1.1168,-1.2061,-1.2351,-1.2318,-1.2438,-1.2592,-1.2795,-0.4625,-0.4519,-0.4591,-0.4765,-0.4806,-0.488,-0.5104,-0.5009,-0.4938,-0.5013,-0.5023,-0.4969,-0.4819,-0.4806,-0.4745,-0.4589,-0.4563,-0.4952,-0.5982,-0.6421,-0.7074,-0.8209,-0.8586,-0.8804,-0.8804,-0.8804,-0.8804,-0.8804,-0.8804,-0.8731,-0.8591,-0.8591,-0.8221,-0.7585,-0.6944,-0.6303,-0.5625,-0.496,-0.4638,-0.4609,-0.4986,-0.4758,-0.4075,-0.3789,-0.2833,-0.1568,-0.1566,-0.1254,-0.07,-0.0146,0.0,0.0,0.0,0.0,0.0,0.0,0.0,0.0,0.0,0.0,0.0,0.0,0.0,0.0,0.0,0.0,0.0,0.0,0.0,0.0,0.0,0.0,0.0,0.0,0.0,0.0,0.0,0.0,0.0,0.0,0.0,0.0,0.0,0.0,0.0,0.0,0.0,0.0,0.0,0.0,0.0,0.0,0.0,-0.0227,-0.0832,-0.136,-0.1888,-0.2338,-0.3916,-0.4623,-0.4757,-0.5682,-0.6186,-0.6338,-0.6338,-0.6567,-0.7099,-0.7557,-0.8385,-0.9437,-1.0938,-1.1848,-1.2305,-1.2305,-1.2398,-1.2505,-0.5062,-0.4787,-0.4769,-0.5002,-0.4934,-0.4965,-0.5237,-0.5145,-0.5057,-0.5087,-0.5138,-0.5094,-0.4887,-0.4921,-0.4884,-0.4697,-0.477,-0.5102,-0.5763,-0.6504,-0.7231,-0.7889,-0.848,-0.8804,-0.8804,-0.8804,-0.8804,-0.8804,-0.8751,-0.8604,-0.8427,-0.8427,-0.7852,-0.6781,-0.6412,-0.5856,-0.5113,-0.4565,-0.4504,-0.4735,-0.5229,-0.4925,-0.4196,-0.4487,-0.3546,-0.2164,-0.2882,-0.2425,-0.1475,-0.0583,-0.0285,-0.0212,-0.0066,-0.0129,0.0,0.0,0.0,0.0,0.0,0.0,0.0,0.0,0.0,0.0,0.0,0.0,0.0,0.0,0.0,0.0,0.0,0.0,0.0,0.0,0.0,0.0,0.0,0.0,0.0,0.0,0.0,0.0,0.0,0.0,0.0,0.0,0.0,0.0,0.0,0.0,0.0,0.0,0.0,0.0,0.0,-0.0873,-0.1309,-0.1309,-0.3118,-0.4115,-0.4445,-0.5349,-0.596,-0.6338,-0.6338,-0.6338,-0.6338,-0.7176,-0.7633,-0.8008,-1.0034,-1.1316,-1.1996,-1.2224,-1.2305,-1.2305,-0.648,-0.5819,-0.5444,-0.5653,-0.5176,-0.4772,-0.4945,-0.484,-0.4789,-0.4925,-0.5172,-0.5372,-0.5477,-0.526,-0.5203,-0.5443,-0.5774,-0.6278,-0.687,-0.7613,-0.819,-0.8652,-0.8752,-0.8804,-0.8804,-0.8804,-0.8804,-0.8804,-0.855,-0.841,-0.8427,-0.8427,-0.7852,-0.6792,-0.7034,-0.6447,-0.5291,-0.508,-0.514,-0.5329,-0.5401,-0.5148,0.0,-0.4369,-0.4101,-0.3832,-0.3308,-0.2425,-0.1561,0.0,-0.1274,-0.1036,0.0,-0.0543,-0.102,-0.0253,0.0,0.0,0.0,0.0,0.0,0.0,0.0,0.0,0.0,0.0,0.0,0.0,0.0,0.0,0.0,0.0,0.0,0.0,0.0,0.0,0.0,0.0,0.0,0.0,0.0,0.0,0.0,0.0,0.0,0.0,0.0,0.0,0.0,0.0,0.0,0.0,0.0,0.0,0.0,-0.0146,-0.0146,-0.0219,-0.1382,-0.2429,-0.3319,-0.437,-0.5345,-0.6338,-0.6338,-0.6338,-0.6338,-0.6416,-0.7022,-0.8008,-1.0034,-1.0858,-1.1087,-1.1996,-1.2305,-1.2305,-0.6253,-0.5706,-0.5436,-0.5174,-0.4919,-0.4741,-0.4897,-0.5013,-0.5135,-0.5287,-0.5416,-0.5518,-0.5583,-0.5396,-0.5318,-0.5447,-0.5962,-0.6524,-0.7071,-0.7788,-0.8386,-0.8765,-0.8804,-0.8804,-0.8804,-0.8804,-0.8804,-0.8804,-0.8684,-0.845,-0.8116,-0.8297,-0.7852,-0.6798,-0.6797,-0.6352,-0.5538,-0.5079,-0.4912,-0.4979,0.0,-0.503,0.0,-0.5272,-0.5388,-0.5249,-0.3645,-0.2813,-0.241,0.0,-0.1109,0.0,0.0,0.0,0.0,-0.0134,0.0,0.0,0.0,0.0,0.0,0.0,0.0,0.0,0.0,0.0,0.0,0.0,0.0,0.0,0.0,0.0,0.0,0.0,0.0,0.0,0.0,0.0,0.0,0.0,0.0,0.0,0.0,0.0,0.0,0.0,0.0,0.0,0.0,0.0,0.0,0.0,0.0,0.0,0.0,0.0,0.0,0.0,-0.0973,-0.197,-0.3031,-0.3965,-0.4974,-0.6,-0.6088,-0.6129,-0.6132,-0.6224,-0.6567,-0.7099,-0.8533,-0.9734,-1.0864,-1.1236,-1.1768,-1.2305,-0.6465,-0.6086,-0.5973,-0.5563,-0.5364,-0.5308,-0.5482,-0.5509,-0.5618,-0.5776,-0.5634,-0.5693,-0.6051,-0.5916,-0.6007,-0.6413,-0.7017,-0.7492,-0.7773,-0.8381,-0.8833,-0.9058,-0.8898,-0.8844,-0.8925,-0.8844,-0.8804,-0.8804,-0.8731,-0.847,-0.8056,-0.8277,-0.7896,-0.6913,-0.668,-0.629,-0.5793,-0.5085,-0.4884,-0.5006,-0.5118,-0.5213,-0.5348,-0.5918,-0.6186,-0.6103,-0.453,-0.3826,-0.3414,-0.2384,-0.147,0.0,-0.0145,0.0,-0.0341,0.0,0.0,0.0,0.0,0.0,0.0,0.0,0.0,0.0,0.0,0.0,0.0,0.0,0.0,0.0,0.0,0.0,-0.0224,-0.0056,0.0,-0.0224,0.0,0.0,0.0,0.0,0.0,0.0,0.0,0.0,0.0,0.0,0.0,0.0,0.0,0.0,0.0,0.0,0.0,0.0,0.0,0.0,0.0,0.0,-0.0672,-0.1633,-0.2931,-0.3559,-0.4529,-0.581,-0.5918,-0.5966,-0.5979,-0.6132,-0.6196,-0.6276,-0.708,-0.8461,-1.0034,-1.0634,-1.1465,-1.2305,-0.7777,-0.7616,-0.7616,-0.7622,-0.7031,-0.6673,-0.6951,-0.642,-0.6075,-0.6316,-0.5791,-0.5876,-0.7095,-0.7112,-0.7644,-0.905,-0.9642,-0.9816,-0.9415,-0.9831,-0.996,-0.9666,-0.9112,-0.8938,-0.9163,-0.8951,-0.8804,-0.8804,-0.8524,-0.8377,-0.8357,-0.837,-0.8005,-0.7251,-0.6978,-0.6562,-0.5936,-0.5366,-0.5365,-0.5766,-0.5772,-0.5952,-0.619,0.0,-0.6,-0.6261,-0.6257,0.0,0.0,-0.3419,-0.294,0.0,0.0,0.0,0.0,0.0,0.0,0.0,0.0,0.0,0.0,0.0,0.0,0.0,0.0,0.0,0.0,0.0,0.0,0.0,0.0,-0.056,-0.0838,-0.0112,-0.0616,0.0,0.0,0.0,0.0,0.0,0.0,0.0,0.0,0.0,0.0,0.0,0.0,0.0,0.0,0.0,0.0,0.0,0.0,0.0,0.0,0.0,0.0,0.0,0.0,-0.1023,-0.2931,-0.2931,-0.3961,-0.58,-0.5806,-0.581,-0.582,-0.5973,-0.6037,-0.6051,-0.6276,-0.6945,-0.8161,-1.011,-1.1465,-1.2305,-0.848,-0.8427,-0.8103,-0.7128,-0.675,-0.6764,-0.7186,-0.6823,-0.6559,-0.6916,-0.6261,-0.6386,-0.7892,-0.794,-0.8417,-0.978,-1.0461,-1.0613,-1.0102,-1.0479,-1.0568,-1.0335,-0.9699,-0.9432,-0.9532,-0.9245,-0.8998,-0.8804,-0.8711,-0.8564,-0.8427,-0.8571,-0.8454,-0.8037,-0.7701,-0.726,-0.6662,-0.6117,-0.5726,-0.5528,0.0,-0.5986,-0.6251,0.0,0.0,-0.6338,-0.6338,-0.5628,0.0,-0.4257,-0.321,-0.1958,-0.1259,-0.0793,-0.035,-0.0069,0.0,0.0,0.0,0.0,0.0,0.0,0.0,0.0,0.0,0.0,0.0,0.0,0.0,0.0,0.0,-0.1006,-0.1563,-0.0838,-0.095,-0.1174,0.0,0.0,0.0,0.0,0.0,0.0,0.0,0.0,0.0,0.0,0.0,0.0,0.0,0.0,0.0,0.0,0.0,0.0,0.0,0.0,0.0,0.0,0.0,-0.0676,-0.1834,-0.2512,-0.3411,-0.4614,-0.5335,-0.5661,-0.5681,-0.5928,-0.603,-0.6044,-0.62,-0.6949,-0.7931,-0.9291,-1.0415,-1.1391,-0.8831,-0.8804,-0.848,-0.7563,-0.7469,-0.7661,-0.806,-0.7608,-0.731,-0.7614,-0.7142,-0.7226,-0.8738,-0.9151,-0.9874,-1.1152,-1.1666,-1.1536,-1.0521,-1.1019,-1.0995,-1.0335,-1.0124,-0.9993,-0.9993,-0.9706,-0.9359,-0.8965,-0.8965,-0.8811,-0.853,-0.8717,-0.8704,-0.8499,-0.7851,-0.7375,-0.7026,-0.632,-0.5841,-0.5545,0.0,-0.6084,0.0,0.0,-0.6338,-0.6338,0.0,-0.5867,-0.5237,-0.4844,-0.3538,-0.2035,-0.1719,-0.0871,0.0,0.0,0.0,0.0,0.0,0.0,0.0,0.0,0.0,0.0,0.0,0.0,0.0,0.0,0.0,0.0,0.0,-0.0966,-0.1625,-0.1192,-0.1295,-0.1563,0.0,-0.1396,0.0,0.0,0.0,0.0,0.0,0.0,0.0,0.0,0.0,0.0,0.0,0.0,0.0,0.0,0.0,0.0,0.0,0.0,0.0,0.0,0.0,-0.0471,-0.134,-0.2277,-0.3145,-0.4087,-0.5051,-0.5508,-0.5528,-0.5772,-0.5901,-0.5962,-0.6118,-0.6667,-0.7403,-0.8389,-0.9664,-1.0932,-0.8864,-0.8818,-0.8831,-0.8844,-0.9065,-0.9345,0.0,0.0,-0.8167,-0.8403,-0.8231,-0.849,-0.9645,-1.0852,-1.1986,-1.3147,-1.3253,-1.2492,-1.084,-1.1507,-1.132,-0.989,-1.0393,-1.0685,-1.0665,-1.0281,-0.9833,-0.9203,-0.9176,-0.9024,-0.8804,-0.8804,-0.8804,-0.8765,-0.7467,-0.7019,-0.7046,-0.6036,-0.5731,-0.5837,-0.6142,-0.6338,-0.6338,-0.6338,-0.6338,-0.6338,-0.6338,-0.6338,-0.618,-0.5148,-0.4,-0.2935,-0.1977,-0.093,0.0,0.0,0.0,0.0,0.0,0.0,0.0,0.0,0.0,0.0,0.0,0.0,0.0,0.0,0.0,0.0,0.0,0.0,-0.1131,-0.1108,-0.1709,-0.1952,-0.1174,-0.1062,-0.0838,0.0,0.0,-0.0056,0.0,0.0,0.0,0.0,0.0,0.0,0.0,0.0,0.0,0.0,0.0,0.0,0.0,0.0,0.0,0.0,0.0,-0.0404,-0.1274,-0.221,-0.3078,-0.4015,-0.4954,-0.5359,-0.5439,-0.5528,-0.5671,-0.5806,-0.5966,-0.6125,-0.6416,-0.7403,-0.9059,-1.0932,-0.8864,-0.8978,-0.9198,-0.9419,-0.9339,-0.9356,0.0,0.0,0.0,-0.8827,-0.9276,-0.9847,-1.0317,-1.1361,-1.2575,-1.3771,-1.3861,-1.3585,-1.2896,-1.283,-1.2616,-1.2009,-1.1733,-1.143,-1.1209,-1.0488,-0.9933,-0.9566,-0.9132,-0.8878,-0.8804,-0.8804,-0.8804,-0.8758,-0.7901,-0.7335,-0.7026,-0.6341,-0.5999,-0.5986,-0.6183,-0.6338,-0.6338,0.0,-0.6338,-0.6338,-0.6338,-0.6338,-0.624,-0.5819,-0.452,-0.3064,-0.2663,-0.1354,0.0,0.0,0.0,0.0,0.0,0.0,0.0,0.0,0.0,0.0,0.0,0.0,0.0,0.0,0.0,0.0,0.0,0.0,0.0,-0.1191,-0.174,-0.173,-0.0448,-0.0727,0.0,-0.0112,0.0,0.0,-0.0056,0.0,0.0,0.0,0.0,0.0,0.0,0.0,0.0,0.0,0.0,0.0,0.0,0.0,0.0,0.0,0.0,-0.0135,-0.0336,-0.1275,-0.2143,-0.3078,-0.3949,-0.4755,-0.5439,-0.5528,-0.561,-0.5671,-0.5928,-0.6125,-0.6416,-0.7403,-0.9059,-1.0858,-0.9051,-0.9339,-0.9713,-1.0013,0.0,0.0,-1.0261,-0.995,0.0,-0.9453,-1.0245,0.0,-1.0966,-1.2289,-1.3379,-1.3997,-1.4088,-1.3734,-1.2894,-1.3172,-1.2982,-1.2037,-1.221,-1.2058,-1.163,-1.1009,-1.0421,-0.9873,-0.9419,-0.9058,-0.8804,-0.8804,-0.8804,-0.8752,-0.767,-0.7162,-0.6944,-0.617,-0.5877,-0.6037,-0.6125,-0.62,0.0,-0.6338,-0.6338,-0.6338,-0.6338,-0.6338,-0.6247,-0.6159,-0.4798,-0.3081,-0.3026,-0.1626,0.0,0.0,0.0,0.0,0.0,0.0,0.0,0.0,0.0,0.0,0.0,0.0,0.0,0.0,0.0,0.0,0.0,0.0,0.0,-0.1124,-0.173,-0.1786,-0.0615,-0.0838,-0.0838,0.0,-0.0392,0.0,0.0,-0.028,-0.0336,0.0,0.0,0.0,0.0,0.0,0.0,0.0,0.0,0.0,0.0,0.0,0.0,0.0,0.0,0.0,0.0,-0.0873,-0.1809,-0.2744,-0.3613,-0.4553,-0.5435,-0.5454,-0.5532,-0.5613,-0.584,-0.6023,-0.6235,-0.6832,-0.8081,-0.9588,-0.9466,-0.9853,-1.0314,0.0,0.0,0.0,0.0,-1.0393,0.0,-1.0227,0.0,-1.1751,-1.1583,-1.3093,-1.4088,-1.4088,-1.4088,-1.3522,-1.2277,-1.314,-1.3007,-1.1444,-1.2305,-1.262,-1.1997,-1.1583,-1.0975,-1.0174,-0.9806,-0.9289,-0.8646,-0.8646,-0.8586,-0.8427,-0.7069,-0.6502,-0.6591,-0.5747,-0.5606,-0.6,-0.602,-0.6122,-0.6338,-0.6338,-0.6338,-0.6338,-0.6338,-0.6338,-0.6335,-0.6237,-0.4844,-0.3063,-0.3114,-0.1684,0.0,0.0,0.0,0.0,0.0,0.0,0.0,0.0,0.0,0.0,0.0,0.0,0.0,0.0,0.0,0.0,0.0,0.0,0.0,-0.0849,-0.1518,-0.1689,-0.1019,-0.096,-0.0732,-0.0056,0.0,0.0,0.0,0.0,0.0,0.0,0.0,0.0,0.0,0.0,0.0,0.0,0.0,0.0,0.0,0.0,0.0,0.0,0.0,0.0,0.0,-0.0806,-0.1675,-0.2744,-0.348,-0.4417,-0.5428,-0.5428,-0.545,-0.5603,-0.5725,-0.5878,-0.603,-0.603,-0.6648,-0.7855,-1.0341,-1.0601,-1.0855,-1.0909,0.0,-1.1717,-1.1964,-1.1933,-1.1732,-1.13,-1.2606,-1.3239,-1.2283,-1.3322,-1.4088,-1.4088,-1.4088,0.0,0.0,-1.3891,-1.3745,-1.3179,-1.3147,-1.2959,-1.2674,-1.159,-1.0875,-1.0481,-0.9699,-0.8802,-0.7883,-0.7883,-0.7563,-0.6966,-0.6086,-0.551,-0.5257,-0.5352,0.0,-0.585,-0.5979,-0.6122,-0.6338,-0.6338,-0.6338,-0.6338,-0.6338,-0.6338,-0.624,-0.6112,-0.4753,-0.3051,-0.2993,-0.161,0.0,0.0,0.0,0.0,0.0,0.0,0.0,0.0,0.0,0.0,0.0,0.0,0.0,0.0,0.0,0.0,0.0,0.0,0.0,0.0,0.0,0.0,0.0,-0.0178,-0.0117,0.0,-0.0525,-0.0692,0.0,0.0,0.0,0.0,0.0,0.0,0.0,0.0,0.0,0.0,0.0,0.0,0.0,0.0,0.0,0.0,0.0,0.0,0.0,-0.0135,-0.1141,-0.2678,-0.2878,-0.3882,-0.5428,-0.5428,-0.545,-0.5593,-0.5616,-0.5793,-0.603,-0.603,-0.6201,-0.6718,-1.1176,-1.1229,-1.1316,-1.1617,0.0,0.0,0.0,-1.2772,-1.2659,-1.2226,-1.302,-1.3375,-1.2864,-1.3554,-1.4088,-1.4088,-1.4088,-1.4088,-1.4088,-1.3941,-1.3728,-1.3434,-1.3133,-1.2826,-1.2525,-1.1817,-1.1015,-1.004,0.0,-0.8405,-0.7128,-0.7128,-0.6966,-0.6593,-0.5925,-0.5389,0.0,0.0,0.0,-0.5817,-0.5969,-0.6122,-0.6338,-0.6338,-0.6338,-0.6338,-0.6338,-0.6338,-0.617,-0.5552,-0.4341,-0.2999,-0.2381,-0.1204,0.0,0.0,0.0,0.0,0.0,0.0,0.0,0.0,0.0,0.0,0.0,0.0,0.0,0.0,0.0,0.0,0.0,0.0,0.0,0.0,0.0,0.0,0.0,0.0,0.0,0.0,-0.029,-0.0399,0.0,0.0,0.0,0.0,0.0,0.0,0.0,0.0,0.0,0.0,0.0,0.0,0.0,0.0,0.0,0.0,0.0,0.0,0.0,0.0,-0.1008,-0.2678,-0.2678,-0.3747,-0.5428,-0.5428,-0.5406,-0.5471,-0.5471,-0.5606,-0.581,-0.5884,-0.601,-0.6301,-1.1857,-1.1824,-1.185,0.0,-1.2318,0.0,-1.3113,-1.332,-1.3307,-1.3066,-1.3247,-1.3394,-1.3394,-1.3808,-1.4088,-1.4088,-1.4028,-1.3988,-1.3988,-1.3714,-1.3447,-1.322,-1.2913,-1.2714,-1.2405,-1.2051,-1.1188,0.0,0.0,0.0,0.0,-0.65,-0.6282,0.0,0.0,0.0,0.0,0.0,-0.5549,-0.5861,-0.5979,-0.6122,-0.6338,-0.6338,-0.6338,-0.6338,-0.6338,-0.618,-0.5786,-0.4688,-0.377,-0.2933,-0.1918,-0.0863,0.0,0.0,0.0,0.0,0.0,0.0,0.0,0.0,0.0,0.0,0.0,0.0,0.0,0.0,0.0,0.0,0.0,0.0,0.0,0.0,0.0,0.0,0.0,0.0,0.0,0.0,0.0,0.0,0.0,0.0,0.0,0.0,0.0,0.0,0.0,0.0,0.0,0.0,0.0,0.0,0.0,0.0,0.0,0.0,0.0,0.0,0.0,0.0,-0.1008,-0.2678,-0.2678,-0.3747,-0.5428,-0.5428,-0.5428,-0.5428,-0.5428,-0.5454,-0.5603,-0.5715,-0.585,-0.6077,0.0,0.0,0.0,0.0,0.0,0.0,-1.324,-1.3661,-1.3995,-1.3961,-1.3988,-1.4008,-1.4008,-1.4055,-1.4088,-1.4088,-1.3841,-1.3687,-1.3687,-1.3414,-1.324,-1.3213,-1.2913,-1.2808,-1.2782,-1.2151,-1.1563,0.0,0.0,-0.8354,0.0,-0.6064,-0.5361,0.0,0.0,0.0,0.0,-0.5415,-0.561,-0.601,-0.6023,-0.6122,-0.6338,-0.6338,-0.6338,-0.6338,-0.6338,-0.5709,-0.4686,-0.3593,-0.3154,-0.2943,-0.1882,-0.0875,0.0,0.0,0.0,0.0,0.0,0.0,0.0,0.0,0.0,0.0,0.0,0.0,0.0,0.0,0.0,0.0,0.0,0.0,0.0,0.0,0.0,0.0,0.0,0.0,0.0,0.0,0.0,0.0,0.0,0.0,0.0,0.0,0.0,0.0,0.0,0.0,0.0,0.0,0.0,0.0,0.0,0.0,0.0,0.0,0.0,0.0,0.0,0.0,-0.1008,-0.2678,-0.2678,-0.3747,-0.5428,-0.5428,-0.5428,-0.5428,-0.5428,-0.5454,-0.5593,-0.5603,-0.5701,-0.5844,0.0,0.0,0.0,0.0,0.0,0.0,0.0,-1.3788,-1.3881,-1.4062,-1.4088,-1.4088,-1.4088,-1.4088,-1.4088,-1.4088,-1.3981,-1.3834,-1.3572,-1.3373,-1.3126,-1.2939,-1.2639,-1.2478,-1.2478,-1.2251,-1.1624,0.0,0.0,-0.8122,-0.6819,-0.5683,0.0,0.0,0.0,-0.5243,-0.5511,-0.5688,-0.5867,-0.6037,-0.6132,-0.6207,-0.6338,-0.6338,-0.6338,-0.6183,-0.555,-0.5079,-0.4453,-0.2737,-0.2178,-0.2002,-0.0987,-0.0373,0.0,0.0,0.0,0.0,0.0,0.0,0.0,0.0,0.0,0.0,0.0,0.0,0.0,0.0,0.0,0.0,0.0,0.0,0.0,0.0,0.0,0.0,0.0,0.0,0.0,0.0,0.0,0.0,0.0,0.0,0.0,0.0,0.0,0.0,0.0,0.0,0.0,0.0,0.0,0.0,0.0,0.0,0.0,0.0,0.0,0.0,0.0,0.0,-0.1008,-0.2744,-0.328,-0.4217,-0.5428,-0.5428,-0.5428,-0.5428,-0.5428,-0.5466,-0.5464,-0.5555,-0.5627,-0.5708,-1.332,0.0,-1.3173,0.0,-1.342,-1.3327,-1.3874,-1.3854,-1.3814,-1.3941,-1.4035,-1.4088,-1.4088,-1.4088,-1.4088,-1.4088,-1.4008,-1.3868,-1.3661,-1.3287,-1.3019,-1.2886,-1.2512,0.0,-1.2432,-1.2345,-1.1689,-1.0423,-0.9262,-0.7994,-0.6733,0.0,0.0,0.0,-0.5379,-0.5538,-0.5732,-0.5942,-0.6057,-0.6108,-0.6217,-0.6338,-0.6338,-0.6338,-0.6103,-0.5709,-0.4999,-0.4297,-0.3595,-0.2115,-0.1411,-0.1016,-0.0231,0.0,0.0,0.0,0.0,0.0,0.0,0.0,0.0,0.0,0.0,0.0,0.0,0.0,0.0,0.0,0.0,0.0,0.0,0.0,0.0,0.0,0.0,0.0,0.0,0.0189,0.0,0.0,0.0173,0.0224,0.0,0.0,0.0,0.0,0.0,0.0,0.0,0.0,0.0,0.0,0.0,0.0,0.0,0.0,0.0,0.0,0.0,0.0,0.0,-0.0269,-0.1074,-0.2342,-0.348,-0.435,-0.5024,-0.5292,-0.5428,-0.5428,-0.5428,-0.5428,-0.5439,-0.5484,-0.5521,-0.5566,-1.3499,-1.3552,-1.3728,-1.4028,-1.4075,-1.3975,-1.3694,-1.3895,-1.3975,-1.3687,-1.3908,-1.4088,-1.4088,-1.4088,-1.4088,-1.4088,-1.3814,-1.3566,-1.3559,-1.3086,-1.2886,0.0,0.0,-1.2438,-1.2808,-1.2452,-1.1707,-1.0401,0.0,0.0,-0.686,0.0,-0.5437,-0.5586,-0.5586,-0.5749,-0.6023,-0.6027,-0.6118,-0.6257,-0.6261,-0.6338,-0.6338,-0.6338,-0.5628,-0.4688,-0.4688,-0.3363,-0.1646,-0.1646,-0.0863,0.0,0.0,0.0,0.0,0.0,0.0,0.0,0.0,0.0,0.0,0.0,0.0,0.0,0.0,0.0,0.0,0.0,0.0,0.0,0.0,0.0,0.0,0.0,0.0,0.0,0.0,0.0605,0.0,0.0113,0.0616,0.0783,0.0056,0.0,0.0,0.0,0.0,0.0,0.0,0.0,0.0,0.0,0.0,0.0,0.0,0.0,0.0,0.0,0.0,0.0,0.0,-0.0873,-0.1273,-0.1407,-0.3211,-0.4015,-0.4082,-0.5024,-0.5428,-0.5428,-0.5428,-0.5428,-0.5428,-0.5428,-0.5432,-0.5473,-1.3928,-1.3948,-1.3975,-1.4075,-1.4088,-1.4055,-1.3961,-1.4028,-1.4055,-1.3955,-1.4028,-1.4088,-1.4088,-1.4088,-1.4088,0.0,-1.4001,-1.3861,0.0,-1.3467,-1.3313,-1.3213,-1.2819,-1.2342,-1.1735,-1.1458,-1.0748,-0.9633,0.0,0.0,0.0,-0.5821,-0.5742,-0.5888,-0.5888,-0.6,-0.6186,-0.6186,-0.6217,-0.6338,-0.6338,-0.6338,-0.6338,-0.6338,-0.5628,-0.4608,-0.3904,-0.2737,-0.1489,-0.0784,-0.0314,0.0,0.0,0.0,0.0,0.0,0.0,0.0,0.0,0.0,0.0,0.0,0.0,0.0,0.0,0.0,0.0,0.0,0.0,0.0,0.0,0.0471,0.087,0.0862,0.14,0.0,0.0,0.0,0.1937,0.1567,0.1698,0.1563,0.0,0.0727,0.0,0.0,0.0,0.0,0.0,0.0,0.0,0.0,0.0,0.0,0.0,0.0,0.0,0.0,0.0,0.0,0.0,-0.0269,-0.0739,-0.134,-0.1941,-0.2544,-0.3211,-0.4082,-0.442,-0.4486,-0.516,-0.5428,-0.5428,-0.5428,-0.5428,-0.547,-1.4088,-1.4088,-1.4088,-1.4088,-1.4088,-1.4088,-1.4088,-1.4088,-1.4088,-1.4088,-1.4088,-1.4088,-1.4088,-1.373,0.0,-1.4088,-1.4088,-1.4008,-1.3821,-1.3276,-1.2934,-1.2864,-1.208,-1.1376,-1.0834,0.0,0.0,-0.8803,-0.7618,-0.666,-0.5976,-0.5976,-0.6027,-0.6115,-0.6115,-0.6169,-0.6338,-0.6338,-0.6338,-0.6338,-0.6338,-0.6338,-0.6268,-0.5846,-0.5069,-0.3957,-0.2931,-0.1904,-0.0873,-0.0236,0.0,0.0,0.0,0.0,0.0,0.0,0.0,0.0,0.0,0.0,0.0,0.0,0.0,0.0,0.0,0.0,0.0067,0.0404,0.0471,0.0605,0.0941,0.1476,0.1809,0.1809,0.2344,0.2642,0.2543,0.0,0.2722,0.0,0.0,0.0,0.0,0.1324,0.0982,0.0,0.0,0.0,0.0,0.0,0.0,0.0,0.0,0.0,0.0,0.0,0.0,0.0,0.0,0.0,0.0,0.0,-0.0269,-0.0806,-0.114,-0.1608,-0.2277,-0.348,-0.4015,-0.4082,-0.5024,-0.5428,-0.5435,-0.5426,-0.541,-0.548,-1.4088,-1.4088,0.0,0.0,-1.4088,0.0,-1.4088,-1.4088,-1.4088,-1.4088,-1.4004,-1.3997,-1.3997,-1.2942,-1.2589,-1.3737,0.0,0.0,0.0,-1.2541,-1.1908,-1.2145,-1.0616,-0.9823,-1.0109,-0.9616,-0.8922,-0.789,-0.6805,-0.6349,-0.6338,-0.6271,-0.6352,-0.6352,-0.6352,-0.6281,-0.6291,-0.6291,-0.6291,-0.6291,-0.6213,-0.6213,-0.6067,-0.4988,-0.3893,-0.284,-0.1951,-0.0895,0.0,0.0,0.0,0.0,0.0,0.0,0.0,0.0,0.0,0.0,0.0,0.0,0.0,0.0,0.0,0.0,0.0067,0.0067,0.0337,0.1207,0.1407,0.1675,0.2544,0.2744,0.2811,0.2811,0.2806,0.2816,0.2664,0.0,0.3354,0.0,0.0,0.0,0.0,0.1935,0.1399,0.0,0.0,0.0,0.0,0.0,0.0,0.0,0.0,0.0,0.0,0.0,0.0,0.0,0.0,0.0,0.0,0.0,0.0,-0.0067,-0.094,-0.1273,-0.1407,-0.328,-0.4015,-0.4084,-0.5033,-0.5435,-0.5449,-0.5535,-0.5501,-0.544,0.0,0.0,-1.4088,-1.4088,-1.4088,-1.4088,-1.4088,-1.4088,-1.4088,-1.4088,-1.3294,-1.2766,-1.2766,-1.1729,-1.1128,-1.1391,-1.1391,-1.1391,-1.1391,-1.1075,-1.0984,-1.1037,-1.0432,-0.9731,-0.911,-0.8704,-0.7951,-0.6867,-0.6596,-0.6366,-0.6342,-0.6373,-0.6424,-0.6424,-0.6424,-0.6488,-0.6597,-0.6597,-0.6597,-0.6515,-0.5606,-0.5197,-0.5115,-0.3896,-0.2825,-0.1912,-0.1664,-0.0906,0.0,0.0,0.0,0.0,0.0,0.0,0.0,0.0,0.0,0.0,0.0,0.0,0.0,0.0,0.0,0.0202,0.0873,0.1006,0.1274,0.221,0.2342,0.241,0.2678,0.3211,0.368,0.368,0.414,0.448,0.4323,0.4395,0.0,0.0,0.4317,0.42,0.3578,0.3306,0.2696,0.0,0.0,0.0,0.0,0.0,0.0,0.0,0.0,0.0,0.0,0.0,0.0,0.0,0.0,0.0,0.0,0.0,0.0,-0.0067,-0.094,-0.1273,-0.1407,-0.328,-0.4015,-0.4092,-0.5145,-0.5464,-0.5449,-0.5535,-0.5566,-0.5566,-1.4088,-1.4088,-1.4088,-1.4088,-1.4088,-1.3906,-1.3379,-1.3294,-1.3118,-1.2601,-1.1906,-1.1552,-1.1552,-1.0524,-0.9836,-0.9836,-1.0265,-1.0611,-1.0611,-1.0091,-0.9836,-0.9836,-0.913,-0.8558,-0.7962,-0.7716,-0.7303,-0.6576,-0.6576,-0.6536,-0.6464,-0.6539,-0.6576,-0.6576,-0.6576,-0.6624,-0.6702,-0.6702,-0.6702,-0.6615,-0.5363,-0.4861,-0.4696,-0.3049,-0.2042,-0.1532,-0.1023,-0.0508,0.0,0.0,0.0,0.0,0.0,0.0,0.0,0.0,0.0,0.0,0.0,0.0,0.0074,0.0495,0.0969,0.1432,0.1814,0.1941,0.221,0.3078,0.3278,0.3411,0.3882,0.435,0.4599,0.4537,0.4858,0.5057,0.4843,0.4745,0.0,0.4691,0.4752,0.467,0.4439,0.4061,0.3498,0.2572,0.0,0.0,0.0617,0.0188,0.0,0.0,0.0,0.0,0.0,0.0,0.0,0.0,0.0,0.0,0.0,0.0,0.0,0.0,-0.0471,-0.0739,-0.0873,-0.2678,-0.3413,-0.3551,-0.4971,-0.5437,-0.5449,-0.5535,-0.5589,-0.562,-1.4088,-1.4088,-1.4088,-1.4088,-1.3913,-1.347,-1.2504,-1.2151,-1.1724,-1.0697,-1.0438,-1.0351,-1.0351,-0.9318,-0.8627,-0.8627,-0.9488,-1.0091,-1.0091,-0.9144,-0.8627,-0.8627,-0.7665,-0.7139,-0.7139,-0.7,-0.6865,-0.6736,-0.6736,-0.6722,-0.6702,-0.6722,-0.6736,-0.6736,-0.6736,-0.6746,-0.6766,-0.6599,-0.6515,-0.6344,-0.4992,-0.44,-0.424,-0.2161,-0.1395,-0.122,-0.035,0.0,0.0,0.0,0.0,0.0,0.0,0.0,0.0,0.0157,0.0235,0.0234,0.023,0.0379,0.0672,0.1345,0.2233,0.2909,0.2896,0.2878,0.3145,0.4015,0.4215,0.4486,0.5226,0.5428,0.5311,0.5155,0.5131,0.5026,0.4731,0.0,0.4724,0.4724,0.486,0.5006,0.5152,0.4555,0.4175,0.4009,0.2586,0.1601,0.0,0.0576,0.013,0.0,0.0,0.0,0.0,0.0,0.0,0.0,0.0,0.0,0.0,0.0,0.0,0.0,-0.0135,-0.0202,-0.0337,-0.2011,-0.2678,-0.288,-0.4439,-0.5043,-0.504,-0.5323,-0.5378,-0.5414,-1.4088,-1.4088,-1.4088,-1.4088,-1.3294,-1.2504,-1.2328,-1.1466,-1.0783,-1.0611,-0.9753,-0.9148,-0.9148,-0.8101,-0.7404,-0.7404,-0.7577,-0.7661,-0.7661,-0.7489,-0.7404,-0.7404,-0.7228,-0.7139,-0.7139,-0.7,-0.6915,-0.6895,-0.6895,-0.6827,-0.6705,-0.6831,-0.6895,-0.6895,-0.6895,-0.6959,-0.6984,-0.6013,-0.5571,-0.5396,-0.3186,-0.2303,-0.2127,-0.0802,-0.0268,-0.0268,-0.0089,0.0,0.0,0.0,0.0,0.0,0.0,0.0,0.0161,0.1105,0.1333,0.1332,0.1327,0.1994,0.261,0.2617,0.2792,0.3049,0.3639,0.3816,0.4082,0.5024,0.516,0.5226,0.5362,0.5428,0.5311,0.5155,0.5131,0.5026,0.4731,0.0,0.4884,0.4884,0.5009,0.5159,0.5311,0.5279,0.4878,0.4056,0.3725,0.2922,0.1389,0.1196,0.0734,0.0,0.0,0.0,0.0,0.0,0.0,0.0,0.0,0.0,0.0,0.0,0.0,-0.0067,-0.0806,-0.1073,-0.1207,-0.2277,-0.2678,-0.2751,-0.316,-0.3213,-0.3224,-0.4074,-0.4397,-0.4541,-1.3294,-1.3646,-1.3737,-1.2431,-1.2083,-1.1649,-1.0611,-1.0009,-0.9488,-0.879,-0.8273,-0.7929,-0.7929,-0.7404,-0.7139,-0.7139,-0.7139,-0.7139,-0.7139,-0.7139,-0.7139,-0.7139,-0.7139,-0.7139,-0.7139,-0.7078,-0.7044,-0.7044,-0.7044,-0.7007,-0.6939,-0.701,-0.7044,-0.7044,-0.7044,-0.7078,-0.7051,-0.5891,-0.5359,-0.5181,-0.2772,-0.179,-0.17,-0.0449,0.0,0.0,0.0,0.0,0.0,0.0,0.0,0.0,0.0,0.0414,0.0971,0.1421,0.1957,0.2425,0.2425,0.3179,0.3964,0.3818,0.4101,0.4526,0.4822,0.4806,0.4888,0.5296,0.5428,0.5428,0.5428,0.5428,0.5311,0.5155,0.5131,0.0,0.0,0.4874,0.4948,0.5023,0.5091,0.5189,0.5348,0.5428,0.5226,0.4755,0.4284,0.3613,0.2811,0.1809,0.114,0.0739,0.0269,0.0,0.0,0.0,0.0,0.0,0.0,0.0,0.0,0.0,0.0,0.0,-0.0404,-0.0605,-0.0672,-0.1542,-0.1941,-0.2012,-0.2581,-0.2776,-0.2748,-0.3193,-0.3445,-0.3559,-1.2942,-1.347,-1.3561,-1.1735,-1.1477,-1.1047,-0.9492,-0.8798,-0.8193,-0.7228,-0.7139,-0.7139,-0.7139,-0.7139,-0.7139,-0.7139,-0.7139,-0.7139,-0.7139,-0.7139,-0.7139,-0.7139,-0.7139,-0.7139,-0.7139,-0.7139,-0.7139,-0.7139,-0.7139,-0.7139,-0.7139,-0.7139,-0.7139,-0.7051,-0.6782,-0.6694,-0.6605,-0.5179,-0.4554,-0.4376,-0.2237,-0.1344,-0.1254,-0.0359,0.0,0.0,0.0,0.0,0.0,0.0,0.0177,0.0433,0.0424,0.1158,0.2019,0.2286,0.3049,0.3826,0.3513,0.4217,0.5049,0.4925,0.5319,0.5766,0.5623,0.5471,0.5428,0.5428,0.5428,0.5428,0.5428,0.5428,0.5311,0.5155,0.0,0.0,0.0,0.4979,0.505,0.5121,0.5162,0.5233,0.5418,0.5428,0.5428,0.5428,0.4755,0.4217,0.4015,0.2678,0.1809,0.1608,0.0538,0.0,0.0,0.0,0.0,0.0,0.0,0.0,0.0,0.0,0.0,0.0,0.0,0.0,-0.0067,-0.0739,-0.1006,-0.1074,-0.181,-0.2078,-0.2078,-0.2277,-0.2444,-0.2558,-1.3997,-1.3997,-1.4082,-1.3913,-1.2083,-1.0611,-1.0524,-0.8619,-0.7228,-0.7139,-0.7139,-0.7139,-0.7139,-0.7139,-0.7139,-0.7139,-0.7139,-0.7139,-0.7139,-0.7139,-0.7139,-0.7139,-0.7139,-0.7139,-0.7139,-0.7139,-0.7139,-0.7139,-0.7139,-0.7139,-0.7139,-0.7139,-0.7139,-0.7051,-0.5983,-0.5536,-0.5359,-0.3038,-0.2058,-0.1969,-0.0628,-0.009,-0.009,0.0,0.0,0.0,0.0,0.0,0.0,0.0,0.0708,0.1641,0.152,0.231,0.3465,0.4249,0.5237,0.5867,0.4844,0.5392,0.6143,0.5917,0.5842,0.5766,0.5623,0.5471,0.5428,0.5428,0.5428,0.5428,0.5428,0.5428,0.5311,0.5155,0.0,0.0,0.4958,0.5155,0.5281,0.5145,0.5257,0.5415,0.5425,0.5428,0.5428,0.5428,0.5359,0.4888,0.4015,0.3882,0.3411,0.2611,0.0941,0.0,0.0,0.0,0.0,0.0,0.0,0.0,0.0,0.0,0.0,0.0,0.0,0.0,0.0,-0.0067,-0.0067,-0.0135,-0.0202,-0.0202,-0.0269,-0.1074,-0.1409,-0.1546,-1.1052,-1.1832,-1.2083,-1.0091,-0.9052,-0.8444,-0.8444,-0.7661,-0.7139,-0.7139,-0.7139,-0.7139,-0.7139,-0.7139,-0.7139,-0.7139,-0.7139,-0.7139,-0.7139,-0.7139,-0.7139,-0.7139,-0.7139,-0.7139,-0.7139,-0.7139,-0.7139,-0.7139,-0.7139,-0.7139,-0.7051,-0.634,-0.6071,-0.5983,-0.4819,-0.4283,-0.4194,-0.2504,-0.179,-0.1701,-0.0449,0.0,0.0,0.0,0.0,0.0,0.0,0.0,0.009,0.0897,0.1425,0.1938,0.2584,0.3537,0.4515,0.5454,0.5944,0.6183,0.5786,0.6022,0.6247,0.6186,0.5986,0.5786,0.5732,0.5535,0.5428,0.5428,0.5428,0.5428,0.5428,0.5428,0.5342,0.5284,0.0,0.5387,0.5209,0.5291,0.5342,0.5281,0.5325,0.5428,0.5428,0.5428,0.5428,0.5428,0.5428,0.5226,0.4888,0.4284,0.3613,0.2744,0.2011,0.1677,0.1677,0.1074,0.0806,0.0806,0.0269,0.0,0.0,0.0,0.0,0.0,0.0,0.0,0.0,0.0,0.0,0.0,0.0,0.0,-0.0067,-0.0404,-0.0471,-0.0538,-0.9579,-1.0529,-1.0697,-0.8619,-0.7925,-0.7665,-0.7665,-0.7316,-0.7139,-0.7139,-0.7139,-0.7139,-0.7139,-0.7139,-0.7139,-0.7139,-0.7139,-0.7139,-0.7139,-0.7139,-0.7139,-0.7139,-0.7139,-0.7139,-0.7139,-0.7139,-0.7139,-0.7139,-0.7139,-0.6874,-0.6517,-0.5805,-0.5179,-0.4821,-0.3571,-0.3037,-0.2948,-0.1791,-0.1254,-0.1165,-0.0359,0.0,0.0,0.0,0.0,0.0,0.0,0.0269,0.0718,0.1522,0.2325,0.3028,0.3836,0.4667,0.5513,0.6097,0.6338,0.6338,0.6338,0.6338,0.6338,0.6338,0.6067,0.5874,0.5874,0.5681,0.5488,0.5443,0.5433,0.5416,0.5435,0.5428,0.5428,0.5428,0.5428,0.5428,0.5428,0.5428,0.5428,0.5428,0.5428,0.5428,0.5428,0.5428,0.5428,0.5428,0.5428,0.5428,0.5428,0.4821,0.4151,0.3547,0.3547,0.3547,0.3547,0.2342,0.1742,0.1742,0.1141,0.0874,0.0807,0.0538,0.0404,0.0404,0.0135,0.0,0.0,0.0,0.0,0.0,0.0,0.0,0.0,0.0,0.0,0.0,-1.0611,-1.0611,-1.0611,-1.0611,-0.9666,-0.889,-0.889,-0.7841,-0.7139,-0.7139,-0.7139,-0.7139,-0.7139,-0.7139,-0.7139,-0.7139,-0.7139,-0.7139,-0.7139,-0.7139,-0.7139,-0.7139,-0.7139,-0.7139,-0.7051,-0.7051,-0.7051,-0.7051,-0.7051,-0.6517,-0.5359,-0.5359,-0.4732,-0.357,-0.2325,-0.179,-0.1701,-0.0539,0.0,0.0,0.0,0.0,0.0,0.0,0.0,0.0,0.0,0.0807,0.179,0.179,0.3396,0.5338,0.5135,0.5785,0.6444,0.6302,0.6338,0.6338,0.6338,0.6338,0.6338,0.6338,0.6142,0.603,0.603,0.5911,0.5762,0.562,0.5589,0.5545,0.5459,0.5428,0.5428,0.5428,0.5428,0.5428,0.5428,0.5428,0.5428,0.5428,0.5428,0.5428,0.5428,0.5428,0.5428,0.5428,0.5428,0.5428,0.5428,0.5428,0.5428,0.5428,0.5428,0.5428,0.5428,0.3613,0.2678,0.2678,0.2678,0.2678,0.2678,0.1742,0.134,0.1274,0.0404,0.0,0.0,0.0,0.0,0.0,0.0,0.0,0.0,0.0,0.0,0.0,-0.8185,-0.8185,-0.8185,-0.8185,-0.7837,-0.7665,-0.7665,-0.7316,-0.7139,-0.7139,-0.7139,-0.7139,-0.7139,-0.7139,-0.7139,-0.7139,-0.7139,-0.7139,-0.7139,-0.7139,-0.7139,-0.7139,-0.7139,-0.6694,-0.5894,-0.5894,-0.5534,-0.4639,-0.4639,-0.4461,-0.4105,-0.3306,-0.2683,-0.2325,-0.1076,-0.0539,-0.0539,-0.018,0.0,0.0,0.0,0.0,0.0,0.0,0.0,0.009,0.0986,0.1522,0.2058,0.3753,0.4823,0.5502,0.6075,0.6381,0.6444,0.6302,0.6338,0.6338,0.6338,0.6338,0.6338,0.6338,0.6142,0.603,0.603,0.5911,0.5789,0.5745,0.5657,0.5576,0.5532,0.5433,0.5428,0.5428,0.5428,0.5428,0.5428,0.5428,0.5428,0.5428,0.5428,0.5428,0.5428,0.5428,0.5428,0.5428,0.5428,0.5428,0.5428,0.5428,0.5428,0.5428,0.5428,0.5428,0.5428,0.4217,0.3613,0.3613,0.3011,0.2678,0.2678,0.241,0.2277,0.2277,0.2011,0.1877,0.181,0.1208,0.094,0.0873,0.0269,0.0,0.0,0.0,0.0,0.0,-0.7139,-0.7139,-0.7139,-0.7139,-0.7139,-0.7139,-0.7139,-0.7139,-0.7139,-0.7139,-0.7139,-0.7139,-0.7139,-0.7139,-0.7139,-0.7139,-0.7139,-0.7139,-0.7139,-0.7139,-0.7139,-0.7139,-0.7139,-0.6782,-0.6071,-0.6071,-0.5534,-0.4285,-0.4285,-0.3838,-0.2858,-0.2147,-0.1522,-0.1076,-0.0359,0.0,0.0,0.0,0.0,0.0,0.0,0.0,0.0,0.0,0.0269,0.0807,0.1522,0.2415,0.3484,0.4912,0.5714,0.6125,0.6606,0.6685,0.6532,0.6386,0.6305,0.6338,0.6338,0.6338,0.6338,0.6338,0.619,0.6122,0.6122,0.6051,0.5966,0.5905,0.5823,0.5728,0.561,0.5515,0.5433,0.5439,0.5428,0.5428,0.5428,0.5686,0.5815,0.5428,0.5686,0.5749,0.5428,0.5428,0.5428,0.5428,0.5428,0.5428,0.5428,0.5428,0.5428,0.5428,0.5428,0.5428,0.5428,0.4821,0.4553,0.4553,0.4015,0.3747,0.3747,0.3413,0.3211,0.3211,0.2878,0.2678,0.2678,0.2075,0.1876,0.1809,0.1276,0.1075,0.1075,0.1075,0.0807,0.0538,-0.7139,-0.7139,-0.7139,-0.7139,-0.7139,-0.7139,-0.7139,-0.7139,-0.7139,-0.7139,-0.7139,-0.7139,-0.7139,-0.7139,-0.7139,-0.7139,-0.7139,-0.7139,-0.7139,-0.6962,-0.6962,-0.6962,-0.6871,-0.6782,-0.6782,-0.6782,-0.616,-0.4912,-0.4912,-0.3753,-0.1612,-0.1612,-0.1076,0.0,0.0,0.0,0.0,0.0,0.0,0.0,0.0,0.009,0.018,0.018,0.0897,0.1969,0.2058,0.3575,0.5447,0.5536,0.6242,0.7099,0.697,0.6814,0.6654,0.6512,0.6373,0.6338,0.6338,0.6338,0.6338,0.6338,0.6338,0.6338,0.6338,0.6338,0.622,0.6078,0.6027,0.5928,0.5657,0.5586,0.5593,0.5516,0.5491,0.5557,0.5624,0.6334,0.6527,0.5752,0.6334,0.6461,0.5624,0.5428,0.5428,0.5428,0.5428,0.5428,0.5428,0.5428,0.5428,0.5428,0.5428,0.5428,0.5428,0.5428,0.5428,0.5428,0.5428,0.5428,0.5362,0.4486,0.4148,0.4082,0.328,0.2945,0.2945,0.2878,0.2811,0.2811,0.2744,0.2678,0.2678,0.2678,0.2143,0.1407,-0.7139,-0.7139,-0.7139,-0.7139,-0.7139,-0.7139,-0.7139,-0.7139,-0.7139,-0.7139,-0.7139,-0.7139,-0.7139,-0.7139,-0.7139,-0.7139,-0.7139,-0.7139,-0.7139,-0.6248,-0.5805,-0.5805,-0.4819,-0.437,-0.437,-0.437,-0.3304,-0.1166,-0.1166,-0.0897,-0.0359,-0.0359,-0.0269,0.0,0.0,0.0,0.0,0.0,0.0,0.0,0.0,0.0539,0.1433,0.1433,0.2147,0.3304,0.4285,0.4912,0.5536,0.6428,0.6802,0.697,0.6939,0.6742,0.6515,0.6481,0.6373,0.6338,0.6338,0.6338,0.6338,0.6338,0.6338,0.6338,0.6338,0.6338,0.6251,0.6217,0.6017,0.583,0.5769,0.5566,0.5663,0.6338,0.6396,0.6658,0.7312,0.7572,0.7637,0.7442,0.7637,0.7372,0.6527,0.5818,0.5428,0.5428,0.5428,0.5428,0.5428,0.5428,0.5428,0.5428,0.5428,0.5428,0.5428,0.5428,0.5428,0.5428,0.5428,0.5428,0.5362,0.516,0.509,0.509,0.4891,0.4821,0.4755,0.4015,0.3747,0.368,0.2945,0.2678,0.2678,0.2678,0.2544,0.241,-0.7139,-0.7139,-0.7139,-0.7139,-0.7139,-0.7139,-0.7139,-0.7139,-0.7139,-0.7139,-0.7139,-0.7139,-0.7139,-0.6605,-0.6068,-0.5442,-0.544,-0.544,-0.544,-0.4907,-0.4552,-0.4552,-0.3927,-0.3303,-0.2769,-0.2771,-0.2147,-0.0897,-0.0897,-0.0539,0.0,0.0,0.0,0.0,0.0,0.0,0.0,0.0628,0.0539,0.009,0.1254,0.1791,0.1879,0.2413,0.3393,0.4552,0.5179,0.5714,0.6337,0.6871,0.7092,0.7031,0.7031,0.6871,0.6675,0.6603,0.6871,0.7122,0.7042,0.7403,0.7706,0.7706,0.7706,0.748,0.649,0.6641,0.7022,0.7022,0.725,0.7427,0.7179,0.699,0.7005,0.7274,0.7307,0.7502,0.7957,0.8355,0.8484,0.8027,0.8355,0.8291,0.7372,0.692,0.6666,0.6666,0.6666,0.647,0.6075,0.6009,0.5815,0.5428,0.5428,0.5428,0.5428,0.5428,0.5428,0.5428,0.5428,0.5428,0.5428,0.5428,0.5428,0.5428,0.5428,0.5428,0.5362,0.4888,0.4686,0.4619,0.4151,0.4015,0.4015,0.4015,0.368,0.328,-0.7139,-0.7139,-0.7139,-0.7139,-0.7139,-0.7139,-0.7139,-0.7139,-0.7139,-0.7139,-0.6962,-0.6782,-0.6782,-0.5802,-0.4732,-0.3659,-0.357,-0.357,-0.357,-0.3392,-0.3303,-0.3303,-0.3126,-0.2503,-0.1522,-0.1522,-0.1522,-0.1522,-0.1522,-0.0986,0.0,0.0,0.0,0.0,0.018,0.0269,0.0359,0.1612,0.1522,0.0807,0.2769,0.3126,0.2504,0.3482,0.4641,0.5716,0.5716,0.6425,0.7401,0.7401,0.7577,0.7661,0.7661,0.7642,0.7484,0.7318,0.7712,0.8243,0.8137,0.8694,0.9296,0.9296,0.9296,0.8846,0.7173,0.748,0.8084,0.8084,0.8666,0.9114,0.87,0.8594,0.8506,0.8289,0.8221,0.8285,0.8415,0.9069,0.9268,0.8544,0.8941,0.9011,0.8285,0.8091,0.8027,0.8027,0.8027,0.7697,0.6981,0.6915,0.6527,0.562,0.562,0.5557,0.5428,0.5428,0.5428,0.5428,0.5428,0.5428,0.5428,0.5428,0.5428,0.5428,0.5428,0.5428,0.5428,0.5428,0.5428,0.5428,0.5428,0.5428,0.5428,0.5428,0.4891,0.4148,-0.7139,-0.7139,-0.7139,-0.7139,-0.7139,-0.7139,-0.7139,-0.7139,-0.7139,-0.7139,-0.6248,-0.5625,-0.5625,-0.4552,-0.3748,-0.357,-0.357,-0.357,-0.357,-0.2592,-0.2057,-0.2057,-0.1076,-0.0449,-0.0269,-0.0269,-0.0269,-0.0269,-0.0269,-0.018,0.0,0.0,0.0,0.009,0.1076,0.1522,0.1612,0.2858,0.3304,0.3126,0.3481,0.4107,0.4912,0.509,0.5891,0.6874,0.6874,0.7665,0.8627,0.8627,0.9318,1.0091,1.0091,1.0028,0.9898,0.9596,0.9472,0.9418,0.9128,0.9221,0.9296,0.9296,0.9296,0.9221,0.8917,0.8993,0.9069,0.9069,0.9145,0.9,0.8674,0.8536,0.859,0.9057,0.9139,0.9396,1.0168,1.0364,1.0364,1.0231,0.9658,0.9274,0.9139,0.842,0.8027,0.8027,0.8027,0.7962,0.7832,0.7832,0.7437,0.6527,0.6523,0.6141,0.5428,0.5428,0.5428,0.5428,0.5428,0.5428,0.5428,0.5428,0.5428,0.5428,0.5428,0.5428,0.5428,0.5428,0.5428,0.5428,0.5428,0.5428,0.5428,0.5428,0.5296,0.5226,-0.5174,-0.5174,-0.5174,-0.5174,-0.5174,-0.5174,-0.5174,-0.5174,-0.5174,-0.5174,-0.473,-0.4374,-0.4374,-0.3304,-0.2324,-0.1612,-0.1612,-0.1612,-0.1612,-0.1076,-0.0807,-0.0807,-0.0269,0.0,0.0,0.0,0.0,0.0,0.0,0.0,0.0,0.0,0.0359,0.0986,0.1522,0.2147,0.2858,0.4107,0.4196,0.3748,0.4996,0.5534,0.5447,0.6071,0.6694,0.7228,0.7841,0.8452,0.8978,0.9666,1.0178,1.0611,1.0611,1.0545,1.0503,1.0274,1.055,1.0878,1.0429,1.0789,1.1211,1.0986,1.095,1.095,1.095,1.095,1.0801,1.0265,1.0558,1.0725,1.0236,1.0137,1.011,1.0248,1.0276,1.0406,1.0802,1.0802,1.0742,1.0645,1.0238,1.0047,1.0047,0.9652,0.9454,0.9454,0.9454,0.9256,0.8742,0.8748,0.835,0.7437,0.7437,0.7246,0.6859,0.64,0.6141,0.6141,0.562,0.5428,0.5428,0.5428,0.5428,0.5428,0.5428,0.5428,0.5428,0.5428,0.5428,0.5428,0.5428,0.5428,0.5428,0.5428,0.5428,0.5428]}]]